[[{"header":{"parameterUnit":"m.s-1","parameterCategory":1,"la1":30.6,"la2":28.766,"lo1":-90.7593,"lo2":-88.6598,"dx":0.0162,"dy":0.0183,"nx":116,"ny":114,"refTime":"2022-11-11T18:00:00:Z","depth":0,"parameterNumber":2,"parameterNumberName":"U-component_of_WINDS"},"data":[0.0,0.0,0.0,0.0,0.0,0.0,0.0,0.0,0.0,0.0,0.0,0.0,0.0,0.0,0.0,0.0,0.0,0.0,0.0,0.0,0.0,0.0,0.0,0.0,0.0,0.0,0.0,0.0,0.0,0.0,0.0,0.0,0.0,0.0,0.0,0.0,0.0,0.0,0.0,0.0,0.0,0.0,0.0,0.0,0.0,0.0,0.0,0.0,0.0,0.0,0.0,0.0,0.0,0.0,0.0,0.0,0.0,0.0,0.0,0.0,0.0,0.0,0.0,0.0,0.0,0.0,0.0,0.0,0.0,0.0,0.0,0.0,0.0,0.0,0.0,0.0,0.0,0.0,0.0,0.0,0.0,0.0,0.0,0.0,0.0,0.0,0.0,0.0,0.0,0.0,0.0,0.0,0.0,0.0,0.0,0.0,0.0,0.0,0.0,0.0,0.0,0.0,0.0,0.0,0.0,0.0,0.0,0.0,0.0,0.0,0.0,0.0,0.0,0.0,0.0,0.0,0.0,0.0,0.0,0.0,0.0,0.0,0.0,0.0,0.0,0.0,0.0,0.0,0.0,0.0,0.0,0.0,0.0,0.0,0.0,0.0,0.0,0.0,0.0,0.0,0.0,0.0,0.0,0.0,0.0,0.0,0.0,0.0,0.0,0.0,0.0,0.0,0.0,0.0,0.0,0.0,0.0,0.0,0.0,0.0,0.0,0.0,0.0,0.0,0.0,0.0,0.0,0.0,0.0,0.0,0.0,0.0,0.0,0.0,0.0,0.0,0.0,0.0,0.0,0.0,0.0,0.0,0.0,0.0,0.0,0.0,0.0,0.0,0.0,0.0,0.0,0.0,0.0,0.0,0.0,0.0,0.0,0.0,0.0,0.0,0.0,0.0,0.0,0.0,0.0,0.0,0.0,0.0,0.0,0.0,0.0,0.0,0.0,0.0,0.0,0.0,0.0,0.0,0.0,0.0,0.0,0.0,0.0,0.0,0.0,0.0,0.0,0.0,0.0,0.0,0.0,0.0,0.0,0.0,0.0,0.0,0.0,0.0,0.0,0.0,0.0,0.0,0.0,0.0,0.0,0.0,0.0,0.0,0.0,0.0,0.0,0.0,0.0,0.0,0.0,0.0,0.0,0.0,0.0,0.0,0.0,0.0,0.0,0.0,0.0,0.0,0.0,0.0,0.0,0.0,0.0,0.0,0.0,0.0,0.0,0.0,0.0,0.0,0.0,0.0,0.0,0.0,0.0,0.0,0.0,0.0,0.0,0.0,0.0,0.0,0.0,0.0,0.0,0.0,0.0,0.0,0.0,0.0,0.0,0.0,0.0,0.0,0.0,0.0,0.0,0.0,0.0,0.0,0.0,0.0,0.0,0.0,0.0,0.0,0.0,0.0,0.0,0.0,0.0,0.0,0.0,0.0,0.0,0.0,0.0,0.0,0.0,0.0,0.0,0.0,0.0,0.0,0.0,0.0,0.0,0.0,0.0,0.0,0.0,0.0,0.0,0.0,0.0,0.0,0.0,0.0,0.0,0.0,0.0,0.0,0.0,0.0,0.0,0.0,0.0,0.0,0.0,0.0,0.0,0.0,0.0,0.0,0.0,0.0,0.0,0.0,0.0,0.0,0.0,0.0,0.0,0.0,0.0,0.0,0.0,0.0,0.0,0.0,0.0,0.0,0.0,0.0,0.0,0.0,0.0,0.0,0.0,0.0,0.0,0.0,0.0,0.0,0.0,0.0,0.0,0.0,0.0,0.0,0.0,0.0,0.0,0.0,0.0,0.0,0.0,0.0,0.0,0.0,0.0,0.0,0.0,0.0,0.0,0.0,0.0,0.0,0.0,0.0,0.0,0.0,0.0,0.0,0.0,0.0,0.0,0.0,0.0,0.0,0.0,0.0,0.0,0.0,0.0,0.0,0.0,0.0,0.0,0.0,0.0,0.0,0.0,0.0,0.0,0.0,0.0,0.0,0.0,0.0,0.0,0.0,0.0,0.0,0.0,0.0,0.0,0.0,0.0,0.0,0.0,0.0,0.0,0.0,0.0,0.0,0.0,0.0,0.0,0.0,0.0,0.0,0.0,0.0,0.0,0.0,0.0,0.0,0.0,0.0,0.0,0.0,0.0,0.0,0.0,0.0,0.0,0.0,0.0,0.0,0.0,0.0,0.0,0.0,0.0,0.0,0.0,0.0,0.0,0.0,0.0,0.0,0.0,0.0,0.0,0.0,0.0,0.0,0.0,0.0,0.0,0.0,0.0,0.0,0.0,0.0,0.0,0.0,0.0,0.0,0.0,0.0,0.0,0.0,0.0,0.0,0.0,0.0,0.0,0.0,0.0,0.0,0.0,0.0,0.0,0.0,0.0,0.0,0.0,0.0,0.0,0.0,0.0,0.0,0.0,0.0,0.0,0.0,0.0,0.0,0.0,0.0,0.0,0.0,0.0,0.0,0.0,0.0,0.0,0.0,0.0,0.0,0.0,0.0,0.0,0.0,0.0,0.0,0.0,0.0,0.0,0.0,0.0,0.0,0.0,0.0,0.0,0.0,0.0,0.0,0.0,0.0,0.0,0.0,0.0,0.0,0.0,0.0,0.0,0.0,0.0,0.0,0.0,0.0,0.0,0.0,0.0,0.0,0.0,0.0,0.0,0.0,0.0,0.0,0.0,0.0,0.0,0.0,0.0,0.0,0.0,0.0,0.0,0.0,0.0,0.0,0.0,0.0,0.0,0.0,0.0,0.0,0.0,0.0,0.0,0.0,0.0,0.0,0.0,0.0,0.0,0.0,0.0,0.0,0.0,0.0,0.0,0.0,0.0,0.0,0.0,0.0,0.0,0.0,0.0,0.0,0.0,0.0,0.0,0.0,0.0,0.0,0.0,0.0,0.0,0.0,0.0,0.0,0.0,0.0,0.0,0.0,0.0,0.0,0.0,0.0,0.0,0.0,0.0,0.0,0.0,0.0,0.0,0.0,0.0,0.0,0.0,0.0,0.0,0.0,0.0,0.0,0.0,0.0,0.0,0.0,0.0,0.0,0.0,0.0,0.0,0.0,0.0,0.0,0.0,0.0,0.0,0.0,0.0,0.0,0.0,0.0,0.0,0.0,0.0,0.0,0.0,0.0,0.0,0.0,0.0,0.0,0.0,0.0,0.0,0.0,0.0,0.0,0.0,0.0,0.0,0.0,0.0,0.0,0.0,0.0,0.0,0.0,0.0,0.0,0.0,0.0,0.0,0.0,0.0,0.0,0.0,0.0,0.0,0.0,0.0,0.0,0.0,0.0,0.0,0.0,0.0,0.0,0.0,0.0,0.0,0.0,0.0,0.0,0.0,0.0,0.0,0.0,0.0,0.0,0.0,0.0,0.0,0.0,0.0,0.0,0.0,0.0,0.0,0.0,0.0,0.0,0.0,0.0,0.0,0.0,0.0,0.0,0.0,0.0,0.0,0.0,0.0,0.0,0.0,0.0,0.0,0.0,0.0,0.0,0.0,0.0,0.0,0.0,0.0,0.0,0.0,0.0,0.0,0.0,0.0,0.0,0.0,0.0,0.0,0.0,0.0,0.0,0.0,0.0,0.0,0.0,0.0,0.0,0.0,0.0,0.0,0.0,0.0,0.0,0.0,0.0,0.0,0.0,0.0,0.0,0.0,0.0,0.0,0.0,0.0,0.0,0.0,0.0,0.0,0.0,0.0,0.0,0.0,0.0,0.0,0.0,0.0,0.0,0.0,0.0,0.0,0.0,0.0,0.0,0.0,0.0,0.0,0.0,0.0,0.0,0.0,0.0,0.0,0.0,0.0,0.0,0.0,0.0,0.0,0.0,0.0,0.0,0.0,0.0,0.0,0.0,0.0,0.0,0.0,0.0,0.0,0.0,0.0,0.0,0.0,0.0,0.0,0.0,0.0,0.0,0.0,0.0,0.0,0.0,0.0,0.0,0.0,0.0,0.0,0.0,0.0,0.0,0.0,0.0,0.0,0.0,0.0,0.0,0.0,0.0,0.0,0.0,0.0,0.0,0.0,0.0,0.0,0.0,0.0,0.0,0.0,0.0,0.0,0.0,0.0,0.0,0.0,0.0,0.0,0.0,0.0,0.0,0.0,0.0,0.0,0.0,0.0,0.0,0.0,0.0,0.0,0.0,0.0,0.0,0.0,0.0,0.0,0.0,0.0,0.0,0.0,0.0,0.0,0.0,0.0,0.0,0.0,0.0,0.0,0.0,0.0,0.0,0.0,0.0,0.0,0.0,0.0,0.0,0.0,0.0,0.0,0.0,0.0,0.0,0.0,0.0,0.0,0.0,0.0,0.0,0.0,0.0,0.0,0.0,0.0,0.0,0.0,0.0,0.0,0.0,0.0,0.0,0.0,0.0,0.0,0.0,0.0,0.0,0.0,0.0,0.0,0.0,0.0,0.0,0.0,0.0,0.0,0.0,0.0,0.0,0.0,0.0,0.0,0.0,0.0,0.0,0.0,0.0,0.0,0.0,0.0,0.0,0.0,0.0,0.0,0.0,0.0,0.0,0.0,0.0,0.0,0.0,0.0,0.0,0.0,0.0,0.0,0.0,0.0,0.0,0.0,0.0,0.0,0.0,0.0,0.0,0.0,0.0,0.0,0.0,0.0,0.0,0.0,0.0,0.0,0.0,0.0,0.0,0.0,0.0,0.0,0.0,0.0,0.0,0.0,0.0,0.0,0.0,0.0,0.0,0.0,0.0,0.0,0.0,0.0,0.0,0.0,0.0,0.0,0.0,0.0,0.0,0.0,0.0,0.0,0.0,0.0,0.0,0.0,0.0,0.0,0.0,0.0,0.0,0.0,0.0,0.0,0.0,0.0,0.0,0.0,0.0,0.0,0.0,0.0,0.0,0.0,0.0,0.0,0.0,0.0,0.0,0.0,0.0,0.0,0.0,0.0,0.0,0.0,0.0,0.0,0.0,0.0,0.0,0.0,0.0,0.0,0.0,0.0,0.0,0.0,0.0,0.0,0.0,0.0,0.0,0.0,0.0,0.0,0.0,0.0,0.0,0.0,0.0,0.0,0.0,0.0,0.0,0.0,0.0,0.0,0.0,0.0,0.0,0.0,0.0,0.0,0.0,0.0,0.0,0.0,0.0,0.0,0.0,0.0,0.0,0.0,0.0,0.0,0.0,0.0,0.0,0.0,0.0,0.0,0.0,0.0,0.0,0.0,0.0,0.0,0.0,0.0,0.0,0.0,0.0,0.0,0.0,0.0,0.0,0.0,0.0,0.0,0.0,0.0,0.0,0.0,0.0,0.0,0.0,0.0,0.0,0.0,0.0,0.0,0.0,0.0,0.0,0.0,0.0,0.0,0.0,0.0,0.0,0.0,0.0,0.0,0.0,0.0,0.0,0.0,0.0,0.0,0.0,0.0,0.0,0.0,0.0,0.0,0.0,0.0,0.0,0.0,0.0,0.0,0.0,0.0,0.0,0.0,0.0,0.0,0.0,0.0,0.0,0.0,0.0,0.0,0.0,0.0,0.0,0.0,0.0,0.0,0.0,0.0,0.0,0.0,0.0,0.0,0.0,0.0,0.0,0.0,0.0,0.0,0.0,0.0,0.0,0.0,0.0,0.0,0.0,0.0,0.0,0.0,0.0,0.0,0.0,0.0,0.0,0.0,0.0,0.0,0.0,0.0,0.0,0.0,0.0,0.0,0.0,0.0,0.0,0.0,0.0,0.0,0.0,0.0,0.0,0.0,0.0,0.0,0.0,0.0,0.0,0.0,0.0,0.0,0.0,0.0,0.0,0.0,0.0,0.0,0.0,0.0,0.0,0.0,0.0,0.0,0.0,0.0,0.0,0.0,0.0,0.0,0.0,0.0,0.0,0.0,0.0,0.0,0.0,0.0,0.0,0.0,0.0,0.0,0.0,0.0,0.0,0.0,0.0,0.0,0.0,0.0,0.0,0.0,0.0,0.0,0.0,0.0,0.0,0.0,0.0,0.0,0.0,0.0,0.0,0.0,0.0,0.0,0.0,0.0,0.0,0.0,0.0,0.0,0.0,0.0,0.0,0.0,0.0,0.0,0.0,0.0,0.0,0.0,0.0,0.0,0.0,0.0,0.0,0.0,0.0,0.0,0.0,6.3089,5.9781,0.0,0.0,0.0,0.0,0.0,0.0,0.0,0.0,0.0,0.0,0.0,0.0,0.0,0.0,0.0,0.0,0.0,0.0,0.0,0.0,0.0,0.0,0.0,3.743,3.7777,3.7353,3.77,0.0,0.0,0.0,0.0,0.0,0.0,0.0,4.0392,4.1662,4.3602,4.6159,4.7465,4.9409,5.1913,4.962,4.7906,4.6771,0.0,0.0,0.0,0.0,0.0,0.0,0.0,0.0,0.0,0.0,0.0,0.0,0.0,0.0,0.0,0.0,0.0,0.0,0.0,0.0,0.0,0.0,0.0,0.0,0.0,0.0,0.0,0.0,0.0,0.0,0.0,0.0,0.0,0.0,0.0,0.0,0.0,0.0,0.0,0.0,0.0,0.0,0.0,0.0,0.0,0.0,0.0,0.0,0.0,0.0,0.0,0.0,0.0,0.0,0.0,0.0,0.0,0.0,0.0,0.0,0.0,0.0,0.0,0.0,0.0,0.0,0.0,0.0,0.0,0.0,6.6744,6.4243,0.0,0.0,0.0,0.0,0.0,0.0,0.0,0.0,0.0,0.0,0.0,0.0,0.0,0.0,0.0,0.0,0.0,0.0,0.0,0.0,0.0,3.8161,3.9585,4.0008,3.9931,3.9354,3.9854,4.0239,4.0392,4.0123,0.0,0.0,0.0,0.0,4.3932,4.4778,4.6814,5.018,5.1586,5.3551,5.5981,5.741,5.6136,5.2507,5.0675,0.0,0.0,0.0,0.0,0.0,0.0,0.0,0.0,0.0,0.0,0.0,0.0,0.0,0.0,0.0,0.0,0.0,0.0,0.0,0.0,0.0,0.0,0.0,0.0,0.0,0.0,0.0,0.0,0.0,0.0,0.0,0.0,0.0,0.0,0.0,0.0,0.0,0.0,0.0,0.0,0.0,0.0,0.0,0.0,0.0,0.0,0.0,0.0,0.0,0.0,0.0,0.0,0.0,0.0,0.0,0.0,0.0,0.0,0.0,0.0,0.0,0.0,0.0,6.8936,6.9513,6.9552,7.0552,7.1706,7.2706,7.0052,6.8859,6.8629,6.5628,0.0,0.0,0.0,0.0,0.0,0.0,0.0,0.0,0.0,0.0,0.0,0.0,0.0,0.0,0.0,0.0,0.0,0.0,0.0,4.1239,4.147,4.2777,4.3893,4.4547,4.4008,4.397,4.4701,4.3393,0.0,0.0,0.0,4.5624,4.7394,4.8279,5.0048,5.2801,5.6696,5.9553,6.137,6.1602,6.1022,5.963,5.7159,5.5422,5.4303,0.0,0.0,0.0,0.0,0.0,0.0,0.0,0.0,0.0,0.0,0.0,0.0,0.0,0.0,0.0,0.0,0.0,0.0,0.0,0.0,0.0,0.0,0.0,0.0,0.0,0.0,0.0,0.0,0.0,0.0,0.0,0.0,0.0,0.0,0.0,0.0,0.0,0.0,0.0,0.0,0.0,5.8434,5.7857,0.0,0.0,0.0,0.0,0.0,0.0,0.0,0.0,0.0,0.0,0.0,0.0,0.0,6.632,6.7898,6.8859,6.9706,7.0437,7.2745,7.386,7.3937,7.5553,7.6015,7.5515,7.5822,0.0,7.0475,6.9321,0.0,0.0,0.0,0.0,0.0,0.0,0.0,0.0,0.0,0.0,0.0,0.0,0.0,0.0,0.0,0.0,0.0,0.0,0.0,0.0,0.0,4.5586,4.6471,4.8317,4.8125,4.8048,4.8432,4.7778,0.0,0.0,4.824,4.9009,5.0202,5.205,5.4535,5.768,6.1524,6.3574,6.3864,6.4831,6.5064,6.4638,6.3515,6.0635,5.6655,5.6386,0.0,0.0,0.0,0.0,0.0,0.0,0.0,0.0,0.0,0.0,0.0,0.0,0.0,0.0,0.0,0.0,0.0,0.0,0.0,0.0,0.0,0.0,0.0,0.0,0.0,0.0,0.0,0.0,0.0,0.0,0.0,0.0,0.0,0.0,0.0,0.0,0.0,0.0,0.0,5.8473,6.0089,5.9742,6.0858,6.1281,0.0,0.0,0.0,0.0,0.0,0.0,0.0,0.0,0.0,6.9206,6.986,7.0975,7.2668,7.3053,7.3668,7.4514,7.5187,7.5726,7.6265,7.7554,7.8199,7.8238,7.816,7.7351,7.5809,7.2965,7.1745,7.1437,0.0,0.0,0.0,0.0,6.959,6.9898,0.0,0.0,0.0,0.0,0.0,0.0,0.0,0.0,0.0,0.0,0.0,0.0,4.7855,4.8163,4.8933,5.0856,5.101,5.1087,5.1318,5.1548,5.1664,5.1664,5.1856,5.2356,5.3203,5.5979,5.9145,6.2722,6.5507,6.665,6.6301,6.7539,6.8042,6.7849,6.7849,6.4754,5.9609,5.9766,5.8276,5.5818,0.0,0.0,0.0,0.0,0.0,0.0,0.0,0.0,0.0,0.0,0.0,0.0,0.0,0.0,0.0,0.0,0.0,0.0,0.0,0.0,0.0,0.0,0.0,0.0,0.0,0.0,0.0,0.0,0.0,0.0,0.0,0.0,0.0,0.0,0.0,0.0,0.0,6.0935,6.2397,6.2397,6.3512,6.3858,0.0,0.0,0.0,0.0,0.0,0.0,6.9975,7.086,7.1706,7.2514,7.3812,7.5197,7.6659,7.6688,7.715,7.7997,7.7593,7.7775,7.843,7.9362,7.9979,8.0288,7.9941,7.9979,8.0018,7.6101,7.5236,7.6159,7.4245,7.413,7.4976,7.463,7.4476,7.4745,0.0,0.0,0.0,0.0,0.0,0.0,0.0,0.0,0.0,0.0,0.0,4.8817,4.8163,5.024,5.1702,5.1856,5.1856,5.2202,5.301,5.3857,5.4318,5.4318,5.5049,5.5857,5.6703,6.0145,6.3587,6.7089,6.8137,6.9048,6.9744,6.9821,6.9473,6.8738,6.8738,6.7617,6.5644,6.4097,6.2955,6.191,5.9416,0.0,0.0,0.0,0.0,0.0,0.0,0.0,0.0,0.0,0.0,0.0,0.0,0.0,0.0,0.0,0.0,0.0,0.0,0.0,0.0,0.0,0.0,0.0,0.0,0.0,0.0,0.0,0.0,0.0,0.0,0.0,0.0,0.0,0.0,0.0,0.0,0.0,0.0,6.6782,6.6859,0.0,0.0,0.0,0.0,6.9436,7.1014,7.2668,7.4322,7.5207,7.6092,7.6938,7.7141,7.7593,7.844,7.8602,7.9053,7.9864,8.0674,8.106,8.1137,8.1986,8.1986,8.1253,8.2063,8.1947,8.1021,7.8315,7.7246,7.7323,7.7121,7.6592,7.6015,7.6823,7.7092,7.7476,0.0,0.0,0.0,3.7892,3.8161,3.8661,3.9469,4.1085,4.2585,4.3701,4.6624,4.9279,5.1164,5.2702,5.4434,5.6588,5.678,5.7165,5.8011,5.8396,5.828,5.7742,5.905,6.102,6.3576,6.5418,6.7531,6.9916,7.1369,7.1949,7.1678,7.2258,7.2375,7.2065,7.1485,7.0634,6.9512,6.7733,6.5876,6.4116,6.3768,6.1601,0.0,0.0,0.0,0.0,0.0,0.0,0.0,0.0,0.0,0.0,0.0,0.0,0.0,0.0,0.0,0.0,0.0,0.0,0.0,0.0,0.0,0.0,0.0,0.0,0.0,0.0,0.0,0.0,0.0,0.0,0.0,0.0,0.0,0.0,0.0,0.0,0.0,6.8013,6.936,0.0,7.0821,7.1822,7.2822,7.3707,7.4879,7.6024,7.7141,7.7621,7.7957,7.8266,7.8767,7.9489,8.0337,8.0944,8.1908,8.3259,8.3624,8.4386,8.5506,8.5871,8.6142,8.6401,8.6103,8.5832,8.5446,8.3884,8.2284,8.0762,8.0577,8.07,8.0962,8.1278,8.1362,8.1477,0.0,3.7853,0.0,3.8815,3.9315,4.0085,4.12,4.2585,4.4201,4.6201,4.8432,5.0894,5.3741,5.5318,5.7088,5.9319,6.005,6.0512,6.0781,6.132,6.1243,6.0396,6.2305,6.5057,6.8529,6.9208,7.0551,7.2568,7.3728,7.3999,7.3458,7.4038,7.4154,7.3883,7.3574,7.3187,7.2645,7.1485,6.9241,6.6476,6.6747,6.4966,6.2067,0.0,0.0,0.0,0.0,0.0,0.0,0.0,0.0,0.0,0.0,0.0,0.0,0.0,0.0,0.0,0.0,0.0,0.0,0.0,0.0,0.0,0.0,0.0,0.0,0.0,0.0,0.0,0.0,0.0,0.0,0.0,0.0,0.0,0.0,6.8013,7.0206,6.936,7.1475,7.3168,7.3437,7.4774,7.5967,7.6813,7.8017,7.8844,7.9075,7.9952,8.0211,7.9632,8.074,8.1887,8.3045,8.3652,8.4811,8.6472,8.6528,8.7174,8.8295,8.8323,8.8505,8.8737,8.8466,8.8002,8.7422,8.7069,8.5766,8.3933,8.3719,8.4034,8.4566,8.4472,8.4439,8.4478,0.0,3.8738,3.9084,3.8238,3.9469,4.1162,4.2893,4.3855,4.5893,5.0164,5.2164,5.3818,5.5549,5.7973,5.9511,5.955,6.1166,6.182,6.0973,6.2474,6.3051,6.2344,6.4802,6.7726,7.1163,7.1279,7.2538,7.5121,7.5121,7.5121,7.516,7.516,7.4734,7.3999,7.4773,7.5121,7.516,7.5237,7.3054,6.942,6.8295,6.736,6.6346,0.0,0.0,0.0,0.0,0.0,0.0,0.0,0.0,0.0,0.0,0.0,0.0,0.0,0.0,0.0,0.0,0.0,0.0,0.0,0.0,0.0,0.0,0.0,0.0,0.0,0.0,0.0,0.0,0.0,0.0,0.0,0.0,0.0,6.759,7.0167,7.1975,7.1168,7.3245,7.513,7.6015,7.691,7.7785,7.8594,8.0299,8.0944,8.0134,8.2449,8.3094,8.1435,8.3034,8.4762,8.65,8.6583,8.7499,8.924,8.924,8.924,8.9279,8.9279,8.8814,8.8079,8.8892,8.8312,8.6842,8.761,8.7445,8.6699,8.6392,8.63,8.6338,8.6203,8.6132,8.6247,3.8931,3.9623,4.0085,3.9854,4.1239,4.2739,4.3816,4.524,4.7471,5.1087,5.1972,5.3395,5.6319,5.8357,5.9742,6.0396,6.2551,6.382,6.3589,6.4589,6.5653,6.6665,6.8627,7.0474,7.209,7.2793,7.3783,7.5121,7.5121,7.543,7.6049,7.6049,7.5933,7.5701,7.5276,7.5484,7.6157,7.5639,7.4873,7.3812,7.2263,6.9982,6.7599,0.0,0.0,0.0,0.0,0.0,0.0,0.0,0.0,0.0,0.0,0.0,0.0,0.0,0.0,0.0,0.0,0.0,0.0,0.0,0.0,0.0,0.0,0.0,0.0,0.0,0.0,0.0,0.0,0.0,0.0,0.0,7.1783,7.2322,7.0975,7.2629,7.4168,7.4553,7.5841,7.7218,7.8681,7.8574,7.8987,8.0453,8.1076,8.1528,8.1953,8.3282,8.3811,8.3347,8.4379,8.5461,8.6583,8.7202,8.8389,9.0052,9.0052,9.04,9.1019,9.1019,9.0865,9.0671,9.0903,9.0749,9.0323,9.0527,9.0102,8.9135,8.7147,8.674,8.7241,8.7147,8.7083,8.6978,3.9777,4.0162,4.0508,4.0508,4.1931,4.347,4.4662,4.6317,4.8856,5.2972,5.3203,5.4434,5.8165,5.9781,6.1089,6.2281,6.4089,6.5436,6.6167,6.7013,6.8296,7.0053,7.1106,7.2235,7.3566,7.4131,7.5005,7.6204,7.6204,7.663,7.7481,7.7481,7.7287,7.6939,7.6784,7.6838,7.7031,7.6645,7.6394,7.6086,7.5104,7.286,7.011,7.0299,6.9208,6.742,6.659,6.6204,6.5972,6.5064,0.0,0.0,0.0,0.0,0.0,0.0,0.0,0.0,0.0,0.0,0.0,0.0,0.0,0.0,0.0,0.0,0.0,0.0,0.0,0.0,0.0,0.0,0.0,0.0,7.4514,7.5284,7.588,7.589,7.6092,7.6996,7.8219,7.9394,8.0386,8.0779,8.1192,8.1849,8.2598,8.3115,8.327,8.4456,8.514,8.514,8.5952,8.6958,8.8196,8.8698,8.9627,9.0942,9.0942,9.1213,9.1716,9.1716,9.1484,9.1174,9.1561,9.129,9.0671,9.1019,9.0671,8.9782,0.0,0.0,0.0,0.0,8.7974,8.7863,4.0508,4.0508,4.0508,4.0623,4.2008,4.3701,4.547,4.7086,4.9933,5.5011,5.5011,5.6126,6.0319,6.1589,6.2781,6.4436,6.5474,6.6744,6.8436,6.9552,7.0825,7.234,7.2674,7.3534,7.5082,7.5198,7.6049,7.7713,7.7713,7.8138,7.8989,7.8989,7.8602,7.7867,7.8757,7.8718,7.7983,7.8114,7.7777,7.7079,7.7169,7.5664,7.3241,7.1698,7.0619,6.9744,6.7884,6.7729,6.8232,6.7152,0.0,0.0,0.0,0.0,0.0,0.0,0.0,0.0,0.0,0.0,0.0,0.0,0.0,0.0,0.0,0.0,0.0,0.0,0.0,0.0,0.0,0.0,0.0,0.0,7.6861,7.8344,8.0829,7.9143,7.792,7.8787,8.0357,8.1427,8.1589,8.2996,8.3668,8.305,8.4417,8.4985,8.425,8.5759,0.0,0.0,0.0,8.866,9.0246,9.0362,9.0826,9.1716,9.1716,9.1754,9.187,9.187,9.1484,9.0865,9.1638,9.1135,8.982,9.0439,9.0168,8.9395,8.9929,8.957,8.8745,8.8584,8.8556,8.8517,4.0508,4.0508,4.07,4.1431,4.2393,4.3893,4.6278,4.7471,4.9933,5.5011,5.5011,5.6126,6.0319,6.1589,6.2781,6.4436,6.5974,6.759,6.936,7.1568,7.2726,7.2417,7.4397,7.5398,7.5121,7.5779,7.6668,7.7713,7.7713,7.8138,7.8989,7.8989,7.8912,7.8796,7.9608,7.9879,7.9724,7.9966,7.9587,7.8765,7.835,7.707,7.5351,7.5521,7.5443,7.505,7.316,7.2545,7.2452,7.0866,6.9435,6.8369,6.8867,6.6758,0.0,0.0,0.0,0.0,0.0,0.0,0.0,0.0,0.0,0.0,0.0,0.0,0.0,0.0,0.0,0.0,0.0,0.0,0.0,7.6861,7.7766,7.9018,8.0945,8.0203,7.9797,8.0674,8.1771,8.2687,8.3305,8.3811,8.4263,8.4765,8.5101,8.5217,8.5062,8.6029,8.661,8.661,8.7461,8.8389,8.9433,9.0091,9.0826,9.1716,9.1716,0.0,9.276,9.276,9.2992,9.3456,9.365,9.3534,9.3186,9.2683,9.16,9.013,8.9504,8.8682,8.785,8.7764,8.7699,8.7555,4.0508,4.0508,4.0777,4.1662,4.2508,4.397,4.6509,4.724,4.9317,5.4434,5.4357,5.5126,5.8511,6.0396,6.1781,6.2627,6.6205,6.8936,7.0206,7.275,7.4037,7.3652,7.4924,7.5669,7.574,7.6165,7.7248,7.895,7.895,7.9415,8.0266,8.0691,8.0653,8.0304,8.1117,8.1271,8.0846,8.0987,8.0622,7.9908,7.9578,7.8789,7.765,7.6638,7.5949,7.5408,7.4801,7.4618,7.4463,7.3535,7.2375,7.1446,7.1849,6.9872,6.7454,0.0,0.0,0.0,0.0,0.0,0.0,0.0,0.0,0.0,0.0,0.0,0.0,0.0,0.0,7.3091,7.3937,0.0,7.7728,7.9037,7.9635,8.0723,8.2912,8.213,8.1655,8.2505,8.3023,8.363,8.4507,8.5036,8.5333,8.5294,8.572,8.5952,8.5952,8.6377,8.6996,8.7886,8.8312,8.9356,9.1097,9.1484,9.2102,9.2953,9.2953,9.3186,9.3611,9.3611,9.3804,9.4191,9.4191,9.3959,9.3534,9.2683,9.1832,9.0981,9.0063,8.8857,8.7717,8.7588,8.7256,8.6839,4.1008,4.1008,4.1239,4.1931,4.2777,4.4201,4.674,4.7009,4.8663,5.3587,5.351,5.3972,5.6703,5.8973,6.0512,6.1012,6.6359,6.9975,7.0629,7.3251,7.4834,7.4925,7.5156,7.5615,7.6359,7.6707,7.7983,8.0188,8.0382,8.0923,8.1774,8.2471,8.2509,8.2045,8.2896,8.2819,8.2006,8.2084,8.1695,8.101,8.0465,7.9951,7.9269,7.6784,7.5484,7.4943,7.5175,7.5136,7.4982,7.4734,7.4077,7.3419,7.3574,7.2081,7.0297,7.0429,7.0212,0.0,0.0,0.0,0.0,0.0,0.0,0.0,0.0,7.1799,7.2014,7.4081,7.4774,7.5313,7.638,7.7978,7.9548,8.0752,8.1301,8.2284,8.4425,8.368,8.3282,8.4093,8.4171,8.4468,8.5217,8.6107,8.63,8.5604,8.6184,8.6687,8.6842,8.6842,8.7577,8.9163,8.9356,9.0516,9.2721,9.2915,9.3418,9.4191,9.4191,9.4269,9.4462,9.4462,9.4539,9.4694,9.4539,9.3998,9.3186,9.2296,9.1948,9.187,9.0981,8.9715,8.8267,8.7987,8.7426,8.6886,4.2816,4.2816,4.2854,4.2931,4.3624,4.5009,4.7586,4.7355,4.8471,5.2779,5.2587,5.3318,5.6626,5.7934,5.9473,6.1743,6.6705,6.9744,6.9821,7.2996,7.4887,7.4887,7.5746,7.6281,7.6397,7.7906,7.9183,8.0188,8.1001,8.1813,8.2664,8.2741,8.3167,8.3824,8.4675,8.4559,8.3824,8.4069,8.3592,8.2545,8.0516,7.9525,7.9028,7.721,7.6924,7.7272,7.5701,7.4657,7.396,7.3148,7.2297,7.1717,7.2491,7.2026,7.1269,7.1997,7.117,6.9894,6.95,7.0105,7.1596,7.4692,7.4848,7.4692,0.0,7.7169,7.7622,7.7949,7.9288,7.9943,7.8717,7.9836,8.08,8.0232,8.1473,8.2648,8.2968,8.3514,8.425,8.5024,8.514,8.5178,8.5294,8.6107,8.6571,8.6455,8.6532,8.6958,8.7731,8.777,8.8196,8.9163,8.9898,9.0787,9.1832,9.2605,9.3418,9.4191,9.4191,9.4617,9.5352,9.5352,9.5777,9.6474,9.57,9.4849,9.3998,9.3186,9.2837,9.276,9.1909,9.0981,8.9986,8.9156,8.8759,8.8622,4.3085,4.347,4.3816,4.3816,4.4085,4.5163,4.7702,4.7009,4.7471,5.1241,5.0548,5.0818,5.3703,5.5665,5.8011,6.1089,6.5089,6.8129,6.959,7.2931,7.5066,7.562,7.6108,7.6606,7.7132,7.7867,7.8873,8.0188,8.0575,8.1194,8.2084,8.3089,8.3747,8.4134,8.4946,8.5178,8.4881,8.4533,8.3656,8.2342,8.0705,7.9453,7.8433,7.7016,7.6707,7.6924,7.6127,7.5314,0.0,7.3651,7.2761,7.2104,7.2491,7.2684,7.2877,7.3242,7.4185,7.5282,7.5671,7.5362,7.5258,7.6736,7.6764,7.6611,7.7409,7.8111,7.8826,7.9307,8.08,8.1666,8.0497,8.1666,8.2554,8.1716,8.2637,8.3683,8.4159,8.4559,8.5127,8.5952,8.6068,8.6068,8.6068,8.6377,8.6803,8.7306,8.7383,8.7731,8.8621,8.866,8.9047,8.9859,9.0207,9.129,9.3147,9.3534,9.4385,9.57,9.6241,9.6667,9.7015,9.7518,9.7634,9.7518,9.6628,9.6358,9.628,9.3959,9.3572,9.4269,9.2412,9.1484,9.1058,9.014,8.9494,8.9079,4.3778,4.4239,4.4662,4.4662,4.4662,4.5355,4.7471,4.674,4.6932,4.9625,4.8894,4.9086,5.1625,5.3972,5.6549,5.9511,6.2858,6.5936,6.8475,7.1864,7.4383,7.5774,7.616,7.6635,7.7326,7.7326,7.8061,7.9531,7.9531,8.0188,8.1542,8.278,8.3515,8.3824,8.4405,8.4611,8.4456,8.3915,8.3037,8.1918,8.067,7.9329,7.7945,7.663,7.6127,7.6165,7.6591,7.6049,7.5082,7.4966,7.3883,7.2684,7.3148,7.3728,7.4231,7.4231,7.6273,7.8773,7.9842,7.9095,7.8153,7.8641,7.8515,7.8374,7.858,7.9274,8.0,8.0635,8.1926,8.2841,8.2482,8.3409,8.4105,8.3525,8.4185,8.4895,8.5243,8.5514,8.5875,8.6532,8.6803,8.6958,8.6958,8.6958,8.7228,8.7847,8.8118,8.8737,8.982,8.9665,9.0014,9.1097,9.1135,9.2102,9.4191,9.4655,9.5661,9.717,9.8021,9.8446,9.8446,9.9027,9.8717,9.7711,9.7054,9.7015,9.717,9.4462,9.4191,9.5274,9.3186,9.2373,9.2296,9.1677,9.0787,8.9898,4.5509,4.5547,4.5547,4.5547,4.5547,4.5855,4.6817,4.6894,4.7201,4.8048,4.8125,4.9086,5.1625,5.3472,5.5241,5.6934,6.0242,6.3281,6.5859,6.9207,7.2251,7.481,7.5812,7.6326,7.6436,7.6436,7.6862,7.779,7.779,7.9067,8.1504,8.1542,8.2097,8.3025,8.3064,8.2677,8.1994,8.2122,8.2062,8.178,8.025,7.8993,7.791,7.6181,7.5446,7.5523,7.7094,7.6552,7.5353,7.7016,7.5353,7.2877,7.4502,7.5044,7.5082,7.5082,7.6273,7.8026,7.9738,7.9559,7.9263,8.0937,8.0705,8.0254,8.1118,8.1898,8.2497,8.2593,8.3287,8.4126,8.5024,8.523,8.523,8.523,8.5965,8.6249,8.5423,8.6003,8.6571,8.661,8.7345,8.7847,8.7847,8.7847,8.7886,8.7925,8.8698,8.9859,9.1522,9.0826,9.1135,9.2876,9.2915,9.334,9.4191,9.5893,9.717,9.806,9.8872,9.9259,9.9259,9.9297,9.8408,9.6822,9.6822,9.6358,9.5506,9.4539,9.4694,9.539,9.4462,9.4114,9.4114,9.4075,9.3031,9.1638,4.5586,4.5586,4.5586,4.5586,4.5586,4.5893,4.6778,4.6894,4.7201,4.8009,4.8586,0.0,0.0,0.0,0.0,0.0,5.905,6.1473,6.4012,6.7385,7.0465,7.3112,7.4604,7.5683,7.6359,7.5817,7.5972,7.6823,7.6243,7.7055,7.9144,8.0266,8.1001,8.1426,8.199,8.1871,8.113,8.0577,7.9753,7.8727,7.8123,7.6977,7.5707,7.6093,7.5856,7.5643,0.0,7.7519,7.5198,7.5779,7.485,7.3767,7.543,7.5972,7.6397,7.8631,7.9713,8.0434,8.1569,8.1259,8.0898,8.2084,8.2122,8.2097,8.2986,8.3784,8.4403,8.4429,8.5087,8.5782,8.6119,8.6621,8.6854,8.6261,8.6907,8.7178,8.63,8.6416,8.6803,8.7395,8.7731,8.8118,8.8698,8.8776,8.8969,8.9511,8.982,9.0749,9.2489,9.2296,9.2644,9.3766,9.4346,9.5081,9.5932,9.7092,9.8098,9.8911,9.9181,9.9916,10.0999,10.038,9.9839,9.9297,9.9297,9.8833,9.7982,9.7131,9.6976,9.7092,9.5623,9.5429,9.5855,9.5274,9.5081,9.5004,0.0,4.5586,4.5586,4.5586,4.5855,0.0,0.0,0.0,0.0,0.0,0.0,0.0,0.0,0.0,0.0,0.0,0.0,5.9704,6.2243,6.5013,6.7911,7.0888,7.2354,7.3702,7.4982,7.417,7.444,7.5933,7.543,7.6281,7.8409,7.9791,8.0567,8.0691,8.0942,8.0664,7.9926,7.9065,7.8818,7.8867,7.7265,7.6484,7.6287,7.6325,7.5949,0.0,7.8789,7.8216,7.6127,7.6707,7.5972,7.5082,7.6784,7.7519,7.8409,8.1801,8.2638,8.2548,8.3076,8.3025,8.3089,8.394,8.394,8.4018,8.5178,8.5643,8.5732,8.5759,8.6455,8.7163,8.7472,8.8218,8.8605,8.8025,8.8428,8.8416,8.7228,8.7345,8.7615,8.7859,8.8428,8.9008,8.9549,8.9898,9.0323,9.0826,9.1135,9.2064,9.3804,9.3611,9.3804,9.4617,9.5506,9.6241,9.6783,9.7943,9.8949,9.9762,10.011,10.0806,10.1889,10.1309,10.0883,10.0613,10.0613,10.011,9.9259,9.8446,9.8292,9.8369,9.6628,9.6667,9.7595,9.6744,9.717,9.7943,0.0,0.0,4.5586,0.0,0.0,0.0,0.0,0.0,0.0,0.0,0.0,0.0,0.0,0.0,0.0,0.0,0.0,0.0,6.0435,6.2204,6.4691,6.8077,6.9155,7.0502,7.2322,7.151,7.2306,7.485,7.4989,7.6327,7.8867,7.9812,8.0364,8.043,7.9656,7.8917,7.8242,7.7422,7.8906,8.1484,7.7422,7.7187,7.9061,7.6699,7.5644,7.5774,7.8346,7.8564,7.7906,7.9531,7.8486,7.6823,7.8486,7.9647,8.1039,8.4289,8.4714,8.4134,8.425,8.483,8.5577,8.6494,8.6119,8.5925,8.7577,8.7306,8.6726,8.6726,8.7383,8.8207,8.9085,8.9898,9.0411,9.0411,9.04,8.9848,8.8222,8.866,8.8931,8.8118,8.9433,9.0439,9.0516,9.129,9.1793,9.1909,9.2567,9.3727,9.539,9.4733,9.4655,9.5545,9.6396,9.6899,9.6938,9.8601,9.9839,10.069,10.1502,10.1889,10.1889,10.1889,10.1386,10.069,10.069,10.0187,9.9375,9.8601,9.8717,9.922,9.7634,9.7982,9.9336,9.8524,9.9259,10.0303,0.0,0.0,0.0,0.0,0.0,0.0,0.0,0.0,0.0,0.0,0.0,0.0,0.0,0.0,0.0,0.0,0.0,0.0,5.7857,6.0165,6.2382,6.4594,6.6728,6.8704,7.0513,6.9749,6.9988,7.1302,7.133,7.2134,7.3664,7.5144,7.5971,7.6191,7.662,7.6345,7.5586,7.5351,7.539,7.5508,7.4414,7.3945,7.4023,7.4556,7.473,7.5054,7.8065,7.8191,7.7031,7.8022,7.8332,7.8409,7.8873,8.0885,8.3283,8.4134,8.425,8.4521,8.6416,8.661,8.6648,8.8157,8.8389,8.8312,8.8776,8.8698,8.8544,8.8544,8.8698,8.9124,8.9936,9.0246,9.04,9.04,9.04,9.0052,8.9008,8.9047,8.9356,8.9715,0.0,9.0903,9.2218,9.2528,9.3186,9.4423,9.3572,9.3727,9.539,9.5274,9.5584,9.6435,9.7325,9.806,9.8678,10.038,10.1309,10.158,10.1077,10.1309,10.1889,10.1193,10.1502,10.2508,10.1889,10.1386,10.1193,10.0999,10.069,10.0187,9.98,10.0303,10.1115,10.0303,10.0613,10.1502,0.0,0.0,0.0,0.0,0.0,0.0,0.0,0.0,0.0,0.0,0.0,0.0,0.0,0.0,0.0,0.0,0.0,0.0,0.0,5.8319,5.9881,6.162,6.343,6.5226,6.7031,6.7386,6.8359,7.0004,7.0518,7.1436,7.2835,7.3865,7.4471,7.4609,7.4726,7.4492,7.3984,7.3633,7.4062,0.0,0.0,7.2773,7.3672,7.3437,7.3319,7.3639,7.6571,7.6673,7.56,7.6374,7.7442,7.8602,7.9724,8.1697,8.3592,8.3979,8.4908,8.5991,8.7074,8.7538,8.8041,8.9395,8.9163,8.8814,8.9549,8.9163,8.8737,8.9124,8.9472,8.9859,9.0323,9.1019,9.1406,9.1019,9.129,9.1107,8.9898,9.0052,9.0323,9.0373,9.1097,9.1948,9.2915,9.334,9.4075,9.539,9.4617,9.4655,9.6009,9.6087,9.628,9.6783,9.7634,9.8485,9.9297,10.0999,10.1889,10.1889,10.1812,10.2199,10.3011,10.2508,10.2817,10.3707,10.3204,10.3011,10.3011,10.2585,10.2392,10.2199,10.0999,10.1386,10.2315,10.1077,10.1193,10.1889,0.0,0.0,0.0,0.0,0.0,0.0,0.0,0.0,0.0,5.2472,5.151,5.1202,0.0,0.0,0.0,0.0,0.0,0.0,0.0,0.0,5.7357,5.8934,5.9819,6.1112,6.2837,6.4563,6.6598,6.8961,7.0208,7.1567,7.3003,7.347,7.3709,7.3711,7.3047,7.2773,7.2734,7.1992,7.3398,7.582,7.2031,7.2344,7.4805,0.0,7.1633,7.1988,7.4446,7.4896,7.4447,7.5082,7.6281,7.7945,8.042,8.1929,8.2973,8.3979,8.5913,8.7654,8.7228,8.8196,8.9549,9.0362,8.9472,8.8776,9.0246,8.9356,8.8466,8.9201,8.982,9.0284,9.0362,9.1638,9.2489,9.1948,9.2412,9.2373,9.1097,9.1367,9.1445,9.0826,9.2064,9.3031,9.3147,9.3882,9.4733,9.5623,9.5661,9.6009,9.6744,9.6783,9.6783,9.6783,9.7634,9.8524,9.9452,10.1115,10.2005,10.2082,10.2895,10.3707,10.421,10.4403,10.4519,10.4597,10.4519,10.4519,10.4519,10.3707,10.3784,10.421,10.2005,10.2005,10.3204,10.1502,10.1386,10.1889,0.0,0.0,0.0,0.0,0.0,0.0,0.0,0.0,0.0,0.0,5.3087,5.2279,0.0,0.0,0.0,0.0,0.0,0.0,0.0,0.0,0.0,5.6319,5.7165,5.8457,6.015,6.1302,6.2446,6.3566,6.5294,6.634,6.6694,6.826,6.9048,6.918,6.9805,7.0117,7.0156,7.0,7.0234,7.0703,6.9922,7.0,7.0469,7.0039,0.0,0.0,7.2889,7.4685,7.6086,7.5481,7.5895,7.6939,7.8834,8.0962,8.3089,8.4637,8.5913,8.7267,8.9201,8.9975,9.04,9.1251,9.1251,9.1135,9.1406,9.0671,9.0014,9.0168,8.9782,8.9588,9.0284,9.0633,9.1251,9.2567,9.2296,9.2296,9.3379,9.2489,9.1909,9.2489,9.2837,9.3263,9.3921,9.4772,9.5623,9.6512,9.6551,9.6628,9.6783,9.6783,9.6783,9.6783,9.7634,9.8833,10.038,10.1386,10.2315,10.3011,10.3784,10.3901,10.3398,10.4094,10.479,10.5409,10.4713,10.479,10.5409,10.4519,10.4287,10.4403,10.3901,10.3901,10.4094,10.3088,10.2392,10.1889,0.0,0.0,0.0,0.0,0.0,0.0,0.0,5.4626,5.578,5.7473,5.6242,5.5395,5.5742,5.4664,5.4203,0.0,0.0,0.0,0.0,0.0,0.0,5.5049,5.5472,5.6472,5.8165,5.9138,6.0282,6.1576,0.0,6.394,6.4433,6.539,6.5904,6.6055,6.6484,6.6719,6.6797,6.6797,6.6797,6.6758,6.6758,6.7031,6.7422,6.7422,0.0,0.0,7.0892,7.2457,7.4239,7.5111,7.5562,7.6204,7.8332,8.073,8.3128,8.4792,8.6571,8.8312,8.9936,9.0749,9.1174,9.16,9.1367,9.1135,9.16,9.071,8.9898,9.0323,8.9743,8.9317,8.9704,9.0478,9.1367,9.218,9.2335,9.2644,9.3456,9.2876,9.2373,9.2335,9.3495,9.4269,9.4191,9.539,9.6358,9.6783,9.6783,9.6783,9.6783,9.6783,9.7209,9.806,9.8949,10.0187,10.1889,10.2817,10.3591,10.4519,10.4906,10.51,10.5177,10.5603,10.5989,10.6415,10.5912,10.5989,10.6299,10.5912,10.5796,10.568,10.5293,10.51,10.5022,10.4094,10.3282,10.2585,0.0,0.0,0.0,0.0,0.0,0.0,5.5703,5.6703,5.7857,5.955,5.9088,5.8242,5.7357,5.5934,5.5049,0.0,0.0,0.0,0.0,0.0,0.0,0.0,5.3933,5.4741,5.6434,0.0,0.0,6.0187,6.0983,0.0,0.0,0.0,0.0,0.0,6.4099,6.4258,6.4297,6.4297,6.4297,0.0,0.0,6.4805,6.5625,0.0,0.0,0.0,0.0,7.0582,7.2393,7.4305,7.5343,7.6204,7.8332,8.073,8.3128,8.4792,8.7151,8.9395,9.0168,9.1058,9.1716,9.1716,9.1174,9.0826,9.1329,9.0284,8.9317,8.9782,8.9201,8.8698,8.8892,9.013,9.129,9.1638,9.2257,9.2837,9.3224,9.3108,9.276,9.2064,9.4075,9.5158,9.4269,9.5777,9.6783,9.6783,9.6976,9.7092,9.7092,9.7247,9.8021,9.9529,10.038,10.158,10.3204,10.4017,10.4713,10.5409,10.5796,10.6183,10.6686,10.6879,10.6995,10.6995,10.6995,10.6995,10.6995,10.6995,10.6995,10.6879,10.6183,10.5989,10.5912,10.5022,10.4094,10.3204,0.0,0.0,0.0,0.0,0.0,0.0,5.6511,5.7627,5.8781,6.0473,5.9935,5.9088,5.828,5.7319,5.5857,0.0,0.0,0.0,0.0,0.0,0.0,0.0,0.0,0.0,0.0,0.0,0.0,5.7525,5.7622,0.0,0.0,0.0,0.0,0.0,0.0,6.4258,6.4297,6.4297,0.0,0.0,0.0,0.0,0.0,0.0,0.0,0.0,0.0,7.0976,7.2999,7.3105,7.5154,7.7805,7.8718,8.073,8.3128,8.4792,8.7151,8.9395,9.0168,9.1058,9.1716,9.1716,9.1638,9.1406,9.0671,8.982,8.9008,8.8273,8.7461,8.7074,8.7886,8.8776,8.9936,9.1445,9.1754,9.2335,9.3882,9.3456,9.2992,9.2876,9.4423,9.5158,9.4269,9.5777,9.6783,9.6783,9.7518,9.7982,9.7982,9.8678,9.9491,10.0496,10.1309,10.2199,10.3204,10.4017,10.4403,10.4519,10.6105,10.6492,10.5796,10.6608,10.6995,10.6995,10.6995,10.6995,10.6995,10.6995,10.6995,10.6995,10.6879,10.6879,10.6802,10.5912,10.4597,10.3204,0.0,0.0,0.0,0.0,0.0,0.0,5.6665,5.728,5.8319,6.0512,6.005,5.9396,5.905,5.828,5.6934,5.4895,0.0,0.0,0.0,0.0,0.0,0.0,0.0,0.0,0.0,0.0,5.4341,5.7138,5.6657,0.0,0.0,0.0,0.0,0.0,0.0,6.2596,6.2734,6.2734,0.0,0.0,0.0,0.0,0.0,0.0,0.0,0.0,0.0,0.0,7.1951,7.3922,7.505,7.6142,7.8965,8.0846,8.2548,8.5294,8.6803,8.7925,8.9317,9.0284,9.0903,9.0903,9.0903,9.0826,9.0478,8.9356,8.8157,8.7306,8.6416,8.5913,8.6261,8.7499,8.8969,9.0633,9.1793,9.2876,9.4037,9.4385,9.4307,9.3766,9.5236,9.5932,9.5081,9.6087,9.7015,9.7557,9.7905,9.8756,10.0303,10.0187,10.0883,10.2817,10.3204,10.4094,10.5487,10.5796,10.5989,10.5989,10.6686,10.6802,10.6492,10.6802,10.6995,10.6995,10.6995,10.6995,10.6995,10.6995,10.6995,10.6995,10.6995,10.6995,10.6879,10.5989,10.4906,10.3901,0.0,0.0,0.0,0.0,0.0,5.5164,5.7088,5.7357,5.8088,6.0165,5.9896,5.9396,5.9165,5.8396,5.7434,5.6203,5.401,0.0,0.0,0.0,0.0,0.0,0.0,0.0,0.0,0.0,5.3723,5.6711,5.6405,5.7216,0.0,0.0,6.0287,6.102,0.0,0.0,0.0,0.0,0.0,0.0,0.0,0.0,0.0,0.0,0.0,0.0,0.0,0.0,0.0,0.0,0.0,7.4848,7.8433,8.015,8.1387,8.4559,8.6184,8.7267,8.8466,8.9588,9.04,9.04,9.04,9.0284,8.9782,8.8544,8.7267,8.6416,8.5526,8.5024,8.5256,8.6532,8.8079,8.9782,9.1484,9.2799,9.3379,9.4655,9.5081,9.3959,9.5816,9.6744,9.5623,9.6512,9.7441,9.806,9.8794,9.9994,10.1812,10.2005,10.2895,10.4713,10.4984,10.5603,10.6608,10.6879,10.6879,10.6608,10.6879,10.6995,10.6995,10.6995,10.6995,10.6995,10.6995,10.6995,10.6995,10.6995,10.6995,10.6995,10.6995,10.6802,10.6492,10.5912,10.5022,10.4017,0.0,0.0,0.0,0.0,0.0,0.0,5.7896,5.828,5.8588,5.9396,5.9511,5.9204,5.8396,5.755,5.7011,5.6973,5.5434,0.0,0.0,0.0,0.0,0.0,0.0,0.0,0.0,0.0,5.4031,5.5787,5.6673,5.7117,5.7275,5.8974,5.9901,6.0151,0.0,0.0,0.0,0.0,0.0,0.0,0.0,0.0,6.4414,0.0,0.0,0.0,0.0,0.0,0.0,0.0,0.0,0.0,0.0,7.8332,7.9531,8.2084,8.5256,8.7886,8.7925,8.9124,9.04,9.04,9.04,8.9975,8.8312,8.7267,8.6377,8.5488,8.4675,8.4366,8.514,8.6029,8.719,8.8931,9.0633,9.1716,9.1716,9.3882,9.4888,9.3224,9.6009,9.7402,9.5661,9.7054,9.8098,9.8098,10.038,10.1889,10.1889,10.4287,10.5719,10.5719,10.6492,10.6608,10.5719,10.6608,10.6608,10.5719,10.6608,10.6995,10.6995,10.6995,10.6995,10.6995,10.6995,10.6995,10.6995,10.6995,10.6995,10.6995,10.6995,10.6492,10.5719,10.5719,10.4597,10.3204,0.0,0.0,0.0,0.0,0.0,0.0,5.6395,5.6511,5.6819,5.7665,5.778,5.7934,5.828,5.7511,5.6973,5.6973,5.5472,0.0,0.0,0.0,0.0,0.0,0.0,0.0,0.0,5.351,5.4626,5.7495,5.723,5.7983,5.9738,5.9765,6.0191,6.0943,6.1265,6.1504,0.0,0.0,0.0,0.0,0.0,6.3008,6.4336,0.0,0.0,0.0,0.0,0.0,0.0,0.0,0.0,0.0,0.0,0.0,0.0,8.1658,8.3515,8.541,8.5991,8.7383,8.8698,8.8698,8.8698,8.8389,8.7267,8.6339,8.5294,8.3863,8.3399,8.3476,8.4327,8.5643,8.719,8.8931,9.1561,9.3224,9.2683,9.4772,9.6203,9.5661,9.7092,9.7866,9.7325,9.7789,9.833,9.8872,10.0806,10.2392,10.3514,10.4906,10.5719,10.5719,10.6492,10.6879,10.6608,10.6879,10.6879,10.6608,10.6879,10.6995,10.6995,10.6995,10.6995,10.6995,10.6995,10.6995,10.6995,10.6995,10.6995,10.6879,10.6299,10.5912,10.5603,10.4403,10.3707,10.3088,0.0,0.0,0.0,0.0,0.0,0.0,5.5703,5.5703,5.5895,5.6434,5.6511,5.6819,5.7703,5.7011,5.6626,5.6973,5.5742,0.0,0.0,0.0,0.0,0.0,0.0,0.0,5.4472,5.428,5.5665,5.8742,5.9188,5.9942,6.0888,6.14,6.1523,6.1292,6.1693,6.1816,0.0,0.0,0.0,0.0,6.1328,6.2265,6.3867,0.0,0.0,0.0,0.0,0.0,0.0,0.0,0.0,0.0,0.0,0.0,0.0,0.0,8.2238,8.3863,8.4985,8.6339,8.7499,8.7809,8.7654,8.719,8.63,8.5217,8.4057,8.3012,8.278,8.3051,8.394,8.5488,8.7267,8.9317,9.1948,9.3572,9.307,9.5197,9.6938,9.7247,9.7479,9.775,9.806,9.8369,9.8756,9.9259,10.1502,10.3204,10.3901,10.5409,10.5989,10.5719,10.6492,10.6995,10.6995,10.6995,10.6995,10.6995,10.6995,10.6995,10.6995,10.6995,10.6995,10.6995,10.6995,10.6995,0.0,10.6995,10.6802,10.6492,10.5912,10.5293,10.4597,10.3591,10.3011,10.2585,0.0,0.0,0.0,0.0,0.0,0.0,0.0,5.5703,5.5703,5.5703,5.5703,5.6011,5.6819,5.6165,5.6011,5.6819,5.6165,0.0,0.0,0.0,0.0,0.0,0.0,0.0,5.4626,5.5472,5.7088,5.9588,6.2089,6.2551,6.1127,6.3507,6.3499,6.1582,6.2303,6.2245,0.0,0.0,0.0,0.0,6.082,6.1484,0.0,0.0,0.0,0.0,0.0,0.0,0.0,0.0,0.0,0.0,0.0,0.0,0.0,0.0,0.0,0.0,0.0,8.5759,8.6687,8.7499,8.7151,8.6377,8.5488,8.4095,0.0,8.2896,8.2896,8.3167,8.4095,8.5604,8.7538,9.0091,9.1948,9.3108,9.3108,9.5236,9.7131,9.806,9.7479,9.7325,9.8176,9.8949,9.9413,9.9491,10.2508,10.4094,10.3398,10.568,10.6608,10.5796,10.6608,10.6995,10.6995,10.6995,10.6995,10.6995,10.6995,10.6995,10.6995,10.6995,10.6995,10.6995,10.6995,10.6995,10.6995,10.6879,10.6415,10.5719,10.5603,10.4597,10.3204,10.3088,10.2585,10.1889,0.0,0.0,0.0,0.0,0.0,0.0,0.0,0.0,0.0,0.0,5.5703,5.578,5.5972,5.5818,5.578,0.0,0.0,0.0,0.0,0.0,0.0,0.0,0.0,0.0,5.6357,5.7242,5.8627,6.0473,6.2397,6.3435,6.3705,6.37,6.3877,6.417,6.3093,6.2245,0.0,0.0,0.0,0.0,6.1484,6.2031,0.0,0.0,0.0,0.0,6.7578,6.9297,0.0,0.0,0.0,0.0,0.0,0.0,0.0,0.0,8.0962,8.189,8.2277,0.0,8.5643,8.5875,8.6261,8.6377,0.0,8.4985,8.4521,8.3902,8.3786,8.425,8.5759,8.688,8.8428,9.0981,9.2799,9.3921,9.3921,9.5584,9.7363,9.8833,9.8833,9.9065,9.9916,10.0187,10.0613,10.1193,10.3204,10.4597,10.51,10.6299,10.6879,10.6686,10.6879,10.6995,10.6995,10.6995,10.6995,10.6995,10.6995,10.6995,10.6995,10.6995,10.6995,10.6995,10.6995,10.6995,10.6879,10.6299,10.5912,10.5603,10.4287,10.3514,10.3088,10.2508,10.2082,10.1889,0.0,0.0,0.0,0.0,0.0,0.0,0.0,0.0,0.0,0.0,5.5703,5.5703,5.5703,5.5703,5.5703,0.0,0.0,0.0,0.0,0.0,0.0,0.0,0.0,5.4972,5.755,5.8434,6.0242,6.3128,6.4436,6.5474,6.632,6.5884,6.5678,6.5587,6.3631,6.2365,0.0,0.0,0.0,6.168,6.125,0.0,0.0,0.0,0.0,0.0,6.7422,6.9767,0.0,7.3574,7.603,7.8592,0.0,0.0,0.0,0.0,8.0227,8.0923,8.0923,8.2509,8.4327,8.5101,8.5372,8.5449,8.5333,8.5024,8.4637,8.4173,8.4714,8.5526,8.6416,8.8273,9.0246,9.2025,9.3688,9.5081,9.5893,9.6474,9.7402,9.9104,9.9297,9.9491,9.9955,10.069,10.1386,10.1889,10.3784,10.5216,10.5719,10.6492,10.6995,10.6995,10.6995,10.6995,10.6995,10.6995,10.6995,10.6995,10.6995,10.6995,10.6995,10.6995,10.6995,10.6995,10.6995,10.6492,10.5796,10.5719,10.5022,10.3901,10.3398,10.3011,10.2508,10.2082,10.1889,10.1889,0.0,0.0,0.0,0.0,0.0,0.0,0.0,0.0,0.0,0.0,0.0,0.0,0.0,0.0,0.0,0.0,0.0,0.0,0.0,0.0,0.0,0.0,5.4818,5.6011,5.8434,5.955,6.1973,6.5897,6.6974,6.7936,6.8783,6.8667,6.7795,6.6183,6.4068,6.2655,6.1836,6.0937,6.1015,6.164,6.0898,0.0,0.0,0.0,0.0,0.0,0.0,0.0,0.0,7.5082,7.77,8.0241,8.0382,0.0,0.0,0.0,0.0,0.0,8.0188,8.1581,8.3322,8.4753,8.4714,8.4521,8.5488,8.5178,8.4714,8.483,8.6107,8.7228,8.7345,8.9859,9.2218,9.3224,9.4694,9.6241,9.7866,9.7479,9.7557,9.9143,9.9413,9.9568,9.9684,10.1193,10.2199,10.2508,10.4519,10.5796,10.5912,10.6608,10.6995,10.6995,10.6995,10.6995,10.6995,10.6995,10.6995,10.6995,10.6995,10.6995,10.6995,10.6995,10.6995,10.6995,10.6879,10.5989,10.4597,10.51,10.4017,10.2199,10.2779,10.2585,10.1889,10.1889,10.1889,10.1889,0.0,0.0,0.0,0.0,0.0,0.0,0.0,0.0,0.0,0.0,0.0,0.0,0.0,0.0,0.0,0.0,0.0,0.0,0.0,0.0,0.0,5.5511,5.6203,5.7473,5.9281,6.155,6.3782,6.5897,6.8167,6.9706,7.0514,6.9821,6.8313,6.6134,6.4509,6.3355,6.2656,6.1797,6.1523,6.168,6.1562,0.0,0.0,0.0,0.0,0.0,0.0,0.0,0.0,7.5604,7.7906,7.9674,8.0898,0.0,0.0,0.0,0.0,0.0,7.9995,8.2006,8.394,8.4211,8.4714,8.5526,8.7151,8.7422,8.7538,8.8273,8.9163,9.0052,9.0787,9.1948,9.3302,9.4849,9.5932,9.6938,9.7943,9.7982,9.8253,9.9181,9.9955,10.069,10.1386,10.2392,10.3591,10.5022,10.5487,10.5989,10.6802,10.6879,10.6995,10.6995,10.6995,10.6995,10.6995,10.6995,10.6995,10.6995,10.6995,10.6995,10.6995,10.6995,10.6995,10.6995,10.6183,10.5719,10.5409,10.4094,10.3398,10.2895,10.2315,10.2005,10.1889,10.1889,10.1889,10.1889,0.0,0.0,0.0,0.0,0.0,0.0,0.0,0.0,0.0,0.0,0.0,0.0,0.0,0.0,0.0,0.0,0.0,0.0,0.0,0.0,5.5895,5.6357,5.7242,5.8473,6.0165,6.2704,6.532,6.7936,6.9552,7.1014,7.2283,7.0591,6.8511,6.6109,6.4605,6.3508,6.2737,6.1938,6.1601,6.164,0.0,0.0,0.0,0.0,0.0,0.0,0.0,0.0,0.0,0.0,7.8568,8.0086,8.113,0.0,0.0,0.0,0.0,0.0,7.9453,8.1426,8.3592,8.4521,8.6107,8.7615,8.8428,8.8931,8.9356,8.9782,9.0516,9.1367,9.2257,9.3108,9.4037,9.5313,9.6628,9.7789,9.864,9.8756,9.9259,10.0496,10.0613,10.1077,10.2508,10.3398,10.4403,10.5603,10.6105,10.6608,10.6995,10.6995,10.6995,10.6995,10.6995,10.6995,10.6995,10.6492,10.6492,10.6995,10.6995,10.6995,10.6995,10.6995,10.6995,10.6995,10.6105,10.5216,10.4287,10.3514,10.2585,10.1812,10.1889,10.1889,10.1889,10.1889,10.1889,10.1889,0.0,0.0,0.0,0.0,0.0,0.0,0.0,0.0,0.0,0.0,0.0,0.0,0.0,0.0,0.0,0.0,0.0,0.0,0.0,5.5703,5.6088,5.6934,5.7819,5.9165,6.105,6.3782,6.6667,6.9706,7.1091,7.2399,7.3437,7.0975,6.8745,6.6684,6.4904,6.3671,6.2915,6.218,6.1746,6.1601,0.0,0.0,0.0,0.0,0.0,0.0,0.0,0.0,0.0,0.0,0.0,0.0,0.0,0.0,0.0,7.8989,7.9144,7.9337,7.9531,8.1581,8.4095,8.5797,8.7422,8.8814,8.9588,9.0246,9.0826,9.1213,9.1832,9.2567,9.3418,9.4269,9.5158,9.6203,9.7363,9.8446,9.9452,9.9607,10.011,10.1386,10.1386,10.1696,10.3088,10.4094,10.51,10.5912,10.6608,10.6995,10.6995,10.6995,10.6995,10.6995,10.6802,10.6802,10.6995,10.6105,10.6105,10.6995,10.6802,10.6802,10.6995,10.6995,10.6879,10.6608,10.5796,10.4597,10.3204,10.3011,10.2082,10.0999,10.158,10.1889,10.1889,10.1889,10.1889,10.1889,0.0,0.0,0.0,0.0,0.0,0.0,0.0,0.0,0.0,0.0,0.0,0.0,0.0,0.0,0.0,0.0,0.0,0.0,0.0,5.5703,5.6088,5.6934,5.7819,5.9473,6.1935,6.5243,6.7821,6.9706,7.286,7.413,7.3437,7.0898,6.9246,6.8328,6.582,6.4363,6.3652,6.2951,6.2229,6.1601,6.168,0.0,0.0,0.0,0.0,0.0,0.0,0.0,0.0,0.0,0.0,0.0,0.0,0.0,7.8989,7.8989,7.9531,8.0304,8.1117,8.3786,8.6726,8.8505,8.7847,8.7615,9.0787,9.1561,9.2064,9.3611,9.3959,9.4269,9.5158,9.6009,9.7131,9.8756,9.8524,9.8678,10.0303,10.0496,10.0613,10.069,10.2082,10.3088,10.3204,10.4713,10.5989,10.6802,10.6995,10.6995,10.6995,10.6995,10.6995,10.6995,10.6183,10.6183,10.6995,10.6105,10.6105,10.6995,10.6183,10.6183,10.6995,10.6995,10.6608,10.5719,10.4906,10.4017,10.3088,10.2315,10.1889,10.1812,10.1889,10.1889,10.1889,10.1889,10.1889,10.1889,0.0,0.0,0.0,0.0,0.0,0.0,0.0,0.0,0.0,0.0,0.0,0.0,0.0,0.0,0.0,0.0,0.0,0.0,0.0,5.5703,5.6319,5.7742,5.8127,5.9742,6.2781,6.5628,6.8475,7.1245,7.3591,7.4014,7.2668,7.1168,6.9785,6.8521,6.6476,6.5192,6.458,6.3826,6.3091,6.2491,6.3657,6.3789,0.0,0.0,0.0,0.0,0.0,0.0,0.0,0.0,7.8608,7.9351,7.9995,7.9647,7.8989,7.8989,7.9956,8.1078,8.1426,8.4405,8.7809,8.9511,8.9859,9.0246,9.2102,9.3302,9.423,9.4888,9.5004,9.5274,9.6164,9.659,9.717,9.8369,9.8717,9.9259,10.038,10.0613,10.0806,10.1309,10.2005,10.2817,10.3784,10.5022,10.6105,10.6879,10.6995,10.6995,10.6995,10.6995,10.6802,10.6183,10.6415,10.6415,10.6183,10.5912,10.6105,10.6995,10.6686,10.6686,10.6995,10.6995,10.6492,10.5719,10.479,10.3901,10.3088,10.2315,10.1889,10.1889,10.1889,10.1889,10.1889,10.1889,10.1889,10.1889,0.0,0.0,0.0,0.0,0.0,0.0,0.0,0.0,0.0,0.0,0.0,0.0,0.0,0.0,0.0,0.0,0.0,0.0,5.5626,5.5703,5.6472,5.8242,5.8319,6.0012,6.3628,6.5705,6.8244,7.1398,7.3091,7.3322,7.2168,7.0783,6.9746,6.8907,6.6916,6.5887,6.545,6.4735,6.4135,6.3783,6.5077,6.539,0.0,0.0,0.0,0.0,0.0,0.0,0.0,0.0,7.7933,7.8912,7.9647,7.9492,7.9105,7.9685,8.1039,8.2393,8.2625,8.5449,8.8698,9.04,9.1251,9.1986,9.3108,9.4462,9.5506,9.5506,9.5932,9.6435,9.6744,9.7247,9.7866,9.8756,9.9336,9.9994,10.0883,10.0999,10.1309,10.2199,10.2508,10.3204,10.4713,10.5603,10.6415,10.6995,10.6995,10.6879,10.6608,10.6608,10.6299,10.5719,10.5989,10.6183,10.6105,10.5796,10.6105,10.6995,10.6995,10.6995,10.6995,10.6995,10.6415,10.5293,10.4713,10.3784,10.2701,10.2082,10.1889,10.1889,10.1889,10.1889,10.1889,10.1889,10.1889,10.1889,0.0,0.0,0.0,0.0,0.0,0.0,0.0,0.0,0.0,0.0,0.0,0.0,0.0,0.0,0.0,0.0,0.0,0.0,5.5588,5.5703,5.6472,5.8204,5.828,6.0281,6.4474,6.5436,6.7167,6.9706,7.136,7.2168,7.2129,6.959,6.8937,6.9755,6.7316,6.629,6.634,6.5721,6.5432,6.5446,6.5585,6.6172,6.7109,0.0,0.0,0.0,0.0,0.0,0.0,0.0,7.6591,7.8061,7.8936,7.9129,7.9337,8.1155,8.2857,8.4289,8.5101,8.7228,8.9627,9.1329,9.1716,9.218,9.3843,9.4888,9.5506,9.5506,9.6899,9.7827,9.6976,9.8176,9.9607,10.0496,10.0613,10.0883,10.1812,10.1889,10.2199,10.3088,10.3901,10.4713,10.5603,10.6492,10.6995,10.6995,10.6995,10.6608,10.5719,10.5719,10.5719,10.5719,10.4906,10.5216,10.6995,10.6105,10.6105,10.6995,10.6995,10.6995,10.6995,10.6995,10.5989,10.4403,10.4403,10.3398,10.1889,10.1889,10.1889,10.1889,10.1889,10.1889,10.1889,10.1889,10.1889,10.1889,0.0,0.0,0.0,0.0,0.0,0.0,0.0,0.0,0.0,0.0,0.0,0.0,0.0,0.0,0.0,0.0,0.0,0.0,5.5588,5.5703,5.6203,5.7319,5.7396,5.8819,6.1858,6.4551,6.7436,7.0552,7.1668,7.1591,7.0437,7.0244,6.9475,6.8197,6.8019,6.7444,6.662,6.7056,6.6927,6.6634,6.8433,6.8984,6.8867,0.0,0.0,0.0,0.0,0.0,0.0,0.0,0.0,0.0,7.8975,7.9188,7.9486,8.1204,8.3244,8.5256,8.6726,8.9433,9.2296,9.3959,9.3921,9.3727,9.4849,9.5777,9.659,9.7209,9.775,9.8176,9.8485,9.8949,9.98,10.1309,10.0999,10.0883,10.1812,10.1889,10.2199,10.3088,10.3901,10.4713,10.5603,10.6492,10.6995,10.6995,10.6415,10.5989,10.5719,10.51,10.479,10.479,10.51,10.5293,10.5216,10.6105,10.6415,10.6105,10.6686,10.6995,10.6995,10.6995,10.5989,10.4403,10.4403,10.3398,10.1889,10.1889,10.1889,10.1889,10.1889,10.1889,10.1889,10.1889,10.1889,10.1889,0.0,0.0,0.0,0.0,0.0,0.0,0.0,0.0,0.0,0.0,5.3549,5.2856,0.0,0.0,0.0,0.0,0.0,0.0,5.5588,5.5703,5.6088,5.6934,5.6973,5.8165,6.0742,6.382,6.6551,6.8898,7.0437,7.0706,6.9706,7.0514,7.0028,6.8502,6.9048,6.9072,6.873,6.8644,6.8936,6.9531,7.0742,7.1094,7.1055,0.0,0.0,0.0,0.0,0.0,0.0,0.0,0.0,0.0,7.8806,7.8997,7.9286,8.239,8.4224,8.5913,8.866,9.1174,9.334,9.4655,9.4578,9.4539,9.5816,9.6241,9.6744,9.7866,9.8408,9.8794,9.922,9.9878,10.0613,10.1309,10.1193,10.1309,10.1812,10.1889,10.2199,10.3088,10.3901,10.4713,10.5603,10.6183,10.6492,10.6492,10.5719,10.5022,10.4713,10.4519,10.4403,10.4403,10.4906,10.51,10.4906,10.5989,10.6183,10.5719,10.6608,10.6995,10.6995,10.6995,10.5989,10.4403,10.3707,10.2817,10.1889,10.1889,10.1889,10.1889,10.1889,10.1889,10.1889,10.1889,10.1889,10.1889,0.0,0.0,0.0,0.0,0.0,0.0,0.0,0.0,0.0,5.3318,5.3164,5.2856,0.0,0.0,0.0,5.3049,5.328,5.3972,5.5472,5.5665,5.6049,5.6857,5.6934,5.8165,6.0627,6.3012,6.4705,6.5667,6.8205,6.9475,6.9475,7.036,7.0439,6.9794,7.0153,7.0826,7.161,7.0381,7.1172,7.3242,7.2422,7.2578,7.3281,7.3203,0.0,0.0,0.0,0.0,0.0,0.0,0.0,0.0,7.8606,7.8741,7.8925,8.4002,8.541,8.6223,9.0439,9.2335,9.3302,9.4114,9.4307,9.4772,9.6512,9.6474,9.6503,9.7964,9.9018,9.9676,9.9452,10.0806,10.158,10.0806,10.1386,10.1889,10.1889,10.1889,10.2199,10.3088,10.3784,10.4597,10.5487,10.5603,10.5603,10.5603,10.479,10.4017,10.3204,10.3901,10.4287,10.4403,10.4403,10.479,10.5719,10.5719,10.5719,10.5719,10.6608,10.6995,10.6995,10.6995,10.5989,10.4287,10.2585,10.1889,10.1889,10.1889,10.1889,10.1889,10.1889,10.1889,10.1889,10.1889,10.1889,10.1889,0.0,0.0,0.0,0.0,0.0,0.0,0.0,0.0,5.4857,5.251,5.2779,5.2856,5.201,5.1741,0.0,5.3126,5.3818,5.4357,5.4741,5.5357,5.578,5.5972,5.6626,5.7857,5.9742,6.0973,6.2358,6.3858,6.6397,6.7667,6.7667,6.9297,6.9331,6.8101,7.0316,7.1143,7.0915,7.2025,7.2812,7.3281,7.3086,7.3125,7.3242,7.2539,7.2148,0.0,0.0,0.0,0.0,0.0,0.0,0.0,7.8762,7.8923,7.8936,8.2668,8.4521,8.6235,8.9743,9.2296,9.4153,9.5004,9.5352,9.5545,9.5971,9.7161,9.837,9.9134,9.9991,10.0574,10.038,10.1193,10.1812,10.1696,10.1812,10.1889,10.1889,10.1889,10.2199,10.3088,10.3398,10.3784,10.4597,10.4713,10.4713,10.4713,10.3901,10.3398,10.3204,10.3398,10.3707,10.4403,10.4403,10.479,10.5719,10.5719,10.5719,10.5719,10.6608,10.6995,10.6995,10.6995,10.5989,10.4287,10.2585,10.1889,10.1889,10.1889,10.1889,10.1889,10.1889,10.1889,10.1889,10.1889,10.1889,10.1889,0.0,0.0,0.0,0.0,0.0,0.0,0.0,0.0,5.4511,5.2741,5.2933,5.3049,5.2587,5.251,0.0,0.0,5.401,5.4511,5.4511,5.5241,5.5895,5.6319,5.6742,5.7588,5.8896,5.9742,6.0819,6.2089,6.3858,6.532,6.6551,6.8783,6.9408,6.8794,7.1164,7.2536,7.3083,7.3672,7.4414,7.5117,7.4726,7.4531,7.4492,7.4023,7.3594,7.3242,7.3242,0.0,0.0,0.0,0.0,0.0,0.0,0.0,7.886,8.1749,8.3691,8.5643,8.8931,9.1677,9.3959,9.5274,9.57,9.5816,9.5971,9.778,9.9472,9.9795,10.0482,10.1115,10.1309,10.158,10.1889,10.1889,10.1889,10.1889,10.1889,10.1889,10.1889,10.2005,10.2315,10.2585,10.2585,10.3011,10.3204,10.3204,10.2817,10.2585,10.2585,10.332,10.4017,10.4403,10.479,10.5216,10.5719,10.5719,10.5719,10.5719,10.6608,10.6802,10.6415,10.5912,10.5293,10.4287,10.2585,10.1889,10.1889,10.1889,10.1889,10.1889,10.1889,10.1889,10.1889,10.1889,10.1889,10.1889,0.0,0.0,0.0,0.0,0.0,0.0,0.0,0.0,0.0,5.3318,5.3203,5.328,5.3395,5.328,5.3203,0.0,0.0,0.0,5.428,5.5164,5.6088,5.6973,5.6857,5.7242,5.828,5.8819,5.955,6.0589,6.1435,6.3089,6.5513,6.7975,6.9514,7.0266,7.2095,7.3962,7.5659,7.539,7.5937,7.6914,7.6367,7.5937,7.5703,7.5859,7.5351,7.4609,7.4765,7.4258,7.375,7.5234,0.0,0.0,0.0,0.0,7.8784,8.1048,8.2864,8.4804,8.7952,9.0942,9.365,9.5468,9.5902,9.5957,9.6348,9.836,10.0095,10.0083,10.0806,10.153,10.2028,10.2005,10.1889,10.1889,10.1812,10.1696,10.1696,10.1502,10.1193,10.0496,10.0999,10.1193,10.038,10.0999,10.1502,10.1502,10.158,10.1696,10.1696,10.3398,10.4403,10.4403,10.5216,10.5796,10.5912,10.5796,10.5796,10.5912,10.6492,10.6415,10.5719,10.4713,10.421,10.4094,10.2585,10.1889,10.1889,10.1889,10.1889,10.1889,10.1889,10.1889,10.1889,10.1889,10.1889,10.1889,0.0,0.0,0.0,0.0,0.0,0.0,0.0,0.0,0.0,0.0,5.3203,5.351,5.4241,5.3664,5.3203,5.3203,5.4626,5.4934,5.3472,0.0,0.0,5.6973,5.628,5.6626,5.828,5.7665,5.8088,5.9665,6.055,6.1897,6.3705,6.5673,6.8135,7.1014,7.236,7.3915,7.5629,7.7295,7.7226,7.6133,7.6758,7.6133,7.4844,7.5625,7.5351,7.4687,7.5469,7.5156,7.457,7.5547,7.582,0.0,0.0,0.0,7.8816,8.0452,8.215,8.404,8.6481,9.0516,9.4501,9.6358,9.6399,9.6195,9.7119,9.8825,10.0313,10.0317,10.1394,10.2285,10.2096,10.2082,10.2005,10.1889,10.1309,10.0806,10.0806,10.011,9.9607,9.9491,9.9568,9.9607,9.9491,9.9568,9.9645,9.9645,10.0303,10.0806,10.0806,10.3088,10.4403,10.4403,10.5216,10.6105,10.6802,10.6105,10.6105,10.6802,10.6183,10.5796,10.5603,10.4094,10.3398,10.3282,10.2315,10.1889,10.1889,10.1889,10.1889,10.1889,10.1889,10.1889,10.1889,10.1889,10.1889,10.1889,0.0,0.0,0.0,0.0,0.0,0.0,0.0,0.0,0.0,0.0,0.0,5.4241,5.5088,5.4818,5.4434,5.3972,5.5011,5.5395,5.4664,5.5742,5.6588,5.6973,5.6165,5.628,5.755,5.7203,5.7588,5.8819,5.9665,6.1435,6.4051,6.5465,6.7672,7.0566,7.2252,7.3974,7.5733,7.7698,7.8047,7.7461,7.8789,7.8867,7.8242,7.8594,7.8515,7.8242,7.8633,7.789,7.6914,7.7734,7.7734,7.7539,7.8672,0.0,0.0,0.0,8.1615,8.4009,8.7255,9.0787,9.3882,9.5322,9.5878,9.6186,9.6798,9.7942,9.8987,9.9488,10.0898,10.21,10.2308,10.1899,10.1502,10.1502,10.069,9.9994,9.9994,9.9607,9.9143,9.8678,9.864,9.8446,9.7943,9.833,9.864,9.864,9.9413,10.011,10.0613,10.2585,10.3901,10.4403,10.5719,10.6608,10.6995,10.6608,10.6415,10.6299,10.5912,10.5216,10.4287,10.3514,10.3204,10.3204,10.2315,10.1889,10.1889,10.1889,10.1889,10.1889,10.1889,10.1889,10.1889,10.1889,10.1889,10.1889,0.0,0.0,0.0,0.0,0.0,0.0,0.0,0.0,0.0,0.0,0.0,5.4818,5.5588,0.0,0.0,0.0,5.5549,5.6126,5.6357,5.6742,5.6973,5.6973,5.6165,5.6011,5.6665,5.6665,5.7088,5.7973,5.8781,6.0819,6.3974,6.5172,6.7186,6.9808,7.1996,7.4013,7.5847,7.7713,7.8359,7.8359,8.0469,8.1054,8.0742,8.1406,8.164,8.164,8.164,8.0859,7.9844,8.0234,7.9961,7.9453,7.9453,8.0312,0.0,0.0,0.0,8.4315,8.7719,9.0787,9.3379,9.4704,9.5661,9.6395,9.6713,9.7422,9.8164,9.8594,10.0117,10.1406,10.1914,10.1594,10.1114,10.0805,9.9925,9.9317,9.925,9.8988,9.8524,9.7866,9.7789,9.7557,9.686,9.7402,9.7827,9.7789,9.8756,9.9645,10.0187,10.2082,10.3591,10.4403,10.5912,10.6802,10.6995,10.6802,10.6299,10.5719,10.5293,10.4403,10.3204,10.3011,10.2895,10.2817,10.2199,10.1889,10.1889,10.1889,10.1889,10.1889,10.1889,10.1889,10.1889,10.1889,10.1889,10.1889,0.0,0.0,0.0,0.0,0.0,0.0,0.0,0.0,0.0,0.0,0.0,5.4818,5.5588,5.5011,5.4857,5.5549,5.6434,5.728,5.8127,5.7434,5.6973,5.6973,5.6165,0.0,5.578,5.578,5.6203,5.7049,5.7934,5.9704,6.2243,6.3969,6.6251,6.9075,7.1777,7.3994,7.5847,7.7713,7.8008,7.7578,8.0898,8.125,8.0039,8.2539,8.3476,8.3476,8.3476,8.3398,8.3203,8.2422,8.2148,8.2109,8.2109,8.2148,8.207,0.0,0.0,0.0,8.6675,9.0091,9.365,9.5468,9.6577,9.7304,9.7572,9.832,9.8711,9.7929,9.914,10.039,10.039,10.0897,10.1109,10.0005,9.9124,9.8491,9.838,9.7789,9.7247,9.6899,9.6976,9.6976,9.6822,9.6976,9.7015,9.686,9.8592,9.9521,9.9375,10.1812,10.3591,10.4403,10.5293,10.6183,10.6995,10.6183,10.5719,10.5719,10.4094,10.3282,10.3204,10.2315,10.2005,10.2005,10.1889,10.1889,10.1889,10.1889,10.1889,10.1889,10.1889,10.1889,10.1889,10.1889,10.1889,10.1889,0.0,0.0,0.0,0.0,0.0,0.0,0.0,0.0,0.0,0.0,0.0,0.0,0.0,5.5934,5.6434,5.728,5.9127,6.0165,5.9935,6.0127,5.9781,5.8665,5.7819,5.7126,5.6549,5.5972,5.6126,5.6973,5.7857,5.9588,6.2166,6.4971,6.7229,6.9012,7.1155,7.3183,7.5148,7.7493,7.832,7.8398,8.2383,8.3242,8.2422,8.4492,8.5625,8.6094,8.6094,0.0,8.5156,8.4258,8.3594,8.3047,8.2461,8.2695,8.3047,8.2656,8.2788,8.3488,8.5485,8.7948,9.0633,9.3505,9.4924,9.581,9.6557,9.664,9.664,9.6875,9.8281,9.9297,9.8711,9.9297,9.9724,9.9346,9.8482,9.7838,9.7778,9.7493,9.7236,9.7147,9.7044,9.7015,9.7092,9.7054,9.6975,9.6936,9.8049,9.8678,9.8524,10.0999,10.2508,10.2817,10.4094,10.4984,10.5293,10.4984,10.4597,10.4094,10.3514,10.2895,10.2392,10.2005,10.1889,10.1889,10.1889,10.1889,10.1889,10.1889,10.1889,10.1889,10.1889,10.1889,10.1889,10.1889,10.1889,10.1889,0.0,0.0,0.0,5.5703,0.0,5.578,5.6088,5.5895,5.5895,5.6511,0.0,0.0,0.0,0.0,5.8011,5.9435,6.1358,6.2243,6.1666,6.1935,6.1589,6.0435,5.9588,5.8858,5.828,5.7165,5.6857,5.7434,5.828,5.9704,6.1704,6.4869,6.7397,6.9387,7.0604,7.2424,7.4765,7.7383,7.8515,7.8867,8.3164,8.4531,8.4258,8.6289,8.7929,8.914,8.8554,0.0,8.8203,8.7344,8.6484,8.5586,8.4726,8.4062,8.3594,8.3476,8.2851,8.2614,8.4659,8.6904,8.929,9.2141,9.4186,9.5603,9.6082,9.5859,9.5625,9.5976,9.7187,9.7969,9.7383,9.8008,9.8554,9.8554,9.8242,9.789,9.7539,9.7472,9.7401,9.7325,9.7243,9.7199,9.7306,9.7209,9.7224,9.744,9.8014,9.8408,9.8485,10.038,10.1696,10.2315,10.3707,10.4403,10.4403,10.4094,10.3707,10.3204,10.2895,10.2508,10.1889,10.1889,10.1889,10.1889,10.1889,10.1889,10.1889,10.1889,10.1889,10.1889,10.1889,10.1889,10.1889,10.1889,10.1889,10.1889,5.5703,5.5703,5.5703,5.5742,5.5742,5.6011,5.6896,5.6319,5.6395,5.8088,0.0,0.0,0.0,0.0,0.0,6.1935,6.2935,6.3397,6.3397,6.2666,6.2204,6.2166,6.132,6.0858,6.0819,5.9204,5.8357,5.8357,5.9165,6.0012,6.0973,6.3474,6.6654,7.0196,7.0283,7.194,7.4805,7.7422,7.8555,7.8906,8.3242,8.4961,8.5195,8.7773,9.0351,9.2383,9.0703,9.1172,0.0,9.1601,9.0742,8.9804,8.8906,8.6328,8.3633,8.3594,8.2929,8.2578,0.0,0.0,0.0,9.1655,9.4491,9.6732,9.6256,9.621,9.6094,9.539,9.5976,9.6601,9.6523,9.7187,9.7734,9.7695,9.8437,9.8672,9.7695,9.7656,9.7641,9.7344,9.7422,9.744,9.7302,9.7432,9.7689,9.8217,9.8428,9.8708,9.922,10.011,10.1309,10.3088,10.3901,10.4287,10.4287,10.3591,10.3204,10.3204,10.2315,10.1889,10.1889,10.1889,10.1889,10.1889,10.1889,10.1889,10.1889,10.1889,10.1889,10.1889,10.1889,10.1889,10.1889,10.1889,10.1889,10.1889,5.5724,5.5703,5.5895,5.6511,5.6626,5.6934,5.7819,5.7742,5.7742,0.0,0.0,0.0,5.9127,6.1396,6.3128,6.3858,6.5205,6.5782,6.5205,6.4974,6.4551,6.3935,6.3089,6.2358,6.1743,6.0666,6.0127,6.0127,6.0973,6.2127,6.3589,6.565,6.7905,7.031,7.2267,7.4039,7.5703,7.8281,7.9375,7.9805,8.4765,8.6015,8.5312,8.914,9.1406,9.2617,0.0,9.2734,9.2578,0.0,9.082,8.8828,8.7344,8.582,8.4297,8.3047,8.1601,8.0781,8.2383,0.0,0.0,0.0,0.0,0.0,9.4862,9.6646,9.7695,9.6406,9.7812,9.8672,9.6836,9.8203,9.8984,9.7148,9.8047,9.8906,9.8633,9.8633,9.8397,9.768,9.7535,9.7533,9.7589,9.7514,9.751,9.7572,9.8168,9.8214,9.7518,9.833,9.9568,10.1309,10.1502,10.2005,10.2585,10.2392,10.2315,10.2315,10.2005,10.1889,10.1889,10.1889,10.1889,10.1889,10.1889,10.1889,10.1889,10.1889,10.1889,10.1889,10.1889,10.1889,10.1889,10.1889,10.1889,10.1889,5.584,5.628,5.6819,5.6973,5.7588,5.8473,5.9704,5.9896,6.0281,0.0,0.0,0.0,6.2089,6.4589,6.6205,6.6205,6.7398,6.7667,6.6474,6.6397,6.6013,6.5166,6.4666,6.4166,6.3705,6.2474,6.1858,6.1858,6.2358,6.3281,6.4628,6.6527,6.8607,7.0837,7.2842,7.4762,7.6601,7.914,8.0039,8.0078,8.4609,0.0,8.5898,9.0195,9.2617,0.0,0.0,0.0,9.4179,9.3828,9.2187,9.0156,8.9179,8.7304,8.5234,8.4219,8.2187,8.0625,8.2265,8.3203,8.4365,8.7234,0.0,0.0,9.3118,9.5219,9.6886,9.6093,9.7422,9.8242,9.6758,9.8008,9.8867,9.7734,9.8359,9.8867,9.8515,9.8789,9.8828,9.8281,9.8476,9.8554,9.8281,9.8168,9.8081,9.7924,9.7987,9.7827,9.7363,9.7827,9.8872,10.0496,10.0613,10.0999,10.1889,10.1889,10.1889,10.1889,10.1889,10.1889,10.1889,10.1889,10.1889,10.1889,10.1889,10.1889,10.1889,10.1889,10.1889,10.1889,10.1889,10.1889,10.1889,10.1889,10.1889,10.1889,0.0,5.7242,5.8127,5.7511,5.8819,6.0473,6.2127,6.2627,6.3589,0.0,6.4859,6.4628,6.6282,6.7975,6.8898,6.8706,6.9552,6.936,6.7513,6.7398,6.6974,6.6051,6.6013,6.5974,6.5897,6.4397,6.3589,6.3589,6.3589,6.4089,6.5051,6.678,6.9045,7.1667,7.2808,7.4879,7.7616,7.9883,8.0703,8.0703,8.3984,8.5781,0.0,0.0,9.3711,9.5078,9.5156,9.5703,9.625,9.5469,9.4179,0.0,9.2656,8.9922,8.6679,8.6328,8.3945,8.1719,8.3086,8.4375,8.5429,8.582,8.9222,0.0,9.155,9.3193,9.4966,9.5268,9.6094,9.6679,9.6406,9.7109,9.7969,9.8711,9.8867,9.8594,9.7812,9.8437,9.8945,9.875,9.9492,9.9726,9.8945,9.8866,9.8821,9.8762,9.7925,9.7595,9.8098,9.8021,9.8794,10.0574,10.0496,10.0883,10.1889,10.1889,10.1889,10.1889,10.1889,10.1889,10.1889,10.1889,10.1889,10.1889,10.1889,10.1889,10.1889,10.1889,10.1889,10.1889,10.1889,10.1889,10.1889,10.1889,10.1889,10.1889,5.7867,5.8094,5.8665,5.9858,6.1435,6.2897,6.3935,6.5859,6.709,6.6898,6.7782,6.8821,6.9821,7.1475,7.1937,7.0514,7.186,7.1745,6.936,6.9206,6.8513,6.6936,6.6859,6.6551,6.5897,6.5551,6.5397,6.5397,6.5397,6.6167,6.7667,6.8317,6.9994,7.2538,7.4488,7.6783,7.9235,7.9725,8.1875,8.5117,8.7148,8.8047,8.8594,9.2265,9.3867,9.4258,9.4961,9.5312,9.5429,9.5273,9.4961,9.4453,9.3047,9.1523,8.9765,8.6992,8.5234,8.3906,8.2851,8.2265,8.2578,8.5234,8.7138,0.0,9.2469,9.4586,9.5977,9.6196,9.7461,9.789,9.582,9.6679,9.7773,9.7929,9.7969,9.789,9.7734,9.8437,9.8515,9.7148,9.7695,9.8125,9.7969,9.7948,9.811,9.8509,9.8156,9.8021,9.8244,9.7479,9.8214,10.0798,9.9994,10.0303,10.1889,10.1889,10.1889,10.1889,10.1889,10.1889,10.1889,10.1889,10.1889,10.1889,10.1889,10.1889,10.1889,10.1889,10.1889,10.1889,10.1889,10.1889,10.1889,10.1889,10.1889,10.1889,5.9163,6.0355,6.1797,6.2598,6.4138,6.5832,6.7475,6.8821,6.9937,7.0783,7.2014,7.3014,7.3399,7.4207,7.4399,7.3514,7.4245,7.4014,7.2322,7.1822,7.0821,6.9052,6.859,6.7782,6.6513,6.6513,6.6282,6.5897,6.5897,6.6819,6.8559,6.9246,7.1426,7.4833,7.6028,7.7966,8.0392,8.0817,8.3008,8.6289,8.7109,0.0,9.0273,9.289,9.4179,9.4648,9.5547,9.5859,9.5859,9.5859,9.5859,9.5703,9.4804,9.3633,9.2109,8.9492,8.7539,8.5898,8.4609,8.3594,8.3242,8.4453,8.5664,0.0,0.0,9.1212,9.2775,9.4239,9.5234,9.5664,9.5273,9.625,9.7109,9.7109,9.7422,9.7578,9.7148,9.8203,9.8672,9.7851,9.8476,9.8672,9.7773,9.8101,9.824,9.8015,9.827,9.8438,9.8438,9.8297,9.9022,10.0789,10.0295,10.0613,10.1889,10.1889,10.1889,10.1889,10.1889,10.1889,10.1889,10.1889,10.1889,10.1889,10.1889,10.1889,10.1889,10.1889,10.1889,10.1889,10.1889,10.1889,10.1889,10.1889,10.1889,10.1889,6.0846,6.2948,6.5048,6.498,6.6637,6.8591,7.0618,7.1591,7.2937,7.513,7.6053,7.6476,7.6476,7.6784,7.6861,7.6515,7.6784,7.6553,7.5515,7.4668,7.3591,7.2206,7.0898,6.9513,6.809,6.759,6.7039,6.6434,6.6434,6.7286,6.9012,7.0039,7.2685,7.6684,7.7558,7.9182,8.1334,8.2887,8.4844,8.6953,0.0,8.9375,9.2422,9.3672,9.4804,9.5742,9.6289,9.6406,9.6328,9.6836,9.6875,9.6797,9.7148,9.6133,9.4531,9.2812,9.0508,8.8242,8.7226,8.6172,8.5273,8.4726,8.5508,8.6523,0.0,0.0,0.0,9.163,9.2226,9.2812,9.4414,9.539,9.6015,9.6015,9.6679,9.6914,9.6094,9.7304,9.8398,9.8711,9.9375,9.9297,9.8086,9.898,9.9007,9.7378,9.8602,9.9289,9.8902,9.9017,9.974,10.1099,10.0604,10.0806,10.1889,10.1889,10.1889,10.1889,10.1889,10.1889,10.1889,10.1889,10.1889,10.1889,10.1889,10.1889,10.1889,10.1889,10.1889,10.1889,10.1889,10.1889,10.1889,10.1889,10.1889,10.1889,6.3629,6.4668,6.5936,6.5936,6.8511,7.0658,7.0966,7.4158,7.6938,7.7938,7.813,7.8207,7.8207,7.9592,7.99,7.8361,7.9631,7.9823,7.8169,7.7323,7.6784,7.6592,7.3591,7.1822,7.1629,6.9398,6.8294,6.8408,6.8408,6.8953,7.006,7.1077,7.304,7.589,7.9127,8.1173,8.2428,8.6325,8.8594,8.9687,9.125,9.3476,9.5859,9.5273,9.6054,9.7344,9.6719,9.6015,9.5703,9.7969,9.8203,9.7812,9.9375,9.9219,9.8086,9.6406,9.4062,9.164,9.0039,8.8398,8.7344,8.7969,8.8242,8.8594,8.9375,0.0,8.9914,9.0234,0.0,9.1758,9.2734,0.0,0.0,9.4219,9.4922,9.5195,9.4336,9.5039,9.6172,9.7656,9.7929,9.8203,9.8789,10.0812,10.0397,9.6622,9.9695,10.1193,9.9977,9.824,9.8807,10.2114,10.038,10.0187,10.1889,10.1889,10.1889,10.1889,10.1889,10.1889,10.1889,10.1889,10.1889,10.1889,10.1889,10.1889,10.1889,10.1889,10.1889,10.1889,10.1889,10.1889,10.1889,10.1889,10.1889,10.1889,6.6474,6.7227,6.8651,6.9633,7.0937,7.2533,7.4395,7.7035,7.9054,7.99,8.04,8.1093,8.2093,8.1977,8.1932,8.2232,8.1578,8.1039,0.0,7.9999,7.9114,7.8015,7.6169,7.4476,7.2976,7.1398,7.0221,6.9396,6.9378,6.9959,7.1101,7.2055,7.4748,7.8791,8.0302,8.2883,8.6088,8.7421,9.0234,9.3789,9.4023,9.625,9.9101,9.5742,9.5195,9.6211,9.5859,9.6133,9.6758,9.7344,9.8281,9.914,9.8867,9.957,10.0117,9.7851,9.6094,9.4492,9.2734,9.1015,8.9414,8.8281,8.8359,8.8672,8.8554,8.8164,8.8203,8.9687,0.0,0.0,0.0,0.0,0.0,0.0,9.3125,9.3554,9.3203,9.3387,9.4418,9.6716,9.6992,9.7344,9.8164,9.9491,9.9202,9.6584,9.9557,10.0726,9.8699,9.9007,9.9937,10.1494,10.1077,10.1193,10.1889,10.1889,10.1889,10.1889,10.1889,10.1889,10.1889,10.1889,10.1889,10.1889,10.1889,10.1889,10.1889,10.1889,10.1889,10.1889,10.1889,10.1889,10.1889,10.1889,10.1889,10.1889,6.9783,7.0054,7.0999,7.1997,7.2708,7.4204,7.7274,7.9114,8.0508,8.1354,8.2554,8.3824,8.5126,8.4549,8.4504,8.5606,8.4019,8.3094,0.0,0.0,8.2032,8.0769,7.8968,7.7361,7.6053,7.4014,7.2559,7.1739,7.1572,7.1804,7.2501,7.3695,7.6519,8.0684,8.1404,8.4062,8.8047,8.8398,9.1211,9.5429,9.5273,9.707,9.9492,9.6445,9.539,9.5586,9.582,9.6523,9.7344,9.7226,9.8242,9.9453,9.8672,9.9375,10.0195,9.8242,9.6953,9.5937,9.4883,9.3359,9.1679,9.0312,9.0039,8.9765,8.8476,8.8086,8.8203,8.914,8.8515,0.0,0.0,0.0,9.0429,8.9961,0.0,9.1233,9.0531,9.0719,9.221,9.5651,9.6473,9.6796,9.686,9.8907,9.9138,9.6608,9.9551,10.0407,9.8003,9.9104,10.0187,10.0883,10.1309,10.1696,10.1889,10.1889,10.1889,10.1889,10.1889,10.1889,10.1889,10.1889,10.1889,10.1889,10.1889,10.1889,10.1889,10.1889,10.1889,10.1889,10.1889,10.1889,10.1889,10.1889,10.1889,10.1889,7.3867,7.3071,7.2258,7.1485,7.3335,7.5748,7.8199,8.0058,8.1445,8.2254,8.4472,8.6011,8.6146,0.0,0.0,8.7494,0.0,8.7078,8.6307,0.0,8.6215,8.6331,8.2078,8.0554,8.2362,7.7497,7.5388,7.6411,7.574,7.5119,7.4525,7.6281,7.8024,7.9844,8.2383,8.4531,8.6484,8.9765,9.1797,9.2851,9.4531,9.5273,9.5664,9.7969,9.7851,9.6562,9.7344,9.7148,9.6797,9.8398,9.8398,9.8086,9.9687,9.9101,9.7812,9.7734,9.6523,9.539,9.6211,9.5156,9.4219,9.582,9.4961,9.3047,9.0508,9.1211,9.1484,8.8242,8.8164,8.8945,8.9844,8.9336,8.8242,8.664,8.7624,0.0,0.0,8.6298,8.9168,9.4318,9.643,9.6743,9.4952,10.0194,10.1622,9.6615,10.0009,10.1301,9.8863,9.7741,9.8292,10.0806,10.069,10.0999,10.1889,10.1889,10.1889,10.1889,10.1889,10.1889,10.1889,10.1889,10.1889,10.1889,10.1889,10.1889,10.1889,10.1889,10.1889,10.1889,10.1889,10.1889,10.1889,10.1889,10.1889,10.1889,7.5005,7.5376,7.5708,7.4811,7.5368,7.6751,7.9223,8.1021,8.2651,0.0,8.5437,0.0,0.0,8.8945,8.9092,0.0,0.0,8.761,8.6636,8.7571,0.0,0.0,0.0,8.349,0.0,7.9752,7.8004,7.6782,7.6582,7.6418,7.6326,7.6902,7.7811,7.9023,8.1601,8.4336,8.7226,8.9492,9.2578,9.6015,9.6601,9.7539,9.8476,9.7656,9.6992,9.6601,9.7422,9.7539,9.7383,9.7969,9.832,9.8554,9.8594,9.8984,9.9297,9.8711,9.7734,9.6914,9.7226,9.6484,9.5508,9.4922,9.6054,9.6445,9.3281,9.3476,9.3672,9.1367,9.0156,8.9648,8.9961,8.9297,8.8342,8.723,8.6959,8.6339,0.0,8.5491,8.6677,8.8365,0.0,0.0,0.0,9.812,9.9168,9.6419,9.89,9.9501,9.7074,9.7441,9.8137,9.9027,10.011,10.069,10.0999,10.158,10.1889,10.1889,10.1889,10.1889,10.1889,10.1889,10.1889,10.1889,10.1889,10.1889,10.1889,10.1889,10.1889,10.1889,10.1889,10.1889,10.1889,10.1889,10.1889,10.1889,7.6838,7.7388,7.7914,7.7016,7.7597,7.8655,7.9894,8.1849,8.3673,0.0,8.6761,0.0,9.0179,0.0,9.0797,0.0,9.0295,8.9571,8.9501,9.0196,0.0,8.838,8.777,0.0,0.0,8.2181,8.0531,7.9636,7.8476,7.7948,7.811,7.8397,7.9023,7.9922,8.1875,8.4687,8.8008,8.9414,9.2461,9.6367,9.6679,9.7851,9.9219,9.7539,9.75,9.8359,9.8554,9.8633,9.8633,9.8633,9.8984,9.9375,9.8789,9.8984,9.9258,9.8711,9.7929,9.7265,9.7265,9.6679,9.5859,9.5039,9.625,9.707,9.4844,9.5273,9.5586,9.3867,9.2617,9.1758,9.1445,9.0429,8.9232,8.8108,8.7057,8.5829,0.0,8.4314,8.4482,0.0,0.0,0.0,0.0,0.0,9.8013,9.677,9.853,9.8608,9.6145,9.7083,9.7673,9.7634,9.9568,10.0613,10.0613,10.1502,10.1889,10.1889,10.1889,10.1889,10.1889,10.1889,10.1889,10.1889,10.1889,10.1889,10.1889,10.1889,10.1889,10.1889,10.1889,10.1889,10.1889,10.1889,10.1889,10.1889,7.952,7.9235,7.895,7.8061,7.9956,8.1324,8.0357,8.2598,8.4684,0.0,8.8509,9.0625,9.0765,9.2256,9.3263,9.3221,9.2581,9.2741,9.4229,9.37,0.0,0.0,9.088,8.9572,8.9639,8.4824,8.3037,8.4465,8.1382,7.9844,7.9726,8.0586,8.1445,8.2265,8.3164,8.5469,8.875,8.9648,9.1562,9.414,9.4961,9.6328,9.789,9.789,9.9492,10.1601,10.0586,10.0312,10.0312,10.0312,10.0312,10.0312,10.0312,9.914,9.7812,9.7812,9.7265,9.6601,9.6601,9.5976,9.5508,9.6367,9.5976,9.5351,9.5273,9.6523,9.7226,9.5547,9.5195,9.4961,9.4101,9.2578,9.0849,8.9091,8.778,8.5983,8.3242,8.2857,8.2857,0.0,0.0,0.0,0.0,0.0,9.8089,9.7441,9.8893,9.869,9.6212,9.6687,9.7006,9.6822,9.9181,10.0496,10.0496,10.1386,10.1889,10.1889,10.1889,10.1889,10.1889,10.1889,10.1889,10.1889,10.1889,10.1889,10.1889,10.1889,10.1889,10.1889,10.1889,10.1889,10.1889,10.1889,10.1889,10.1889,8.2084,8.2418,8.2302,8.0782,8.2136,8.3128,8.2252,8.4959,0.0,0.0,8.9404,9.1041,9.1681,9.2276,9.2599,9.2409,9.2461,0.0,0.0,0.0,0.0,9.1904,9.1622,9.0704,8.8979,8.7642,8.5632,8.2873,8.2685,8.1601,7.9726,8.0586,8.1133,8.1367,8.2226,8.4883,8.875,8.9648,9.2617,9.6679,9.6328,9.7969,10.0586,10.0586,10.1797,10.3203,10.1094,10.0312,10.0312,10.0312,10.0312,10.0312,10.0312,10.0,9.9648,9.9648,9.9023,9.8359,9.8359,9.7734,9.7109,9.7344,9.7695,9.7695,9.6445,9.6953,9.7226,9.5547,9.5195,9.5117,9.4922,9.3984,9.2645,9.0936,8.8089,8.556,0.0,0.0,0.0,8.3786,0.0,0.0,0.0,0.0,0.0,0.0,9.8489,9.8977,9.7051,9.7497,9.7479,9.6822,9.806,9.9027,9.9645,10.1115,10.1889,10.1889,10.1889,10.1889,10.1889,10.1889,10.1889,10.1889,10.1889,10.1889,10.1889,10.1889,10.1889,10.1889,10.1889,10.1889,10.1889,10.1889,10.1819,10.1793,8.3358,8.3734,8.4082,8.3476,8.5127,8.5965,8.4276,8.6778,0.0,9.0404,9.1529,0.0,9.3873,9.3458,9.3146,9.3435,9.3622,0.0,9.4427,0.0,0.0,9.4028,9.3677,9.2561,9.0469,8.9289,0.0,8.5117,8.4453,8.3437,8.1992,8.2461,8.2695,8.2773,8.4023,8.6094,8.8828,9.0429,9.3906,9.8164,9.6992,9.832,0.0,10.1484,10.2383,10.3398,10.1992,10.1406,10.1406,10.1406,10.1406,10.1406,10.1406,10.1211,10.0898,10.0898,10.0312,9.9414,9.8633,9.7812,9.6992,9.6211,9.6679,9.7187,9.664,9.7422,9.789,9.6562,9.6601,9.664,9.5898,9.5351,9.4332,9.2138,8.9371,0.0,0.0,0.0,0.0,0.0,8.5256,0.0,0.0,0.0,0.0,0.0,0.0,9.853,9.7242,9.7081,9.6792,9.6241,9.7441,9.833,9.8756,10.0883,10.1696,10.1309,10.1696,10.1889,10.1889,10.1889,10.1889,10.1889,10.1889,10.1889,10.1889,10.1889,10.1889,10.1889,10.1889,10.1889,10.1889,10.1889,10.1896,10.1826,8.4378,8.466,8.5578,8.6352,8.8391,8.923,8.6972,8.8649,9.096,9.3245,9.3766,9.4492,9.5976,9.4922,9.4375,9.5117,9.5195,9.6094,9.8203,9.707,9.6605,9.7197,9.5827,9.4375,9.2969,9.0586,8.9258,8.9023,8.6836,8.5586,8.5234,8.5117,8.5117,8.5312,8.6836,8.8203,8.9531,9.2148,9.5508,9.8867,9.7422,9.8281,10.0586,10.1406,10.2187,10.289,10.289,10.289,10.289,10.289,10.289,10.289,10.2812,10.2304,10.1719,10.1601,10.1094,10.0312,9.8515,9.7539,9.6562,9.4844,9.4883,9.5586,9.6328,9.7617,9.8476,9.7695,9.8164,9.8242,9.6758,9.6406,9.5586,9.3281,9.1353,0.0,0.0,0.0,0.0,0.0,0.0,0.0,0.0,0.0,0.0,0.0,0.0,0.0,0.0,0.0,9.5919,9.5506,9.7092,9.7982,9.8098,10.038,10.1309,10.0806,10.1386,10.1812,10.1889,10.1889,10.1889,10.1889,10.1889,10.1889,10.1889,10.1889,10.1889,10.1889,10.1889,10.1889,10.1889,10.1889,10.1889,10.1896,8.7674,8.8772,8.9836,8.9966,9.105,9.198,9.2251,9.2108,9.2119,9.256,9.3376,9.4023,9.4336,9.4726,9.5039,9.5195,9.5195,9.539,9.5781,9.5586,9.5465,9.5592,9.4643,9.4336,9.4726,9.3594,9.2265,9.0859,9.039,8.9101,8.7031,8.6328,8.6367,8.707,8.7344,8.9531,9.3164,9.5703,9.7656,9.8984,9.8672,9.9687,10.1484,10.2304,10.2812,10.289,10.289,10.289,10.289,10.289,10.289,10.2812,10.2109,10.2187,10.25,10.1797,10.1992,10.2109,10.0312,9.9726,9.9219,9.7461,9.664,9.6328,9.6484,9.6719,9.6875,9.6758,9.6836,9.6836,9.6562,9.5898,9.5469,9.5508,0.0,0.0,0.0,0.0,0.0,0.0,0.0,9.0494,0.0,0.0,0.0,0.0,0.0,0.0,0.0,9.8029,9.7681,9.5584,9.6474,9.7363,9.8098,9.922,10.0419,10.1696,10.1077,10.1193,10.1889,10.1889,10.1889,10.1889,10.1889,10.1889,10.1889,10.1889,10.1889,10.1889,10.1889,10.1889,10.1889,10.1889,10.1819,10.1683,9.0547,9.1982,9.3119,9.3146,9.392,9.4795,9.5635,9.431,9.3666,9.4979,9.5202,9.5742,9.707,9.6406,9.6211,9.7109,9.7187,9.7344,9.7812,9.7851,9.7422,9.6523,9.6094,9.5469,9.4531,9.457,9.3945,9.2656,9.2656,9.1797,9.0156,8.9726,8.9492,8.9492,9.0429,9.2695,9.5898,9.625,9.7656,9.9648,9.9179,10.0,10.1719,10.2617,10.289,10.289,10.289,10.289,10.289,10.289,10.289,10.2812,10.2383,10.2617,10.2812,10.2383,10.2617,10.25,10.0781,9.9961,9.9219,9.75,9.6797,9.6484,9.6484,9.6836,9.7109,9.7109,9.7109,9.7109,9.7109,9.7539,9.7539,9.6523,0.0,0.0,0.0,0.0,0.0,0.0,0.0,0.0,0.0,0.0,0.0,0.0,0.0,0.0,0.0,9.7411,9.6723,9.5545,9.6358,9.6783,9.6744,9.8446,9.9723,10.0613,10.0613,10.1077,10.1889,10.1889,10.1889,10.1889,10.1889,10.1889,10.1889,10.1889,10.1889,10.1889,10.1889,10.1889,10.1889,10.1787,10.1683,10.1616,9.3281,9.4531,9.5547,9.5703,9.6302,9.6991,9.7613,9.6002,9.5351,9.7187,9.6875,9.7265,9.9258,9.8008,9.7578,9.8867,9.9179,9.957,10.0312,10.0312,9.9687,9.832,9.789,9.6758,9.4765,9.5195,9.5156,9.4453,9.4609,9.3906,9.2344,9.2695,9.2617,9.2187,9.3554,9.5508,9.7617,9.6484,9.7578,9.9961,9.9492,10.0312,10.1992,10.2617,10.289,10.289,10.289,10.289,10.289,10.289,10.289,10.289,10.2695,10.2812,10.289,10.2695,10.2617,10.2304,10.0703,9.9648,9.8633,9.7148,9.6758,9.6758,9.6758,9.7265,9.7695,9.7695,9.7578,9.75,9.7656,9.8672,9.9062,9.7773,9.8125,0.0,0.0,0.0,0.0,0.0,0.0,0.0,9.1669,0.0,0.0,0.0,0.0,0.0,9.7789,9.68,9.6182,9.6048,9.6706,9.6822,9.6319,9.7943,9.9027,9.9568,10.011,10.0883,10.1889,10.1889,10.1889,10.1889,10.1889,10.1889,10.1889,10.1889,10.1889,10.1889,10.1896,10.1896,10.1819,10.1683,10.1581,10.1588,9.6133,9.6289,9.6601,9.7344,9.7537,9.7611,9.7689,9.7499,9.7187,9.6679,9.6562,9.6601,9.6836,9.8008,9.8828,9.8984,9.9726,10.0195,10.0312,10.0312,10.0195,10.0117,9.8554,9.7578,9.7344,9.6719,9.6328,9.625,9.6992,9.5312,9.1445,9.3047,9.414,9.4844,9.5,9.6054,9.7734,9.8398,9.8828,9.9179,9.9883,10.1211,10.2812,10.289,10.289,10.289,10.289,10.289,10.289,10.289,10.289,10.2812,10.1992,10.2304,10.2695,10.1992,10.1719,10.1484,10.0586,9.9648,9.8789,9.7812,9.7578,9.7578,9.7578,9.7656,9.7695,9.7695,9.7109,9.6836,9.7578,9.7226,9.7773,10.0703,9.9258,0.0,0.0,0.0,9.8123,0.0,0.0,0.0,0.0,9.6344,0.0,0.0,9.6723,0.0,0.0,9.8214,9.8601,9.7866,9.7943,9.8292,9.8949,9.7673,9.8176,10.0496,9.9762,10.0303,10.1889,10.1889,10.1889,10.1889,10.1889,10.1889,10.1889,10.1889,10.1889,10.1889,10.1793,10.1683,10.1683,10.1581,10.1627,10.1479,9.789,9.8437,9.8711,9.8515,9.8906,9.9062,9.8554,9.8476,9.8554,9.875,9.832,9.8203,9.8711,9.9375,10.0,10.0508,10.0898,10.1289,10.1797,10.1914,10.1601,10.1094,10.039,9.9297,9.7734,9.7383,9.7226,9.7226,9.7539,9.7109,9.5937,9.664,9.6875,9.6719,9.6719,9.707,9.7773,9.8633,9.9297,9.9844,10.0703,10.1484,10.2109,10.2109,10.1797,10.1289,10.1289,10.1289,10.1289,10.1289,10.1992,10.2812,10.25,10.2304,10.2109,10.1719,10.1211,10.0586,9.9765,9.9258,9.8789,9.7929,9.7695,9.7695,9.7695,9.7695,9.7851,9.8359,9.8633,9.8554,9.7812,9.8711,9.9492,9.9297,9.9258,9.8984,0.0,0.0,0.0,9.6992,0.0,0.0,0.0,0.0,0.0,0.0,0.0,0.0,0.0,0.0,9.9143,9.8833,9.7827,9.7711,9.8562,9.7402,9.7827,9.9839,9.9491,10.0187,10.1889,10.1889,10.1889,10.1889,10.1889,10.1889,10.1889,10.1889,10.1889,10.1889,10.1793,10.1683,10.1688,10.1588,10.1516,10.1518,9.9258,9.9687,9.9726,9.9101,9.9726,10.0117,9.9492,9.9609,10.0,10.0586,10.039,10.0195,10.0312,10.0508,10.0898,10.1484,10.1797,10.2187,10.289,10.289,10.2617,10.1992,10.1719,10.0586,9.8515,9.8203,9.7969,9.7695,9.7969,9.7734,9.7109,9.6601,9.6836,9.7695,9.7187,9.7383,9.8125,9.875,9.9492,10.039,10.1015,10.1406,10.1601,10.1289,10.0781,10.0312,10.0312,10.0312,10.0312,10.0312,10.1094,10.2109,10.2109,10.1719,10.1211,10.1211,10.0586,9.9765,9.9179,9.8828,9.8476,9.7851,9.7695,9.7695,9.7695,9.7695,9.7851,9.8476,9.9101,9.914,9.7929,9.9414,10.0312,9.8711,9.9297,9.9375,9.7812,9.789,0.0,9.7611,9.8469,9.8617,9.7458,9.9246,0.0,0.0,0.0,0.0,0.0,0.0,0.0,9.8949,9.7789,9.7479,9.8098,9.7247,9.7634,9.9297,9.9297,10.0187,10.1889,10.1889,10.1889,10.1889,10.1889,10.1889,10.1889,10.1889,10.1889,10.1889,10.1683,10.1688,10.1693,10.1516,10.1404,10.1366,10.0312,9.9609,9.9023,9.8984,9.9726,10.0312,10.0312,10.1015,10.1601,10.1601,10.2304,10.2187,10.0508,10.1094,10.1601,10.1601,10.2383,10.289,10.289,10.289,10.289,10.289,10.2109,10.1211,10.0312,9.9414,9.8554,9.7695,9.8554,9.6836,9.2656,9.0937,9.2812,9.7617,9.5976,9.664,9.8984,9.8984,9.9492,10.0312,10.0312,10.0781,10.1484,10.0586,10.0312,10.0312,10.0312,10.0312,10.0312,10.0312,10.0312,10.0312,10.0312,10.0312,10.0312,10.0312,9.9687,9.9023,9.8984,9.8359,9.7695,9.7695,9.7695,9.7695,9.7695,9.7695,9.7695,9.7695,9.7734,9.7734,9.7695,9.8437,9.9297,10.0117,9.957,9.9297,10.0117,9.9531,9.9267,9.9977,10.1417,10.1684,10.0193,10.1293,0.0,0.0,0.0,0.0,0.0,0.0,0.0,9.8176,9.8098,9.8098,9.8098,9.7247,9.7634,9.9297,9.9297,10.0187,10.1889,10.1889,10.1889,10.1889,10.1889,10.1889,10.1889,10.1889,10.1889,10.1928,10.1693,10.1585,10.1588,10.1404,10.1289,10.1289,10.0312,10.0117,9.9883,9.9883,10.0586,10.1211,10.1211,10.2383,10.3398,10.3398,10.3594,10.3594,10.3008,10.2695,10.25,10.25,10.2695,10.289,10.289,10.289,10.289,10.289,10.2617,10.2109,10.1211,10.0312,9.9453,9.8594,9.8867,9.8281,9.6953,9.6406,9.6719,9.7695,9.7773,9.8242,9.9023,9.9648,10.0,10.0312,10.0312,10.0508,10.0703,10.039,9.9922,9.9414,9.9414,9.9414,9.9414,9.9414,9.9804,10.0195,9.9609,9.9414,9.9414,9.9414,9.8789,9.8125,9.8125,9.789,9.7695,9.7695,9.7695,9.7695,9.7695,9.7695,9.7695,9.7695,9.8164,9.8398,9.7812,9.8906,9.9765,9.9453,9.9179,9.8906,9.8554,9.8281,9.7999,9.7671,9.8567,9.9009,9.852,9.9831,10.0703,0.0,0.0,0.0,0.0,0.0,0.0,9.98,9.7518,9.717,9.8911,9.7518,9.7634,9.9297,9.9297,10.0187,10.1889,10.1889,10.1889,10.1889,10.1889,10.1889,10.1889,10.1889,10.1889,10.1928,10.1693,10.1585,10.1588,10.1404,10.1289,10.1289,10.0781,10.0781,10.0781,10.0781,10.1484,10.2109,10.2109,10.3008,10.3711,10.3711,10.3711,10.3711,10.3711,10.3203,10.289,10.289,10.3515,10.3594,10.289,10.3203,10.3203,10.289,10.289,10.2617,10.2109,10.1211,10.0508,9.9961,9.9648,9.9492,9.9492,9.914,9.8867,9.8672,9.8906,9.9375,10.0,10.0195,10.0508,10.0703,10.0117,10.0,10.0312,9.9922,9.9687,9.9492,9.9492,9.9492,9.9492,9.9492,9.9844,10.0195,9.9648,9.9492,9.9375,9.8711,9.8125,9.7695,9.7695,9.7695,9.7773,9.8125,9.8203,9.8281,9.8594,9.8672,9.8594,9.8242,9.8867,9.9101,9.7929,9.9375,10.039,9.9179,9.9531,9.957,9.8359,9.8203,9.8086,9.789,9.8279,9.8473,9.8129,9.9326,9.9977,9.9763,0.0,0.0,0.0,0.0,9.9259,9.8678,9.6938,9.6744,9.8369,9.7634,9.8137,9.98,10.011,10.0806,10.1889,10.1889,10.1889,10.1889,10.1889,10.1889,10.1889,10.1889,10.1889,10.1928,10.1693,10.1585,10.1588,10.1404,10.1289,10.1289,10.1719,10.1719,10.1719,10.1719,10.2383,10.289,10.289,10.3008,10.3008,10.3008,10.3008,10.3008,10.3008,10.3008,10.3008,10.289,10.4414,10.4687,10.3203,10.3789,10.3906,10.3008,10.3008,10.3008,10.289,10.2109,10.1719,10.1601,10.0703,10.0312,10.0312,9.9453,9.9531,10.0312,9.9531,10.0117,10.1484,10.0703,10.0898,10.1484,9.9765,9.9609,10.0312,9.9492,9.9687,10.039,10.039,10.039,10.039,10.039,10.039,10.0508,10.039,10.039,10.0,9.8281,9.7773,9.7773,9.7734,9.7695,9.789,9.8789,9.9062,9.9297,10.0117,10.0312,10.0117,9.9179,9.9687,9.9804,9.8086,9.9883,10.1094,9.9453,10.0508,10.1015,9.9336,9.9023,9.9219,9.9844,9.9922,9.9619,9.8796,9.9452,9.9336,9.7866,9.8276,9.8547,9.8446,10.0496,9.9839,9.57,9.6396,9.6822,9.6899,9.775,9.8988,10.0613,10.1502,10.1889,10.1889,10.1889,10.1889,10.1889,10.1889,10.1889,10.1889,10.1889,10.1889,10.1928,10.1693,10.1585,10.1588,10.1404,10.1289,10.1289,10.2617,10.2617,10.2617,10.2617,10.2812,10.289,10.289,10.3515,10.3906,10.3906,10.3906,10.3906,10.3906,10.3906,10.3594,10.3008,10.3906,10.4609,10.4883,10.5117,10.4804,10.3906,10.3906,10.3594,10.289,10.2695,10.2304,10.1601,10.0703,10.0312,10.0312,10.0117,10.0117,10.0312,10.0781,10.1211,10.1601,10.1406,10.1406,10.1484,10.039,10.0508,10.1289,10.1094,10.1094,10.1289,10.1289,10.1289,10.1289,10.1289,10.1719,10.2187,10.1484,10.1289,10.0898,9.9219,9.8672,9.8554,9.789,9.7695,9.789,9.8789,9.9492,10.0,10.0312,10.0312,10.0117,9.9179,9.9687,9.9961,9.8906,10.0312,10.1484,10.1094,10.1289,10.1211,10.0117,9.9414,9.8828,9.832,9.8281,9.8199,9.7987,9.8135,9.8821,10.0085,9.9785,9.9653,9.9994,9.9955,9.8872,9.6551,9.6706,9.7131,9.7789,9.8601,9.9568,10.0613,10.1502,10.1889,10.1889,10.1889,10.1889,10.1889,10.1889,10.1889,10.1889,10.1889,10.1889,10.1928,10.1693,10.1585,10.1588,10.1404,10.1289,10.1289,10.289,10.289,10.289,10.289,10.289,10.289,10.289,10.3281,10.3594,10.3594,10.3594,10.3594,10.3594,10.3594,10.3711,10.4101,10.4883,10.5195,10.4883,10.5586,10.5703,10.4804,10.4414,10.3984,10.3515,10.3086,10.2695,10.2187,10.1719,10.1484,10.1484,10.1484,10.1484,10.1484,10.1992,10.2187,10.2187,10.1797,10.1601,10.1484,10.0703,10.0781,10.1601,10.1601,10.1797,10.2187,10.2187,10.2187,10.2187,10.2187,10.25,10.2812,10.2304,10.2187,10.1914,10.0586,9.9922,9.9492,9.9023,9.8906,9.8984,9.9492,10.0508,10.1406,10.1015,10.1211,10.1211,10.039,10.0898,10.1094,9.9844,10.1015,10.2109,10.1719,10.1914,10.1914,10.1015,10.0508,9.9883,9.8984,9.8554,9.8125,9.7734,9.7695,9.8197,9.9353,9.9302,9.9297,9.9529,9.9027,9.833,9.7402,9.7402,9.7982,9.922,10.011,10.069,10.1193,10.1696,10.1889,10.1889,10.1889,10.1889,10.1889,10.1889,10.1889,10.1889,10.1889,10.1889,10.1928,10.1688,10.1581,10.1588,10.1404,10.1404,10.1289,10.289,10.289,10.289,10.289,10.289,10.289,10.289,10.289,10.289,10.289,10.289,10.3008,10.3086,10.3086,10.3711,10.539,10.6211,10.6211,10.4883,10.6093,10.6484,10.5703,10.5,10.4492,10.4219,10.3281,10.289,10.289,10.289,10.289,10.289,10.289,10.289,10.289,10.289,10.289,10.289,10.2109,10.1797,10.1719,10.1015,10.1094,10.1797,10.1797,10.2304,10.289,10.289,10.289,10.289,10.289,10.289,10.289,10.289,10.289,10.2812,10.1992,10.1289,10.0586,10.039,10.039,10.0508,10.0508,10.1719,10.2695,10.1992,10.2383,10.2695,10.1797,10.2304,10.2383,10.0781,10.1797,10.2812,10.2383,10.2695,10.2695,10.2304,10.1797,10.1289,10.039,9.9648,9.8906,9.8164,9.8086,9.8047,9.789,9.8406,9.8641,9.8485,9.8369,9.833,9.8485,9.8369,9.9104,10.0806,10.1502,10.1889,10.1889,10.1889,10.1889,10.1889,10.1889,10.1889,10.1889,10.1889,10.1889,10.1889,10.1889,10.1889,10.1889,10.1793,10.1693,10.1624,10.1516,10.1404,10.1289,10.289,10.289,10.289,10.289,10.289,10.289,10.289,10.289,10.289,10.289,10.289,10.3203,10.3906,10.3984,10.4414,10.539,10.6211,10.6914,10.7383,10.7695,10.7383,10.6601,10.6406,10.5586,10.4219,10.3281,10.289,10.289,10.289,10.289,10.289,10.289,10.289,10.289,10.289,10.289,10.289,10.2812,10.2695,10.2695,10.2617,10.2617,10.2695,10.2695,10.2812,10.289,10.289,10.289,10.289,10.289,10.289,10.289,10.289,10.289,10.289,10.2695,10.2617,10.2187,10.0703,10.0781,10.1406,10.1406,10.2187,10.289,10.2695,10.2812,10.2695,10.1797,10.2304,10.2617,10.1601,10.2187,10.3594,10.5586,10.4219,10.3398,10.4687,10.3008,10.1289,10.039,10.0195,10.0,9.9922,9.9883,9.9844,9.9726,9.964,9.9557,9.9435,9.922,9.9452,10.0187,9.9491,9.9955,10.1696,10.1812,10.1889,10.1889,10.1889,10.1889,10.1889,10.1889,10.1889,10.1889,10.1889,10.1889,10.1889,10.1889,10.1889,10.1889,10.1793,10.1693,10.1624,10.1516,10.1404,10.1289,10.4297,10.4297,10.4297,10.4297,10.4297,10.4297,10.4297,10.3906,10.3594,10.3594,10.3203,10.3203,10.4101,10.4219,10.4687,10.6015,10.6484,10.7109,10.789,10.8008,10.7812,10.7383,10.6992,10.5898,10.4219,10.3281,10.289,10.289,10.289,10.289,10.289,10.289,10.289,10.289,10.289,10.289,10.289,10.289,10.289,10.289,10.289,10.289,10.289,10.289,10.289,10.289,10.289,10.289,10.289,10.289,10.289,10.289,10.289,10.289,10.289,10.289,10.289,10.2695,10.1914,10.1992,10.2187,10.1719,10.2304,10.2812,10.2304,10.2617,10.2812,10.2383,10.2617,10.2812,10.2383,10.2617,10.3281,10.4492,10.3711,10.3203,10.3984,10.3086,10.2187,10.1719,10.1289,10.1015,10.1015,10.0586,10.0312,10.0195,9.9944,9.9775,9.9715,9.9452,9.9684,10.0613,10.069,10.1115,10.1889,10.1889,10.1889,10.1889,10.1889,10.1889,10.1889,10.1889,10.1889,10.1889,10.1889,10.1889,10.1889,10.1889,10.1889,10.1889,10.1793,10.1693,10.1624,10.1516,10.1404,10.1212,10.5508,10.5508,10.5508,10.5508,10.5508,10.5508,10.5508,10.4804,10.4219,10.4219,10.3594,10.3515,10.4414,10.4687,10.539,10.6914,10.6992,10.7304,10.8008,10.8008,10.8008,10.8008,10.6992,10.5703,10.4219,10.3281,10.289,10.289,10.289,10.289,10.289,10.289,10.289,10.289,10.289,10.289,10.289,10.289,10.289,10.289,10.289,10.289,10.289,10.289,10.289,10.289,10.289,10.289,10.289,10.289,10.289,10.289,10.289,10.289,10.289,10.289,10.289,10.289,10.289,10.289,10.2695,10.2109,10.2383,10.2695,10.2109,10.2383,10.289,10.289,10.289,10.289,10.289,10.289,10.3086,10.3711,10.3281,10.3086,10.3711,10.3281,10.289,10.289,10.2304,10.1914,10.1914,10.1289,10.0897,10.0886,10.0615,10.0397,10.038,10.011,10.0187,10.0883,10.158,10.1889,10.1889,10.1889,10.1889,10.1889,10.1889,10.1889,10.1889,10.1889,10.1889,10.1889,10.1889,10.1889,10.1889,10.1889,10.1889,10.1889,10.1826,10.1688,10.162,10.1514,10.1288,10.102,10.5508,10.5508,10.5508,10.5508,10.5508,10.5508,10.5508,10.4804,10.4219,10.4219,10.4101,10.4414,10.5312,10.6093,10.6914,10.7812,10.789,10.789,10.8008,10.8008,10.8008,10.8008,10.6484,10.5195,10.4219,10.3281,10.289,10.289,10.289,10.289,10.289,10.289,10.289,10.289,10.289,10.289,10.289,10.289,10.289,10.289,10.289,10.289,10.289,10.289,10.289,10.289,10.289,10.289,10.289,10.289,10.289,10.289,10.289,10.289,10.289,10.289,10.289,10.289,10.289,10.289,10.289,10.2812,10.289,10.289,10.2812,10.289,10.289,10.289,10.289,10.289,10.289,10.289,10.3711,10.6015,10.4414,10.3711,10.6093,10.4414,10.289,10.289,10.2812,10.2812,10.2812,10.2695,10.2718,10.2698,10.2421,10.2207,10.2191,10.1889,10.1696,10.1812,10.1889,10.1889,10.1889,10.1889,10.1889,10.1889,10.1889,10.1889,10.1889,10.1889,10.1889,10.1889,10.1889,10.1889,10.1889,10.1889,10.1889,10.1889,10.1889,10.1787,10.1688,10.162,10.1013,10.0287,10.7109,10.7109,10.7109,10.7109,10.7109,10.6914,10.6289,10.5508,10.4804,10.4297,10.4219,10.4492,10.539,10.6211,10.7109,10.789,10.8008,10.8008,10.8008,10.8008,10.7812,10.7187,10.6093,10.5117,10.4219,10.3281,10.289,10.289,10.289,10.289,10.289,10.289,10.289,10.289,10.289,10.289,10.289,10.289,10.289,10.289,10.289,10.289,10.289,10.289,10.289,10.289,10.289,10.289,10.289,10.289,10.289,10.289,10.289,10.289,10.289,10.289,10.289,10.289,10.289,10.289,10.289,10.289,10.289,10.289,10.289,10.289,10.289,10.289,10.289,10.289,10.289,10.289,10.3203,10.4219,10.3515,10.3203,10.4219,10.3515,10.289,10.289,10.289,10.289,10.289,10.289,10.291,10.2904,10.2601,10.2401,10.2384,10.2082,10.1889,10.1889,10.1889,10.1889,10.1889,10.1889,10.1889,10.1889,10.1889,10.1889,10.1889,10.1889,10.1889,10.1889,10.1889,10.1889,10.1889,10.1889,10.1889,10.1889,10.1787,10.1722,10.1581,10.0974,10.0516,9.9981,10.8008,10.8008,10.8008,10.8008,10.8008,10.7695,10.6797,10.6015,10.5312,10.4687,10.4609,10.4883,10.5781,10.6601,10.7304,10.789,10.8008,10.8008,10.8008,10.7695,10.7187,10.6406,10.5781,10.5,10.3789,10.3203,10.289,10.289,10.289,10.289,10.289,10.289,10.289,10.289,10.289,10.289,10.289,10.289,10.289,10.289,10.289,10.289,10.289,10.289,10.289,10.289,10.289,10.289,10.289,10.289,10.289,10.289,10.289,10.289,10.289,10.289,10.289,10.289,10.289,10.289,10.289,10.289,10.289,10.289,10.289,10.289,10.289,10.289,10.289,10.289,10.289,10.289,10.289,10.289,10.289,10.289,10.289,10.289,10.289,10.289,10.289,10.289,10.289,10.289,10.2882,10.2899,10.2607,10.2404,10.2307,10.2005,10.1889,10.1889,10.1889,10.1889,10.1889,10.1889,10.1889,10.1889,10.1889,10.1889,10.1889,10.1889,10.1889,10.1889,10.1889,10.1889,10.1889,10.1889,10.1889,10.1889,10.1787,10.1606,10.1195,10.0511,9.9861,9.9172,10.8008,10.8008,10.8008,10.8008,10.8008,10.7695,10.6797,10.6015,10.5508,10.5508,10.5508,10.5781,10.6601,10.75,10.8008,10.8008,10.8008,10.8008,10.8008,10.7187,10.6289,10.5508,10.5508,10.4687,10.289,10.289,10.289,10.289,10.289,10.289,10.289,10.289,10.289,10.289,10.289,10.289,10.289,10.289,10.289,10.289,10.289,10.289,10.289,10.289,10.289,10.289,10.289,10.289,10.289,10.289,10.289,10.289,10.289,10.289,10.289,10.289,10.289,10.289,10.289,10.289,10.289,10.289,10.289,10.289,10.289,10.289,10.289,10.289,10.289,10.289,10.289,10.289,10.289,10.289,10.289,10.289,10.289,10.289,10.289,10.289,10.289,10.289,10.289,10.289,10.289,10.289,10.2713,10.25,10.2082,10.2005,10.1889,10.1889,10.1889,10.1889,10.1889,10.1889,10.1889,10.1889,10.1889,10.1889,10.1889,10.1889,10.1889,10.1889,10.1889,10.1889,10.1889,10.1889,10.1889,10.1889,10.1889,10.1284,10.0524,10.0308,9.9162,9.7704,10.6992,10.7109,10.7304,10.789,10.75,10.6797,10.6015,10.5703,10.5312,10.4687,10.5586,10.6406,10.6719,10.75,10.8008,10.8008,10.8008,10.7695,10.7109,10.6289,10.5508,10.4609,10.4609,10.4101,10.289,10.289,10.289,10.289,10.289,10.289,10.289,10.289,10.289,10.289,10.289,10.289,10.289,10.289,10.289,10.289,10.289,10.289,10.289,10.289,10.289,10.289,10.289,10.289,10.289,10.289,10.289,10.289,10.289,10.289,10.289,10.289,10.289,10.289,10.289,10.289,10.289,10.289,10.289,10.289,10.289,10.289,10.289,10.289,10.289,10.289,10.289,10.289,10.289,10.289,10.289,10.289,10.289,10.289,10.289,10.289,10.289,10.289,10.289,10.289,10.2882,10.2899,10.2607,10.2288,10.1997,10.1889,10.1889,10.1889,10.1889,10.1889,10.1889,10.1889,10.1889,10.1889,10.1889,10.1889,10.1889,10.1889,10.1889,10.1889,10.1889,10.1889,10.1889,10.1889,10.1889,10.1812,10.1193,10.0672,10.0192,9.8962,9.8125,9.7479,10.6093,10.6484,10.6914,10.7383,10.7304,10.6914,10.6093,10.6015,10.5781,10.5312,10.6093,10.6797,10.7187,10.7695,10.8008,10.8008,10.7695,10.6992,10.5781,10.5312,10.4609,10.3711,10.3711,10.3398,10.289,10.289,10.289,10.289,10.289,10.289,10.289,10.289,10.289,10.289,10.289,10.289,10.289,10.289,10.289,10.289,10.289,10.289,10.289,10.289,10.289,10.289,10.289,10.289,10.289,10.289,10.289,10.289,10.289,10.289,10.289,10.289,10.289,10.289,10.289,10.289,10.289,10.289,10.289,10.289,10.289,10.289,10.289,10.289,10.289,10.289,10.289,10.289,10.289,10.289,10.289,10.289,10.289,10.289,10.289,10.289,10.289,10.289,10.289,10.289,10.2884,10.2889,10.2591,10.2395,10.2114,10.2005,10.2005,10.1889,10.1889,10.1889,10.1889,10.1889,10.1889,10.1889,10.1889,10.1889,10.1889,10.1889,10.1889,10.1889,10.1889,10.1889,10.1889,10.1889,10.1696,10.1309,10.0813,10.0022,9.9193,9.8156,9.7473,9.698,10.539,10.6015,10.6484,10.6601,10.7187,10.75,10.6719,10.6719,10.6719,10.6719,10.6797,10.7109,10.789,10.8008,10.8008,10.789,10.6992,10.5781,10.4297,10.4101,10.3711,10.289,10.289,10.289,10.289,10.289,10.289,10.289,10.289,10.289,10.289,10.289,10.289,10.289,10.289,10.289,10.289,10.289,10.289,10.289,10.289,10.289,10.289,10.289,10.289,10.289,10.289,10.289,10.289,10.289,10.289,10.289,10.289,10.289,10.289,10.289,10.289,10.289,10.289,10.289,10.289,10.289,10.289,10.289,10.289,10.289,10.289,10.289,10.289,10.289,10.289,10.289,10.289,10.289,10.289,10.289,10.289,10.289,10.289,10.289,10.289,10.289,10.289,10.289,10.289,10.289,10.269,10.2504,10.2376,10.2191,10.2005,10.1889,10.1889,10.1889,10.1889,10.1889,10.1889,10.1889,10.1889,10.1889,10.1889,10.1889,10.1889,10.1889,10.1889,10.1889,10.1889,10.1812,10.1309,10.0613,10.0402,9.9222,9.777,9.7623,9.7015,9.6288,10.4297,10.4609,10.5,10.5586,10.5898,10.6015,10.5781,10.6289,10.6719,10.6719,10.7304,10.7812,10.8008,10.8008,10.7695,10.6992,10.5586,10.4609,10.4219,10.3594,10.3086,10.289,10.289,10.289,10.289,10.289,10.289,10.289,10.289,10.289,10.289,10.289,10.289,10.289,10.289,10.289,10.289,10.289,10.289,10.289,10.289,10.289,10.289,10.289,10.289,10.289,10.289,10.289,10.289,10.289,10.289,10.289,10.289,10.289,10.289,10.289,10.289,10.289,10.289,10.289,10.289,10.289,10.289,10.289,10.289,10.289,10.289,10.289,10.289,10.289,10.289,10.289,10.289,10.289,10.289,10.289,10.289,10.289,10.289,10.289,10.289,10.289,10.289,10.289,10.2812,10.2695,10.2597,10.2476,10.2178,10.2107,10.2005,10.1889,10.1889,10.1889,10.1889,10.1889,10.1889,10.1889,10.1889,10.1889,10.1889,10.1889,10.1889,10.1889,10.1889,10.1889,10.1812,10.1193,10.0697,10.0402,9.8979,9.8146,9.7623,9.6933,9.6515,9.6288,10.3515,10.3906,10.4297,10.4804,10.5195,10.5586,10.6015,10.6406,10.6797,10.7304,10.7695,10.8008,10.8008,10.7617,10.6914,10.5586,10.4687,10.3984,10.3594,10.3203,10.289,10.289,10.289,10.289,10.289,10.289,10.289,10.289,10.289,10.289,10.289,10.289,10.289,10.289,10.289,10.289,10.289,10.289,10.289,10.289,10.289,10.289,10.289,10.289,10.289,10.289,10.289,10.289,10.289,10.289,10.289,10.289,10.289,10.289,10.289,10.289,10.289,10.289,10.289,10.289,10.289,10.289,10.289,10.289,10.289,10.289,10.289,10.289,10.289,10.289,10.289,10.289,10.289,10.289,10.289,10.289,10.289,10.289,10.289,10.289,10.289,10.289,10.289,10.289,10.289,10.2812,10.2685,10.2507,10.2322,10.2216,10.2005,10.1889,10.1889,10.1889,10.1889,10.1889,10.1889,10.1889,10.1889,10.1889,10.1889,10.1889,10.1889,10.1889,10.1889,10.1696,10.1193,10.0806,10.0117,9.9172,9.8212,9.7534,9.701,9.6551,9.6325,9.6288,10.289,10.3515,10.3984,10.3984,10.4687,10.5508,10.6211,10.6406,10.6797,10.7695,10.7812,10.7812,10.7812,10.6914,10.5703,10.4297,10.4101,10.3711,10.289,10.289,10.289,10.289,10.289,10.289,10.289,10.289,10.289,10.289,10.289,10.289,10.289,10.289,10.289,10.289,10.289,10.289,10.289,10.289,10.289,10.289,10.289,10.289,10.289,10.289,10.289,10.289,10.289,10.289,10.289,10.289,10.289,10.289,10.289,10.289,10.289,10.289,10.289,10.289,10.289,10.289,10.289,10.289,10.289,10.289,10.289,10.289,10.289,10.289,10.289,10.289,10.289,10.289,10.289,10.289,10.289,10.289,10.289,10.289,10.289,10.289,10.289,10.289,10.289,10.289,10.289,10.289,10.2693,10.2511,10.2401,10.2216,10.2005,10.1889,10.1889,10.1889,10.1889,10.1889,10.1889,10.1889,10.1889,10.1889,10.1889,10.1889,10.1889,10.1889,10.1696,10.1309,10.0613,10.0303,9.9267,9.7897,9.7645,9.708,9.6394,9.6325,9.6288,9.6288,10.289,10.3008,10.3086,10.3086,10.3789,10.4414,10.4492,10.5195,10.6015,10.6797,10.6914,10.6914,10.6914,10.5508,10.4414,10.4219,10.3515,10.3008,10.289,10.289,10.289,10.289,10.289,10.289,10.289,10.289,10.289,10.289,10.289,10.289,10.289,10.289,10.289,10.289,10.289,10.289,10.289,10.289,10.289,10.289,10.289,10.289,10.289,10.289,10.289,10.289,10.289,10.289,10.289,10.289,10.289,10.289,10.289,10.289,10.289,10.289,10.289,10.289,10.289,10.289,10.289,10.289,10.289,10.289,10.289,10.289,10.289,10.289,10.289,10.289,10.289,10.289,10.289,10.289,10.289,10.289,10.289,10.289,10.289,10.289,10.289,10.289,10.289,10.289,10.289,10.289,10.2693,10.2492,10.2397,10.2222,10.2005,10.1889,10.1889,10.1889,10.1889,10.1889,10.1889,10.1889,10.1889,10.1889,10.1889,10.1889,10.1889,10.1889,10.1077,10.069,10.0496,9.9027,9.823,9.782,9.6989,9.654,9.6394,9.6325,9.6288,9.6288,10.289,10.289,10.289,10.289,10.3203,10.3594,10.4101,10.4492,10.5117,10.5898,10.6015,10.6015,10.6015,10.4883,10.3984,10.3515,10.3086,10.289,10.289,10.289,10.289,10.289,10.289,10.289,10.289,10.289,10.289,10.289,10.289,10.289,10.289,10.289,10.289,10.289,10.289,10.289,10.289,10.289,10.289,10.289,10.289,10.289,10.289,10.289,10.289,10.289,10.289,10.289,10.289,10.289,10.289,10.289,10.289,10.289,10.289,10.289,10.289,10.289,10.289,10.289,10.289,10.289,10.289,10.289,10.289,10.289,10.289,10.289,10.289,10.289,10.289,10.289,10.289,10.289,10.289,10.289,10.289,10.289,10.289,10.289,10.289,10.289,10.289,10.289,10.289,10.289,10.2607,10.2487,10.2384,10.2082,10.2005,10.1889,10.1889,10.1889,10.1889,10.1889,10.1889,10.1889,10.1889,10.1889,10.1889,10.1889,10.158,10.1193,10.0806,10.011,9.9143,9.8408,9.7728,9.7163,9.668,9.6429,9.6361,9.6288,9.6288,9.6288]},{"header":{"parameterUnit":"m.s-1","parameterCategory":1,"la1":30.6,"la2":28.766,"lo1":-90.7593,"lo2":-88.6598,"dx":0.0162,"dy":0.0183,"nx":116,"ny":114,"refTime":"2022-11-11T18:00:00:Z","depth":0,"parameterNumber":3,"parameterNumberName":"V-component_of_WINDS"},"data":[0.0,0.0,0.0,0.0,0.0,0.0,0.0,0.0,0.0,0.0,0.0,0.0,0.0,0.0,0.0,0.0,0.0,0.0,0.0,0.0,0.0,0.0,0.0,0.0,0.0,0.0,0.0,0.0,0.0,0.0,0.0,0.0,0.0,0.0,0.0,0.0,0.0,0.0,0.0,0.0,0.0,0.0,0.0,0.0,0.0,0.0,0.0,0.0,0.0,0.0,0.0,0.0,0.0,0.0,0.0,0.0,0.0,0.0,0.0,0.0,0.0,0.0,0.0,0.0,0.0,0.0,0.0,0.0,0.0,0.0,0.0,0.0,0.0,0.0,0.0,0.0,0.0,0.0,0.0,0.0,0.0,0.0,0.0,0.0,0.0,0.0,0.0,0.0,0.0,0.0,0.0,0.0,0.0,0.0,0.0,0.0,0.0,0.0,0.0,0.0,0.0,0.0,0.0,0.0,0.0,0.0,0.0,0.0,0.0,0.0,0.0,0.0,0.0,0.0,0.0,0.0,0.0,0.0,0.0,0.0,0.0,0.0,0.0,0.0,0.0,0.0,0.0,0.0,0.0,0.0,0.0,0.0,0.0,0.0,0.0,0.0,0.0,0.0,0.0,0.0,0.0,0.0,0.0,0.0,0.0,0.0,0.0,0.0,0.0,0.0,0.0,0.0,0.0,0.0,0.0,0.0,0.0,0.0,0.0,0.0,0.0,0.0,0.0,0.0,0.0,0.0,0.0,0.0,0.0,0.0,0.0,0.0,0.0,0.0,0.0,0.0,0.0,0.0,0.0,0.0,0.0,0.0,0.0,0.0,0.0,0.0,0.0,0.0,0.0,0.0,0.0,0.0,0.0,0.0,0.0,0.0,0.0,0.0,0.0,0.0,0.0,0.0,0.0,0.0,0.0,0.0,0.0,0.0,0.0,0.0,0.0,0.0,0.0,0.0,0.0,0.0,0.0,0.0,0.0,0.0,0.0,0.0,0.0,0.0,0.0,0.0,0.0,0.0,0.0,0.0,0.0,0.0,0.0,0.0,0.0,0.0,0.0,0.0,0.0,0.0,0.0,0.0,0.0,0.0,0.0,0.0,0.0,0.0,0.0,0.0,0.0,0.0,0.0,0.0,0.0,0.0,0.0,0.0,0.0,0.0,0.0,0.0,0.0,0.0,0.0,0.0,0.0,0.0,0.0,0.0,0.0,0.0,0.0,0.0,0.0,0.0,0.0,0.0,0.0,0.0,0.0,0.0,0.0,0.0,0.0,0.0,0.0,0.0,0.0,0.0,0.0,0.0,0.0,0.0,0.0,0.0,0.0,0.0,0.0,0.0,0.0,0.0,0.0,0.0,0.0,0.0,0.0,0.0,0.0,0.0,0.0,0.0,0.0,0.0,0.0,0.0,0.0,0.0,0.0,0.0,0.0,0.0,0.0,0.0,0.0,0.0,0.0,0.0,0.0,0.0,0.0,0.0,0.0,0.0,0.0,0.0,0.0,0.0,0.0,0.0,0.0,0.0,0.0,0.0,0.0,0.0,0.0,0.0,0.0,0.0,0.0,0.0,0.0,0.0,0.0,0.0,0.0,0.0,0.0,0.0,0.0,0.0,0.0,0.0,0.0,0.0,0.0,0.0,0.0,0.0,0.0,0.0,0.0,0.0,0.0,0.0,0.0,0.0,0.0,0.0,0.0,0.0,0.0,0.0,0.0,0.0,0.0,0.0,0.0,0.0,0.0,0.0,0.0,0.0,0.0,0.0,0.0,0.0,0.0,0.0,0.0,0.0,0.0,0.0,0.0,0.0,0.0,0.0,0.0,0.0,0.0,0.0,0.0,0.0,0.0,0.0,0.0,0.0,0.0,0.0,0.0,0.0,0.0,0.0,0.0,0.0,0.0,0.0,0.0,0.0,0.0,0.0,0.0,0.0,0.0,0.0,0.0,0.0,0.0,0.0,0.0,0.0,0.0,0.0,0.0,0.0,0.0,0.0,0.0,0.0,0.0,0.0,0.0,0.0,0.0,0.0,0.0,0.0,0.0,0.0,0.0,0.0,0.0,0.0,0.0,0.0,0.0,0.0,0.0,0.0,0.0,0.0,0.0,0.0,0.0,0.0,0.0,0.0,0.0,0.0,0.0,0.0,0.0,0.0,0.0,0.0,0.0,0.0,0.0,0.0,0.0,0.0,0.0,0.0,0.0,0.0,0.0,0.0,0.0,0.0,0.0,0.0,0.0,0.0,0.0,0.0,0.0,0.0,0.0,0.0,0.0,0.0,0.0,0.0,0.0,0.0,0.0,0.0,0.0,0.0,0.0,0.0,0.0,0.0,0.0,0.0,0.0,0.0,0.0,0.0,0.0,0.0,0.0,0.0,0.0,0.0,0.0,0.0,0.0,0.0,0.0,0.0,0.0,0.0,0.0,0.0,0.0,0.0,0.0,0.0,0.0,0.0,0.0,0.0,0.0,0.0,0.0,0.0,0.0,0.0,0.0,0.0,0.0,0.0,0.0,0.0,0.0,0.0,0.0,0.0,0.0,0.0,0.0,0.0,0.0,0.0,0.0,0.0,0.0,0.0,0.0,0.0,0.0,0.0,0.0,0.0,0.0,0.0,0.0,0.0,0.0,0.0,0.0,0.0,0.0,0.0,0.0,0.0,0.0,0.0,0.0,0.0,0.0,0.0,0.0,0.0,0.0,0.0,0.0,0.0,0.0,0.0,0.0,0.0,0.0,0.0,0.0,0.0,0.0,0.0,0.0,0.0,0.0,0.0,0.0,0.0,0.0,0.0,0.0,0.0,0.0,0.0,0.0,0.0,0.0,0.0,0.0,0.0,0.0,0.0,0.0,0.0,0.0,0.0,0.0,0.0,0.0,0.0,0.0,0.0,0.0,0.0,0.0,0.0,0.0,0.0,0.0,0.0,0.0,0.0,0.0,0.0,0.0,0.0,0.0,0.0,0.0,0.0,0.0,0.0,0.0,0.0,0.0,0.0,0.0,0.0,0.0,0.0,0.0,0.0,0.0,0.0,0.0,0.0,0.0,0.0,0.0,0.0,0.0,0.0,0.0,0.0,0.0,0.0,0.0,0.0,0.0,0.0,0.0,0.0,0.0,0.0,0.0,0.0,0.0,0.0,0.0,0.0,0.0,0.0,0.0,0.0,0.0,0.0,0.0,0.0,0.0,0.0,0.0,0.0,0.0,0.0,0.0,0.0,0.0,0.0,0.0,0.0,0.0,0.0,0.0,0.0,0.0,0.0,0.0,0.0,0.0,0.0,0.0,0.0,0.0,0.0,0.0,0.0,0.0,0.0,0.0,0.0,0.0,0.0,0.0,0.0,0.0,0.0,0.0,0.0,0.0,0.0,0.0,0.0,0.0,0.0,0.0,0.0,0.0,0.0,0.0,0.0,0.0,0.0,0.0,0.0,0.0,0.0,0.0,0.0,0.0,0.0,0.0,0.0,0.0,0.0,0.0,0.0,0.0,0.0,0.0,0.0,0.0,0.0,0.0,0.0,0.0,0.0,0.0,0.0,0.0,0.0,0.0,0.0,0.0,0.0,0.0,0.0,0.0,0.0,0.0,0.0,0.0,0.0,0.0,0.0,0.0,0.0,0.0,0.0,0.0,0.0,0.0,0.0,0.0,0.0,0.0,0.0,0.0,0.0,0.0,0.0,0.0,0.0,0.0,0.0,0.0,0.0,0.0,0.0,0.0,0.0,0.0,0.0,0.0,0.0,0.0,0.0,0.0,0.0,0.0,0.0,0.0,0.0,0.0,0.0,0.0,0.0,0.0,0.0,0.0,0.0,0.0,0.0,0.0,0.0,0.0,0.0,0.0,0.0,0.0,0.0,0.0,0.0,0.0,0.0,0.0,0.0,0.0,0.0,0.0,0.0,0.0,0.0,0.0,0.0,0.0,0.0,0.0,0.0,0.0,0.0,0.0,0.0,0.0,0.0,0.0,0.0,0.0,0.0,0.0,0.0,0.0,0.0,0.0,0.0,0.0,0.0,0.0,0.0,0.0,0.0,0.0,0.0,0.0,0.0,0.0,0.0,0.0,0.0,0.0,0.0,0.0,0.0,0.0,0.0,0.0,0.0,0.0,0.0,0.0,0.0,0.0,0.0,0.0,0.0,0.0,0.0,0.0,0.0,0.0,0.0,0.0,0.0,0.0,0.0,0.0,0.0,0.0,0.0,0.0,0.0,0.0,0.0,0.0,0.0,0.0,0.0,0.0,0.0,0.0,0.0,0.0,0.0,0.0,0.0,0.0,0.0,0.0,0.0,0.0,0.0,0.0,0.0,0.0,0.0,0.0,0.0,0.0,0.0,0.0,0.0,0.0,0.0,0.0,0.0,0.0,0.0,0.0,0.0,0.0,0.0,0.0,0.0,0.0,0.0,0.0,0.0,0.0,0.0,0.0,0.0,0.0,0.0,0.0,0.0,0.0,0.0,0.0,0.0,0.0,0.0,0.0,0.0,0.0,0.0,0.0,0.0,0.0,0.0,0.0,0.0,0.0,0.0,0.0,0.0,0.0,0.0,0.0,0.0,0.0,0.0,0.0,0.0,0.0,0.0,0.0,0.0,0.0,0.0,0.0,0.0,0.0,0.0,0.0,0.0,0.0,0.0,0.0,0.0,0.0,0.0,0.0,0.0,0.0,0.0,0.0,0.0,0.0,0.0,0.0,0.0,0.0,0.0,0.0,0.0,0.0,0.0,0.0,0.0,0.0,0.0,0.0,0.0,0.0,0.0,0.0,0.0,0.0,0.0,0.0,0.0,0.0,0.0,0.0,0.0,0.0,0.0,0.0,0.0,0.0,0.0,0.0,0.0,0.0,0.0,0.0,0.0,0.0,0.0,0.0,0.0,0.0,0.0,0.0,0.0,0.0,0.0,0.0,0.0,0.0,0.0,0.0,0.0,0.0,0.0,0.0,0.0,0.0,0.0,0.0,0.0,0.0,0.0,0.0,0.0,0.0,0.0,0.0,0.0,0.0,0.0,0.0,0.0,0.0,0.0,0.0,0.0,0.0,0.0,0.0,0.0,0.0,0.0,0.0,0.0,0.0,0.0,0.0,0.0,0.0,0.0,0.0,0.0,0.0,0.0,0.0,0.0,0.0,0.0,0.0,0.0,0.0,0.0,0.0,0.0,0.0,0.0,0.0,0.0,0.0,0.0,0.0,0.0,0.0,0.0,0.0,0.0,0.0,0.0,0.0,0.0,0.0,0.0,0.0,0.0,0.0,0.0,0.0,0.0,0.0,0.0,0.0,0.0,0.0,0.0,0.0,0.0,0.0,0.0,0.0,0.0,0.0,0.0,0.0,0.0,0.0,0.0,0.0,0.0,0.0,0.0,0.0,0.0,0.0,0.0,0.0,0.0,0.0,0.0,0.0,0.0,0.0,0.0,0.0,0.0,0.0,0.0,0.0,0.0,0.0,0.0,0.0,0.0,0.0,0.0,0.0,0.0,0.0,0.0,0.0,0.0,0.0,0.0,0.0,0.0,0.0,0.0,0.0,0.0,0.0,0.0,0.0,0.0,0.0,0.0,0.0,0.0,0.0,0.0,0.0,0.0,0.0,0.0,0.0,0.0,0.0,0.0,0.0,0.0,0.0,0.0,0.0,0.0,0.0,0.0,0.0,0.0,0.0,0.0,0.0,0.0,0.0,0.0,0.0,0.0,0.0,0.0,0.0,0.0,0.0,0.0,0.0,0.0,0.0,0.0,0.0,0.0,0.0,0.0,0.0,0.0,0.0,0.0,0.0,0.0,0.0,0.0,0.0,0.0,0.0,0.0,0.0,0.0,0.0,0.0,0.0,0.0,0.0,0.0,0.0,0.0,0.0,0.0,0.0,0.0,0.0,0.0,0.0,0.0,0.0,0.0,0.0,0.0,0.0,0.0,0.0,0.0,0.0,0.0,0.0,0.0,0.0,0.0,0.0,0.0,0.0,0.0,0.0,0.0,0.0,0.0,0.0,0.0,0.0,0.0,0.0,0.0,0.0,0.0,0.0,0.0,0.0,0.0,0.0,0.0,0.0,0.0,0.0,0.0,0.0,0.0,0.0,0.0,0.0,0.0,0.0,0.0,0.0,0.0,0.0,0.0,0.0,0.0,-1.1124,-1.0541,0.0,0.0,0.0,0.0,0.0,0.0,0.0,0.0,0.0,0.0,0.0,0.0,0.0,0.0,0.0,0.0,0.0,0.0,0.0,0.0,0.0,0.0,0.0,-0.66,-0.6661,-0.6586,-0.6647,0.0,0.0,0.0,0.0,0.0,0.0,0.0,-0.7122,-0.7346,-0.759,-0.7932,-0.7943,-0.8157,-0.8338,-0.8081,-0.7909,-0.7827,0.0,0.0,0.0,0.0,0.0,0.0,0.0,0.0,0.0,0.0,0.0,0.0,0.0,0.0,0.0,0.0,0.0,0.0,0.0,0.0,0.0,0.0,0.0,0.0,0.0,0.0,0.0,0.0,0.0,0.0,0.0,0.0,0.0,0.0,0.0,0.0,0.0,0.0,0.0,0.0,0.0,0.0,0.0,0.0,0.0,0.0,0.0,0.0,0.0,0.0,0.0,0.0,0.0,0.0,0.0,0.0,0.0,0.0,0.0,0.0,0.0,0.0,0.0,0.0,0.0,0.0,0.0,0.0,0.0,0.0,-1.1769,-1.1328,0.0,0.0,0.0,0.0,0.0,0.0,0.0,0.0,0.0,0.0,0.0,0.0,0.0,0.0,0.0,0.0,0.0,0.0,0.0,0.0,0.0,-0.6729,-0.698,-0.7054,-0.7041,-0.6939,-0.7027,-0.7095,-0.7122,-0.7075,0.0,0.0,0.0,0.0,-0.7746,-0.7896,-0.8044,-0.8285,-0.8401,-0.8482,-0.8616,-0.8836,-0.864,-0.8082,-0.7913,0.0,0.0,0.0,0.0,0.0,0.0,0.0,0.0,0.0,0.0,0.0,0.0,0.0,0.0,0.0,0.0,0.0,0.0,0.0,0.0,0.0,0.0,0.0,0.0,0.0,0.0,0.0,0.0,0.0,0.0,0.0,0.0,0.0,0.0,0.0,0.0,0.0,0.0,0.0,0.0,0.0,0.0,0.0,0.0,0.0,0.0,0.0,0.0,0.0,0.0,0.0,0.0,0.0,0.0,0.0,0.0,0.0,0.0,0.0,0.0,0.0,0.0,0.0,-1.2155,-1.2257,-1.2264,-1.244,-1.2644,-1.282,-1.2352,-1.2142,-1.2101,-1.1572,0.0,0.0,0.0,0.0,0.0,0.0,0.0,0.0,0.0,0.0,0.0,0.0,0.0,0.0,0.0,0.0,0.0,0.0,0.0,-0.7272,-0.7312,-0.7543,-0.774,-0.7855,-0.776,-0.7753,-0.7882,-0.7651,0.0,0.0,0.0,-0.8045,-0.8357,-0.8513,-0.86,-0.8717,-0.8853,-0.8768,-0.8762,-0.8795,-0.8712,-0.8513,-0.867,-0.8654,-0.8479,0.0,0.0,0.0,0.0,0.0,0.0,0.0,0.0,0.0,0.0,0.0,0.0,0.0,0.0,0.0,0.0,0.0,0.0,0.0,0.0,0.0,0.0,0.0,0.0,0.0,0.0,0.0,0.0,0.0,0.0,0.0,0.0,0.0,0.0,0.0,0.0,0.0,0.0,0.0,0.0,0.0,-1.0304,-1.0202,0.0,0.0,0.0,0.0,0.0,0.0,0.0,0.0,0.0,0.0,0.0,0.0,0.0,-1.1694,-1.1972,-1.2142,-1.2291,-1.242,-1.2827,-1.3024,-1.3037,-1.3322,-1.3403,-1.3315,-1.337,0.0,-1.2427,-1.2223,0.0,0.0,0.0,0.0,0.0,0.0,0.0,0.0,0.0,0.0,0.0,0.0,0.0,0.0,0.0,0.0,0.0,0.0,0.0,0.0,0.0,-0.8038,-0.8194,-0.852,-0.8486,-0.8472,-0.854,-0.8425,0.0,0.0,-0.8506,-0.8642,-0.8852,-0.8944,-0.9004,-0.8878,-0.9058,-0.9076,-0.8976,-0.9111,-0.9144,-0.9084,-0.9209,-0.8927,-0.8341,-0.8553,0.0,0.0,0.0,0.0,0.0,0.0,0.0,0.0,0.0,0.0,0.0,0.0,0.0,0.0,0.0,0.0,0.0,0.0,0.0,0.0,0.0,0.0,0.0,0.0,0.0,0.0,0.0,0.0,0.0,0.0,0.0,0.0,0.0,0.0,0.0,0.0,0.0,0.0,0.0,-1.031,-1.0595,-1.0534,-1.0731,-1.0806,0.0,0.0,0.0,0.0,0.0,0.0,0.0,0.0,0.0,-1.2203,-1.2318,-1.2515,-1.2813,-1.2881,-1.299,-1.3139,-1.2919,-1.3012,-1.3105,-1.2978,-1.2911,-1.2917,-1.2904,-1.2771,-1.2516,-1.2702,-1.2651,-1.2596,0.0,0.0,0.0,0.0,-1.2271,-1.2325,0.0,0.0,0.0,0.0,0.0,0.0,0.0,0.0,0.0,0.0,0.0,0.0,-0.8438,-0.8492,-0.8628,-0.8967,-0.8994,-0.9008,-0.9049,-0.9089,-0.911,-0.911,-0.9144,-0.9232,-0.9381,-0.9368,-0.9368,-0.9234,-0.9352,-0.9367,-0.9318,-0.9492,-0.9563,-0.9536,-0.9536,-0.9101,-0.8378,-0.8666,-0.832,-0.7845,0.0,0.0,0.0,0.0,0.0,0.0,0.0,0.0,0.0,0.0,0.0,0.0,0.0,0.0,0.0,0.0,0.0,0.0,0.0,0.0,0.0,0.0,0.0,0.0,0.0,0.0,0.0,0.0,0.0,0.0,0.0,0.0,0.0,0.0,0.0,0.0,0.0,-1.0744,-1.1002,-1.1002,-1.1199,-1.126,0.0,0.0,0.0,0.0,0.0,0.0,-1.2338,-1.2494,-1.2644,-1.2786,-1.2849,-1.309,-1.3345,-1.3177,-1.3257,-1.3402,-1.2985,-1.2841,-1.2949,-1.257,-1.2667,-1.2716,-1.2661,-1.2667,-1.2674,-1.2906,-1.3097,-1.3258,-1.3091,-1.3071,-1.322,-1.3159,-1.3132,-1.318,0.0,0.0,0.0,0.0,0.0,0.0,0.0,0.0,0.0,0.0,0.0,-0.8608,-0.8492,-0.8859,-0.9117,-0.9144,-0.9144,-0.9205,-0.9347,-0.9496,-0.9578,-0.9578,-0.9707,-0.9849,-0.9998,-0.9795,-0.9787,-0.9877,-0.9728,-0.9704,-0.9802,-0.9813,-0.9764,-0.9661,-0.9661,-0.9503,-0.9226,-0.9008,-0.8708,-0.8563,-0.835,0.0,0.0,0.0,0.0,0.0,0.0,0.0,0.0,0.0,0.0,0.0,0.0,0.0,0.0,0.0,0.0,0.0,0.0,0.0,0.0,0.0,0.0,0.0,0.0,0.0,0.0,0.0,0.0,0.0,0.0,0.0,0.0,0.0,0.0,0.0,0.0,0.0,0.0,-1.1775,-1.1789,0.0,0.0,0.0,0.0,-1.2244,-1.2522,-1.2813,-1.3105,-1.3261,-1.3417,-1.3566,-1.3082,-1.2985,-1.3126,-1.2625,-1.2521,-1.2649,-1.2777,-1.2839,-1.2851,-1.2985,-1.2985,-1.2869,-1.2997,-1.2979,-1.2832,-1.293,-1.2927,-1.2939,-1.3425,-1.3505,-1.3403,-1.3546,-1.3593,-1.3661,0.0,0.0,0.0,-0.6681,-0.6729,-0.6817,-0.6959,-0.7244,-0.7509,-0.7706,-0.8221,-0.8689,-0.9022,-0.9293,-0.9598,-0.9978,-1.0012,-1.008,-1.0229,-1.0297,-1.0276,-1.0181,-1.0412,-1.0485,-1.0354,-1.0215,-1.0093,-0.9982,-1.003,-1.0112,-1.0074,-1.0155,-1.0172,-1.0128,-1.0047,-0.9927,-0.9769,-0.9519,-0.9258,-0.8868,-0.882,-0.852,0.0,0.0,0.0,0.0,0.0,0.0,0.0,0.0,0.0,0.0,0.0,0.0,0.0,0.0,0.0,0.0,0.0,0.0,0.0,0.0,0.0,0.0,0.0,0.0,0.0,0.0,0.0,0.0,0.0,0.0,0.0,0.0,0.0,0.0,0.0,0.0,0.0,-1.1993,-1.223,0.0,-1.2488,-1.2664,-1.284,-1.2996,-1.2867,-1.2893,-1.3082,-1.2815,-1.2696,-1.2746,-1.2828,-1.2768,-1.2904,-1.282,-1.2973,-1.3187,-1.2871,-1.28,-1.297,-1.2642,-1.2682,-1.2528,-1.2676,-1.2636,-1.2579,-1.2724,-1.2849,-1.2972,-1.3846,-1.4048,-1.3912,-1.4149,-1.4346,-1.4367,0.0,-0.6675,0.0,-0.6844,-0.6932,-0.7068,-0.7265,-0.7509,-0.7794,-0.8147,-0.854,-0.8974,-0.9476,-0.9754,-1.0066,-1.046,-1.0588,-1.067,-1.0717,-1.0812,-1.0799,-1.0649,-1.0846,-1.0741,-1.0548,-1.0498,-1.0229,-1.0199,-1.0362,-1.04,-1.0324,-1.0405,-1.0422,-1.0384,-1.034,-1.0286,-1.021,-1.0047,-0.9731,-0.9195,-0.9232,-0.8409,-0.7346,0.0,0.0,0.0,0.0,0.0,0.0,0.0,0.0,0.0,0.0,0.0,0.0,0.0,0.0,0.0,0.0,0.0,0.0,0.0,0.0,0.0,0.0,0.0,0.0,0.0,0.0,0.0,0.0,0.0,0.0,0.0,0.0,0.0,0.0,-1.1993,-1.2379,-1.223,-1.2603,-1.2901,-1.2949,-1.3016,-1.3224,-1.3372,-1.3055,-1.2841,-1.2878,-1.2842,-1.2704,-1.2612,-1.2607,-1.2604,-1.2782,-1.2689,-1.2864,-1.3116,-1.2739,-1.264,-1.2802,-1.261,-1.2439,-1.2471,-1.2433,-1.2368,-1.2286,-1.2818,-1.2818,-1.2919,-1.401,-1.4251,-1.4152,-1.4705,-1.4889,-1.4896,0.0,-0.6831,-0.6892,-0.6742,-0.6959,-0.7258,-0.7563,-0.7733,-0.8092,-0.8845,-0.9198,-0.949,-0.9795,-1.0222,-1.0493,-1.05,-1.0785,-1.09,-1.0751,-1.1016,-1.1118,-1.0853,-1.0844,-1.0878,-1.0635,-1.0653,-1.0679,-1.0558,-1.0558,-1.0558,-1.0563,-1.0563,-1.0503,-1.04,-1.0509,-1.0558,-1.0563,-1.0574,-1.0105,-0.9293,-0.9446,-0.7824,-0.5367,0.0,0.0,0.0,0.0,0.0,0.0,0.0,0.0,0.0,0.0,0.0,0.0,0.0,0.0,0.0,0.0,0.0,0.0,0.0,0.0,0.0,0.0,0.0,0.0,0.0,0.0,0.0,0.0,0.0,0.0,0.0,0.0,0.0,-1.1918,-1.2372,-1.2691,-1.2549,-1.2915,-1.3247,-1.3403,-1.3043,-1.3017,-1.3152,-1.2898,-1.282,-1.2692,-1.3059,-1.2975,-1.2716,-1.2595,-1.2668,-1.2928,-1.2361,-1.2297,-1.2542,-1.2542,-1.2542,-1.2547,-1.2547,-1.2482,-1.2379,-1.2493,-1.2411,-1.2205,-1.2898,-1.2679,-1.2378,-1.3876,-1.4442,-1.4448,-1.5006,-1.5187,-1.5208,-0.6865,-0.6987,-0.7068,-0.7027,-0.7272,-0.7536,-0.7726,-0.7977,-0.837,-0.9008,-0.9164,-0.9415,-0.993,-1.029,-1.0534,-1.0649,-1.1029,-1.1253,-1.1212,-1.1389,-1.1429,-1.1305,-1.1177,-1.1004,-1.0774,-1.0555,-1.0534,-1.0558,-1.0558,-1.0601,-1.0688,-1.0688,-1.0672,-1.0639,-1.0579,-1.0777,-1.1042,-1.0799,-1.0356,-1.0045,-0.9835,-0.9213,-0.845,0.0,0.0,0.0,0.0,0.0,0.0,0.0,0.0,0.0,0.0,0.0,0.0,0.0,0.0,0.0,0.0,0.0,0.0,0.0,0.0,0.0,0.0,0.0,0.0,0.0,0.0,0.0,0.0,0.0,0.0,0.0,-1.2657,-1.2752,-1.2515,-1.2807,-1.3078,-1.3146,-1.3032,-1.3095,-1.3343,-1.2797,-1.2687,-1.2922,-1.2479,-1.2366,-1.2431,-1.2261,-1.2152,-1.2085,-1.2046,-1.2201,-1.2361,-1.2449,-1.2422,-1.2656,-1.2656,-1.2705,-1.2792,-1.2792,-1.277,-1.2743,-1.2776,-1.2754,-1.2694,-1.2924,-1.2863,-1.2725,-1.3608,-1.3932,-1.4013,-1.4583,-1.4964,-1.5337,-0.7014,-0.7082,-0.7143,-0.7143,-0.7394,-0.7665,-0.7875,-0.8167,-0.8615,-0.934,-0.9381,-0.9598,-1.0256,-1.0541,-1.0772,-1.0982,-1.1301,-1.1538,-1.1667,-1.1816,-1.1735,-1.1409,-1.1262,-1.1118,-1.0667,-1.0583,-1.0541,-1.071,-1.071,-1.077,-1.0889,-1.0889,-1.0862,-1.0813,-1.0791,-1.097,-1.0997,-1.0942,-0.9888,-0.8165,-0.6571,-0.5734,-0.5826,-0.7544,-0.8804,-0.9775,-0.9507,-0.9452,-0.9419,-0.9144,0.0,0.0,0.0,0.0,0.0,0.0,0.0,0.0,0.0,0.0,0.0,0.0,0.0,0.0,0.0,0.0,0.0,0.0,0.0,0.0,0.0,0.0,0.0,0.0,-1.3139,-1.3275,-1.3039,-1.3211,-1.3417,-1.323,-1.3265,-1.3108,-1.3092,-1.2614,-1.2497,-1.2598,-1.2344,-1.2051,-1.2074,-1.2057,-1.1966,-1.1966,-1.208,-1.2221,-1.2395,-1.2466,-1.2596,-1.2781,-1.2781,-1.2819,-1.289,-1.289,-1.2857,-1.2814,-1.2868,-1.283,-1.2743,-1.2792,-1.2743,-1.2618,0.0,0.0,0.0,0.0,-1.5314,-1.5493,-0.7143,-0.7143,-0.7143,-0.7163,-0.7407,-0.7706,-0.8018,-0.8303,-0.8804,-0.97,-0.97,-0.9897,-1.0636,-1.086,-1.107,-1.1362,-1.1545,-1.1769,-1.2067,-1.2264,-1.2011,-1.1458,-1.1348,-1.1154,-1.0552,-1.0568,-1.0688,-1.0922,-1.0922,-1.0982,-1.1101,-1.1101,-1.1047,-1.0944,-1.1069,-1.1063,-1.096,-1.1152,-0.9206,-0.5897,-0.1684,0.0,-0.032,-0.3758,-0.7111,-0.9802,-0.9843,-0.982,-0.9893,-0.9438,0.0,0.0,0.0,0.0,0.0,0.0,0.0,0.0,0.0,0.0,0.0,0.0,0.0,0.0,0.0,0.0,0.0,0.0,0.0,0.0,0.0,0.0,0.0,0.0,-1.3553,-1.3462,-1.3526,-1.3422,-1.3389,-1.3184,-1.3267,-1.3261,-1.274,-1.2589,-1.2318,-1.2227,-1.2052,-1.1944,-1.1841,-1.2053,0.0,0.0,0.0,-1.246,-1.2683,-1.27,-1.2765,-1.289,-1.289,-1.2895,-1.2912,-1.2912,-1.2857,-1.277,-1.2879,-1.2808,-1.2623,-1.271,-1.2672,-1.2564,-1.3239,-1.3786,-1.4254,-1.5222,-1.5615,-1.5608,-0.7143,-0.7143,-0.7177,-0.7305,-0.7475,-0.774,-0.816,-0.837,-0.8804,-0.97,-0.97,-0.9897,-1.0636,-1.086,-1.107,-1.1362,-1.1633,-1.1918,-1.223,-1.2298,-1.2007,-1.147,-1.1451,-1.11,-1.0558,-1.065,-1.0775,-1.0922,-1.0922,-1.0982,-1.1101,-1.1101,-1.109,-1.1074,-1.1188,-1.1226,-1.1204,-1.0883,-1.0478,-0.9497,-0.2736,0.0,-0.0329,-0.3958,-0.5772,-0.6731,-0.9307,-1.0357,-1.0182,-0.996,-0.9758,-0.9761,-1.0139,-0.9977,0.0,0.0,0.0,0.0,0.0,0.0,0.0,0.0,0.0,0.0,0.0,0.0,0.0,0.0,0.0,0.0,0.0,0.0,0.0,-1.3553,-1.3363,-1.3223,-1.3545,-1.3242,-1.2817,-1.2777,-1.2586,-1.2542,-1.2636,-1.2152,-1.203,-1.2102,-1.196,-1.1976,-1.1955,-1.2091,-1.2172,-1.2172,-1.2292,-1.2422,-1.2569,-1.2661,-1.2765,-1.289,-1.289,0.0,-1.3037,-1.3037,-1.3069,-1.3134,-1.3162,-1.3145,-1.3096,-1.3026,-1.2873,-1.2667,-1.3177,-1.3649,-1.3914,-1.4687,-1.5069,-1.5438,-0.7143,-0.7143,-0.719,-0.7346,-0.7495,-0.7753,-0.8201,-0.833,-0.8696,-0.9598,-0.9585,-0.972,-1.0317,-1.0649,-1.0894,-1.1043,-1.1674,-1.2155,-1.2379,-1.2337,-1.2223,-1.1665,-1.1365,-1.114,-1.0645,-1.0704,-1.0857,-1.1096,-1.1096,-1.1161,-1.1281,-1.134,-1.1335,-1.1286,-1.14,-1.1422,-1.1362,-1.1202,-1.0078,-0.8046,-0.4867,-0.4302,-0.56,-0.7379,-0.7983,-0.8259,-1.0014,-1.0487,-1.0465,-1.0335,-1.0172,-1.0041,-1.0258,-1.0287,-1.0081,0.0,0.0,0.0,0.0,0.0,0.0,0.0,0.0,0.0,0.0,0.0,0.0,0.0,0.0,-1.2888,-1.3037,0.0,-1.3356,-1.3581,-1.3326,-1.2966,-1.3132,-1.2824,-1.2568,-1.2699,-1.2408,-1.2312,-1.2253,-1.214,-1.1993,-1.1987,-1.2047,-1.208,-1.208,-1.214,-1.2227,-1.2352,-1.2411,-1.2558,-1.2803,-1.2857,-1.2944,-1.3064,-1.3064,-1.3096,-1.3156,-1.3156,-1.3183,-1.3238,-1.3238,-1.3205,-1.3145,-1.3026,-1.2906,-1.2786,-1.2858,-1.328,-1.3501,-1.4069,-1.4406,-1.4532,-0.7231,-0.7231,-0.7272,-0.7394,-0.7543,-0.7794,-0.8241,-0.8289,-0.8581,-0.9449,-0.9435,-0.9517,-0.9998,-1.0399,-1.067,-1.0758,-1.1701,-1.2338,-1.2454,-1.2422,-1.2188,-1.1867,-1.14,-1.0964,-1.0732,-1.078,-1.096,-1.127,-1.1297,-1.1373,-1.1493,-1.159,-1.1596,-1.1531,-1.165,-1.1639,-1.1525,-1.1536,-0.9669,-0.6731,-0.7571,-0.9109,-1.0788,-1.0791,-1.0777,-1.0699,-1.0732,-1.0727,-1.0705,-1.0503,-1.0411,-1.0318,-1.034,-1.0291,-1.0349,-1.0526,-1.065,0.0,0.0,0.0,0.0,0.0,0.0,0.0,0.0,-1.2337,-1.2698,-1.2896,-1.3016,-1.311,-1.3125,-1.3049,-1.3133,-1.3513,-1.3059,-1.2849,-1.2806,-1.2506,-1.2261,-1.238,-1.2392,-1.2247,-1.1976,-1.2102,-1.2129,-1.2031,-1.2112,-1.2183,-1.2205,-1.2205,-1.2308,-1.2531,-1.2558,-1.2721,-1.3031,-1.3058,-1.3129,-1.3238,-1.3238,-1.3249,-1.3276,-1.3276,-1.3287,-1.3308,-1.3287,-1.3211,-1.3096,-1.2971,-1.2922,-1.2912,-1.2786,-1.2808,-1.2995,-1.3543,-1.3847,-1.3761,-0.755,-0.755,-0.7556,-0.757,-0.7692,-0.7936,-0.8391,-0.835,-0.8547,-0.9306,-0.9273,-0.9401,-0.9985,-1.0215,-1.0487,-1.0887,-1.1762,-1.2298,-1.2311,-1.2052,-1.1861,-1.1861,-1.1151,-1.0721,-1.0737,-1.0949,-1.1128,-1.127,-1.1384,-1.1498,-1.1618,-1.1629,-1.1688,-1.1781,-1.19,-1.1884,-1.1781,-1.2002,-1.1748,-1.105,-1.06,-1.0646,-1.1107,-1.0851,-1.064,-1.0688,-1.0639,-1.0492,-1.0394,-1.028,-1.0161,-1.0079,-1.0188,-1.0123,-1.0175,-1.06,-1.0319,-1.0134,-1.1163,-1.1574,-1.166,-1.1329,-1.1855,-1.2332,0.0,-1.2914,-1.3512,-1.3219,-1.3268,-1.3378,-1.2644,-1.2823,-1.2978,-1.3067,-1.2722,-1.2536,-1.277,-1.2295,-1.1841,-1.1949,-1.1966,-1.1971,-1.1987,-1.2102,-1.2167,-1.215,-1.2161,-1.2221,-1.233,-1.2335,-1.2395,-1.2531,-1.2634,-1.2759,-1.2906,-1.3015,-1.3129,-1.3238,-1.3238,-1.3298,-1.3401,-1.3401,-1.3461,-1.3558,-1.345,-1.333,-1.3211,-1.3096,-1.3047,-1.3037,-1.2917,-1.2786,-1.2847,-1.3126,-1.3661,-1.4036,-0.7597,-0.7665,-0.7726,-0.7726,-0.7773,-0.7963,-0.8411,-0.8289,-0.837,-0.9035,-0.8913,-0.896,-0.9469,-0.9815,-1.0229,-1.0772,-1.1477,-1.2013,-1.2271,-1.2204,-1.2225,-1.1977,-1.1374,-1.0937,-1.084,-1.0944,-1.1085,-1.127,-1.1324,-1.1411,-1.1536,-1.1677,-1.177,-1.1824,-1.1938,-1.1971,-1.2118,-1.2069,-1.213,-1.1939,-1.1522,-1.1166,-1.0849,-1.0824,-1.078,-1.064,-1.0699,-1.0585,0.0,-1.0351,-1.0226,-1.0134,-1.0188,-1.0215,-1.0242,-1.0456,-1.0756,-1.1083,-1.1647,-1.1599,-1.1247,-1.1126,-1.1473,-1.1963,-1.1914,-1.2721,-1.3191,-1.2916,-1.2978,-1.2752,-1.239,-1.2752,-1.2891,-1.2942,-1.235,-1.1947,-1.2202,-1.1884,-1.1774,-1.208,-1.2096,-1.2096,-1.2096,-1.214,-1.2199,-1.227,-1.2281,-1.233,-1.2455,-1.246,-1.2515,-1.2629,-1.2678,-1.283,-1.3091,-1.3145,-1.3265,-1.345,-1.3526,-1.3586,-1.3635,-1.3705,-1.3722,-1.3705,-1.358,-1.3542,-1.3531,-1.3205,-1.3151,-1.3249,-1.2988,-1.2857,-1.2797,-1.2869,-1.2976,-1.3114,-0.7719,-0.7801,-0.7875,-0.7875,-0.7875,-0.7997,-0.837,-0.8241,-0.8275,-0.875,-0.8621,-0.8655,-0.9103,-0.9517,-0.9971,-1.0493,-1.1084,-1.1626,-1.2074,-1.2187,-1.2281,-1.2001,-1.1552,-1.1282,-1.0867,-1.0867,-1.0971,-1.1177,-1.1177,-1.127,-1.146,-1.1634,-1.1737,-1.1781,-1.1862,-1.208,-1.2057,-1.198,-1.1485,-1.0421,-0.9013,-0.9389,-1.0954,-1.077,-1.0699,-1.0704,-1.0764,-1.0688,-1.0552,-1.0536,-1.0384,-1.0215,-1.028,-1.0362,-1.0433,-1.0433,-1.1059,-1.1773,-1.1754,-1.1468,-1.1158,-1.1052,-1.1384,-1.1538,-1.1744,-1.2378,-1.3029,-1.2771,-1.261,-1.2566,-1.2327,-1.2466,-1.257,-1.2483,-1.2019,-1.1742,-1.1791,-1.1828,-1.2069,-1.2161,-1.2199,-1.2221,-1.2221,-1.2221,-1.2259,-1.2346,-1.2384,-1.2471,-1.2623,-1.2602,-1.2651,-1.2803,-1.2808,-1.2944,-1.3238,-1.3303,-1.3444,-1.3656,-1.3776,-1.3836,-1.3836,-1.3917,-1.3874,-1.3732,-1.364,-1.3635,-1.3656,-1.3276,-1.3238,-1.339,-1.3096,-1.2982,-1.2971,-1.2884,-1.2759,-1.2634,-0.8024,-0.8031,-0.8031,-0.8031,-0.8031,-0.8085,-0.8255,-0.8269,-0.8323,-0.8472,-0.8486,-0.8655,-0.9103,-0.9429,-0.9741,-1.0039,-1.0622,-1.1158,-1.1613,-1.1737,-1.1767,-1.1849,-1.1499,-1.1237,-1.0742,-1.0742,-1.0802,-1.0933,-1.0933,-1.1112,-1.1455,-1.146,-1.1721,-1.1853,-1.1859,-1.1804,-1.1889,-1.209,-0.9894,-0.5898,-0.1926,-0.4831,-1.147,-1.0876,-1.0771,-1.0782,-1.0835,-1.0759,-1.059,-1.0824,-1.059,-1.0242,-1.0471,-1.0547,-1.0552,-1.0552,-1.1059,-1.1487,-1.1384,-1.1535,-1.1669,-1.1555,-1.1522,-1.1636,-1.1942,-1.2788,-1.3251,-1.2897,-1.3005,-1.2948,-1.1949,-1.1599,-1.1599,-1.1599,-1.1699,-1.193,-1.2195,-1.2278,-1.2167,-1.2172,-1.2275,-1.2346,-1.2346,-1.2346,-1.2352,-1.2357,-1.2466,-1.2629,-1.2863,-1.2765,-1.2808,-1.3053,-1.3058,-1.3118,-1.3238,-1.3477,-1.3656,-1.3781,-1.3896,-1.395,-1.395,-1.3955,-1.383,-1.3607,-1.3607,-1.3542,-1.3423,-1.3287,-1.3308,-1.3406,-1.3276,-1.3227,-1.3227,-1.3221,-1.3075,-1.2879,-0.8038,-0.8038,-0.8038,-0.8038,-0.8038,-0.8092,-0.8248,-0.8269,-0.8323,-0.8465,-0.8567,0.0,0.0,0.0,0.0,0.0,-1.0412,-1.0839,-1.1287,-1.173,-1.1792,-1.158,-1.1649,-1.1311,-1.0732,-1.0655,-1.0677,-1.0797,-1.0715,-1.0829,-1.1123,-1.1281,-1.1384,-1.1444,-0.916,-0.9509,-1.2125,-1.1863,-0.8031,-0.189,-0.0511,-0.1512,-0.4133,-0.7327,-0.8475,-0.8618,0.0,-1.0895,-1.0568,-1.065,-1.052,-1.0367,-1.0601,-1.0677,-1.0737,-1.1401,-1.1558,-1.1483,-1.1827,-1.1782,-1.155,-1.1536,-1.1542,-1.1721,-1.1848,-1.2335,-1.2426,-1.2242,-1.2337,-1.2438,-1.2295,-1.2367,-1.24,-1.2123,-1.2021,-1.2058,-1.2129,-1.2145,-1.2199,-1.2477,-1.233,-1.2384,-1.2466,-1.2477,-1.2504,-1.258,-1.2623,-1.2754,-1.2999,-1.2971,-1.302,-1.3178,-1.3259,-1.3363,-1.3482,-1.3645,-1.3787,-1.3901,-1.3939,-1.4042,-1.4195,-1.4108,-1.4031,-1.3955,-1.3955,-1.389,-1.377,-1.3651,-1.3629,-1.3645,-1.3439,-1.3412,-1.3471,-1.339,-1.3363,-1.3352,0.0,-0.8038,-0.8038,-0.8038,-0.8085,0.0,0.0,0.0,0.0,0.0,0.0,0.0,0.0,0.0,0.0,0.0,0.0,-1.0527,-1.0975,-1.1463,-1.1669,-1.1386,-1.1622,-1.1344,-1.0705,-1.0589,-1.0628,-1.0672,-1.0601,-1.0721,-1.102,-0.9797,-0.9892,-1.134,-0.9043,-0.7945,-0.7872,-0.7439,-0.4476,0.0,0.0,0.0,-0.0499,-0.5505,-0.7983,0.0,-1.0548,-1.0992,-1.0699,-1.078,-1.0677,-1.0552,-1.0791,-1.0895,-1.102,-1.1861,-1.1798,-1.1601,-1.2046,-1.1853,-1.1677,-1.1797,-1.1797,-1.1808,-1.1971,-1.2036,-1.224,-1.2053,-1.215,-1.2444,-1.2488,-1.2791,-1.2847,-1.2763,-1.2428,-1.2229,-1.2259,-1.2275,-1.2314,-1.2543,-1.2428,-1.2509,-1.2585,-1.2634,-1.2694,-1.2765,-1.2808,-1.2939,-1.3183,-1.3156,-1.3183,-1.3298,-1.3423,-1.3526,-1.3602,-1.3765,-1.3906,-1.4021,-1.4069,-1.4167,-1.432,-1.4238,-1.4178,-1.414,-1.414,-1.4069,-1.395,-1.3836,-1.3814,-1.3825,-1.358,-1.3586,-1.3716,-1.3597,-1.3656,-1.3765,0.0,0.0,-0.8038,0.0,0.0,0.0,0.0,0.0,0.0,0.0,0.0,0.0,0.0,0.0,0.0,0.0,0.0,0.0,-1.0656,-1.0968,-1.1261,-1.1392,-1.1573,-1.1324,-1.0809,-1.0687,-1.0645,-1.052,-1.0372,-1.0388,-1.0558,-0.6983,-0.7384,-1.0946,-1.0841,-0.6904,0.0,0.0,0.0,0.0,0.0,0.0,-0.0517,-0.5195,-0.8953,-1.1494,-1.1185,-1.1041,-1.0949,-1.1177,-1.1031,-1.0797,-1.1031,-1.1194,-1.1389,-1.1846,-1.1906,-1.1824,-1.1841,-1.1922,-1.2218,-1.2156,-1.2295,-1.2267,-1.2308,-1.227,-1.2188,-1.2188,-1.2281,-1.2593,-1.252,-1.2634,-1.2908,-1.2908,-1.2705,-1.2427,-1.2203,-1.246,-1.2498,-1.2384,-1.2569,-1.271,-1.2721,-1.283,-1.2901,-1.2917,-1.3009,-1.3172,-1.3406,-1.3314,-1.3303,-1.3428,-1.3548,-1.3618,-1.3624,-1.3857,-1.4031,-1.4151,-1.4265,-1.432,-1.432,-1.432,-1.4249,-1.4151,-1.4151,-1.408,-1.3966,-1.3857,-1.3874,-1.3944,-1.3722,-1.377,-1.3961,-1.3847,-1.395,-1.4097,0.0,0.0,0.0,0.0,0.0,0.0,0.0,0.0,0.0,0.0,0.0,0.0,0.0,0.0,0.0,0.0,0.0,0.0,-1.0202,-1.0609,-1.0859,-1.0665,-1.1166,-1.1189,-1.101,-1.058,-1.0304,-1.0497,-1.0025,-0.8697,-0.6445,-0.5584,-0.4314,-0.2994,-0.301,-0.1833,0.0,0.0,0.0,0.0,0.0,0.0,-0.0161,-0.1464,-0.5881,-1.1552,-1.1493,-1.1163,-1.0997,-1.0965,-1.1009,-1.102,-1.1085,-1.1368,-1.1705,-1.1824,-1.1841,-1.1879,-1.2145,-1.2172,-1.2178,-1.239,-1.2422,-1.2411,-1.2477,-1.2466,-1.2444,-1.2444,-1.2466,-1.2526,-1.264,-1.2683,-1.2705,-1.2705,-1.2705,-1.2656,-1.2509,-1.2515,-1.2558,-1.2808,0.0,-1.2776,-1.296,-1.3004,-1.3096,-1.327,-1.3151,-1.3172,-1.3406,-1.339,-1.3433,-1.3553,-1.3678,-1.3781,-1.3868,-1.4108,-1.4238,-1.4276,-1.4205,-1.4238,-1.432,-1.4222,-1.4265,-1.4407,-1.432,-1.4249,-1.4222,-1.4195,-1.4151,-1.408,-1.4026,-1.4097,-1.4211,-1.4097,-1.414,-1.4265,0.0,0.0,0.0,0.0,0.0,0.0,0.0,0.0,0.0,0.0,0.0,0.0,0.0,0.0,0.0,0.0,0.0,0.0,0.0,-1.0283,-1.0424,-1.045,-1.0757,-1.0915,-1.0767,-1.0522,-1.0369,-1.0462,-0.9911,-0.8929,-0.7334,-0.4194,-0.1788,0.0,0.0,0.0,0.0,0.0,0.0,0.0,0.0,0.0,0.0,0.0,-0.4806,-1.1499,-1.1444,-1.1288,-1.0793,-1.0904,-1.0884,-1.1047,-1.1204,-1.1482,-1.1748,-1.1803,-1.1933,-1.2085,-1.2237,-1.2303,-1.2373,-1.2564,-1.2531,-1.2482,-1.2585,-1.2531,-1.2471,-1.2526,-1.2574,-1.2629,-1.2694,-1.2792,-1.2846,-1.2792,-1.283,-1.3007,-1.2634,-1.2656,-1.2694,-1.2902,-1.2803,-1.2922,-1.3058,-1.3118,-1.3221,-1.3406,-1.3298,-1.3303,-1.3493,-1.3504,-1.3531,-1.3602,-1.3722,-1.3841,-1.3955,-1.4195,-1.432,-1.432,-1.4309,-1.4363,-1.4477,-1.4407,-1.445,-1.4575,-1.4504,-1.4477,-1.4477,-1.4417,-1.439,-1.4363,-1.4195,-1.4249,-1.4379,-1.4205,-1.4222,-1.432,0.0,0.0,0.0,0.0,0.0,0.0,0.0,0.0,0.0,-0.9252,-0.9083,-0.9028,0.0,0.0,0.0,0.0,0.0,0.0,0.0,0.0,-1.0114,-1.0392,-1.0548,-1.0638,-1.0515,-1.037,-1.025,-1.0306,-0.9867,-0.974,-0.9611,-0.3529,-0.0482,0.0,0.0,0.0,0.0,0.0,0.0,0.0,0.0,0.0,0.0,0.0,-0.4224,-1.0117,-1.1126,-1.1026,-1.0297,-1.0552,-1.0721,-1.0954,-1.1302,-1.1514,-1.1661,-1.1803,-1.2074,-1.2319,-1.2259,-1.2395,-1.2585,-1.27,-1.2574,-1.2477,-1.2683,-1.2558,-1.2433,-1.2536,-1.2623,-1.2689,-1.27,-1.2879,-1.2999,-1.2922,-1.2988,-1.2982,-1.2803,-1.2841,-1.2852,-1.2765,-1.2939,-1.3075,-1.3091,-1.3194,-1.3314,-1.3439,-1.3444,-1.3493,-1.3597,-1.3602,-1.3602,-1.3602,-1.3722,-1.3847,-1.3977,-1.4211,-1.4336,-1.4347,-1.4461,-1.4575,-1.4646,-1.4673,-1.4689,-1.47,-1.4689,-1.4689,-1.4689,-1.4575,-1.4586,-1.4646,-1.4336,-1.4336,-1.4504,-1.4265,-1.4249,-1.432,0.0,0.0,0.0,0.0,0.0,0.0,0.0,0.0,0.0,0.0,-0.9361,-0.9218,0.0,0.0,0.0,0.0,0.0,0.0,0.0,0.0,0.0,-0.993,-1.008,-1.0176,-1.0471,-0.9984,-0.9751,-0.9926,-0.9467,-0.844,-0.6716,-0.4923,-0.2713,0.0,0.0,0.0,0.0,0.0,0.0,0.0,0.0,0.0,0.0,0.0,0.0,0.0,-0.9273,-0.9998,-0.8165,-0.9937,-1.0666,-1.0813,-1.1079,-1.1378,-1.1677,-1.1895,-1.2074,-1.2265,-1.2536,-1.2645,-1.2705,-1.2825,-1.2825,-1.2808,-1.2846,-1.2743,-1.2651,-1.2672,-1.2618,-1.2591,-1.2689,-1.2738,-1.2825,-1.3009,-1.2971,-1.2971,-1.3124,-1.2999,-1.2917,-1.2999,-1.3047,-1.3107,-1.32,-1.3319,-1.3439,-1.3564,-1.3569,-1.358,-1.3602,-1.3602,-1.3602,-1.3602,-1.3722,-1.389,-1.4108,-1.4249,-1.4379,-1.4477,-1.4586,-1.4602,-1.4532,-1.4629,-1.4727,-1.4814,-1.4716,-1.4727,-1.4814,-1.4689,-1.4657,-1.4673,-1.4602,-1.4602,-1.4629,-1.4488,-1.439,-1.432,0.0,0.0,0.0,0.0,0.0,0.0,0.0,-0.9632,-0.9836,-1.0134,-0.9917,-0.9768,-0.9829,-0.9639,-0.9557,0.0,0.0,0.0,0.0,0.0,0.0,-0.9707,-0.9781,-0.9958,-1.0256,-0.9896,-0.9683,-0.9753,0.0,-0.8418,-0.7626,-0.7161,-0.4464,0.0,0.0,0.0,0.0,0.0,0.0,0.0,0.0,0.0,0.0,0.0,0.0,0.0,-0.4181,-0.6339,-0.7803,-1.0055,-1.0788,-1.071,-1.1009,-1.1346,-1.1683,-1.1917,-1.2167,-1.2411,-1.264,-1.2754,-1.2814,-1.2873,-1.2841,-1.2808,-1.2873,-1.2748,-1.2634,-1.2694,-1.2613,-1.2553,-1.2607,-1.2716,-1.2841,-1.2955,-1.2977,-1.302,-1.3134,-1.3053,-1.2982,-1.2977,-1.314,-1.3249,-1.3238,-1.3406,-1.3542,-1.3602,-1.3602,-1.3602,-1.3602,-1.3602,-1.3662,-1.3781,-1.3906,-1.408,-1.432,-1.445,-1.4559,-1.4689,-1.4744,-1.4771,-1.4782,-1.4841,-1.4896,-1.4956,-1.4885,-1.4896,-1.4939,-1.4885,-1.4869,-1.4852,-1.4798,-1.4771,-1.476,-1.4629,-1.4515,-1.4417,0.0,0.0,0.0,0.0,0.0,0.0,-0.9822,-0.9998,-1.0202,-1.05,-1.0419,-1.027,-1.0114,-0.9863,-0.9707,0.0,0.0,0.0,0.0,0.0,0.0,0.0,-0.951,-0.9652,-0.9951,0.0,0.0,-0.9533,-0.8978,0.0,0.0,0.0,0.0,0.0,-0.0559,0.0,0.0,0.0,0.0,0.0,0.0,0.0,0.0,0.0,0.0,0.0,0.0,-0.2465,-0.6174,-0.8959,-1.0086,-1.071,-1.1009,-1.1346,-1.1683,-1.1917,-1.2248,-1.2564,-1.2672,-1.2797,-1.289,-1.289,-1.2814,-1.2765,-1.2835,-1.2689,-1.2553,-1.2618,-1.2536,-1.2466,-1.2493,-1.2667,-1.283,-1.2879,-1.2966,-1.3047,-1.3102,-1.3086,-1.3037,-1.2939,-1.3221,-1.3374,-1.3249,-1.3461,-1.3602,-1.3602,-1.3629,-1.3645,-1.3645,-1.3667,-1.3776,-1.3988,-1.4108,-1.4276,-1.4504,-1.4619,-1.4716,-1.4814,-1.4869,-1.4923,-1.4994,-1.5021,-1.5037,-1.5037,-1.5037,-1.5037,-1.5037,-1.5037,-1.5037,-1.5021,-1.4923,-1.4896,-1.4885,-1.476,-1.4629,-1.4504,0.0,0.0,0.0,0.0,0.0,0.0,-0.9964,-1.0161,-1.0365,-1.0663,-1.0568,-1.0419,-1.0276,-1.0107,-0.9849,0.0,0.0,0.0,0.0,0.0,0.0,0.0,0.0,0.0,0.0,0.0,0.0,-0.9111,-0.874,0.0,0.0,0.0,0.0,0.0,0.0,0.0,0.0,0.0,0.0,0.0,0.0,0.0,0.0,0.0,0.0,0.0,0.0,-0.031,-0.1115,-0.4471,-0.8065,-1.1108,-1.1063,-1.1346,-1.1683,-1.1917,-1.2248,-1.2564,-1.2672,-1.2797,-1.289,-1.289,-1.2879,-1.2846,-1.2743,-1.2623,-1.2509,-1.2406,-1.2292,-1.2237,-1.2352,-1.2477,-1.264,-1.2852,-1.2895,-1.2977,-1.3194,-1.3134,-1.3069,-1.3053,-1.327,-1.3374,-1.3249,-1.3461,-1.3602,-1.3602,-1.3705,-1.377,-1.377,-1.3868,-1.3983,-1.4124,-1.4238,-1.4363,-1.4504,-1.4619,-1.4673,-1.4689,-1.4912,-1.4967,-1.4869,-1.4983,-1.5037,-1.5037,-1.5037,-1.5037,-1.5037,-1.5037,-1.5037,-1.5037,-1.5021,-1.5021,-1.501,-1.4885,-1.47,-1.4504,0.0,0.0,0.0,0.0,0.0,0.0,-0.9992,-1.01,-1.0283,-1.067,-1.0588,-1.0473,-1.0412,-1.0276,-1.0039,-0.968,0.0,0.0,0.0,0.0,0.0,0.0,0.0,0.0,0.0,0.0,-0.9216,-0.9305,-0.8847,0.0,0.0,0.0,0.0,0.0,0.0,-0.1639,0.0,0.0,0.0,0.0,0.0,0.0,0.0,0.0,0.0,0.0,0.0,0.0,-0.0471,-0.3874,-0.7557,-1.087,-1.1274,-1.1362,-1.1601,-1.1987,-1.2199,-1.2357,-1.2553,-1.2689,-1.2776,-1.2776,-1.2776,-1.2765,-1.2716,-1.2558,-1.239,-1.227,-1.2145,-1.2074,-1.2123,-1.2297,-1.2504,-1.2738,-1.2901,-1.3053,-1.3216,-1.3265,-1.3254,-1.3178,-1.3385,-1.3482,-1.3363,-1.3504,-1.3635,-1.3711,-1.376,-1.3879,-1.4097,-1.408,-1.4178,-1.445,-1.4504,-1.4629,-1.4825,-1.4869,-1.4896,-1.4896,-1.4994,-1.501,-1.4967,-1.501,-1.5037,-1.5037,-1.5037,-1.5037,-1.5037,-1.5037,-1.5037,-1.5037,-1.5037,-1.5037,-1.5021,-1.4896,-1.4744,-1.4602,0.0,0.0,0.0,0.0,0.0,-0.9727,-1.0066,-1.0114,-1.0243,-1.0609,-1.0561,-1.0473,-1.0432,-1.0297,-1.0127,-0.991,-0.9523,0.0,0.0,0.0,0.0,0.0,0.0,0.0,0.0,0.0,-0.9352,-0.949,-0.9186,-0.9062,0.0,0.0,-0.8607,-0.844,0.0,0.0,0.0,0.0,0.0,0.0,0.0,0.0,0.0,0.0,0.0,0.0,0.0,0.0,0.0,0.0,0.0,-0.9025,-1.0849,-1.1264,-1.1438,-1.1884,-1.2112,-1.2265,-1.2433,-1.2591,-1.2705,-1.2705,-1.2705,-1.2689,-1.2618,-1.2444,-1.2265,-1.2145,-1.202,-1.1949,-1.1982,-1.2161,-1.2379,-1.2618,-1.2857,-1.3042,-1.3124,-1.3303,-1.3363,-1.3205,-1.3466,-1.3597,-1.3439,-1.3564,-1.3694,-1.3781,-1.3885,-1.4053,-1.4309,-1.4336,-1.4461,-1.4716,-1.4754,-1.4841,-1.4983,-1.5021,-1.5021,-1.4983,-1.5021,-1.5037,-1.5037,-1.5037,-1.5037,-1.5037,-1.5037,-1.5037,-1.5037,-1.5037,-1.5037,-1.5037,-1.5037,-1.501,-1.4967,-1.4885,-1.476,-1.4619,0.0,0.0,0.0,0.0,0.0,0.0,-1.0209,-1.0276,-1.0331,-1.0473,-1.0493,-1.0439,-1.0297,-1.0148,-1.0053,-1.0046,-0.9774,0.0,0.0,0.0,0.0,0.0,0.0,0.0,0.0,0.0,-0.9406,-0.9335,-0.9484,-0.943,-0.8943,-0.8945,-0.8819,-0.8454,0.0,0.0,0.0,0.0,0.0,0.0,0.0,0.0,0.0,0.0,0.0,0.0,0.0,0.0,0.0,0.0,0.0,0.0,0.0,-1.1009,-1.1177,-1.1536,-1.1982,-1.2352,-1.2357,-1.2526,-1.2705,-1.2705,-1.2705,-1.2645,-1.2411,-1.2265,-1.214,-1.2015,-1.19,-1.1857,-1.1966,-1.2091,-1.2254,-1.2498,-1.2738,-1.289,-1.289,-1.3194,-1.3336,-1.3102,-1.3493,-1.3689,-1.3444,-1.364,-1.3787,-1.3787,-1.4108,-1.432,-1.432,-1.4657,-1.4858,-1.4858,-1.4967,-1.4983,-1.4858,-1.4983,-1.4983,-1.4858,-1.4983,-1.5037,-1.5037,-1.5037,-1.5037,-1.5037,-1.5037,-1.5037,-1.5037,-1.5037,-1.5037,-1.5037,-1.5037,-1.4967,-1.4858,-1.4858,-1.47,-1.4504,0.0,0.0,0.0,0.0,0.0,0.0,-0.9944,-0.9964,-1.0019,-1.0168,-1.0188,-1.0215,-1.0276,-1.0141,-1.0046,-1.0046,-0.9781,0.0,0.0,0.0,0.0,0.0,0.0,0.0,0.0,-0.9435,-0.9632,-1.0009,-0.9705,-0.9703,-0.9863,-0.9199,-0.8727,-0.8429,-0.5629,-0.2685,0.0,0.0,0.0,0.0,0.0,0.0,0.0,0.0,0.0,0.0,0.0,0.0,0.0,0.0,0.0,0.0,0.0,0.0,0.0,-1.1476,-1.1737,-1.2004,-1.2085,-1.2281,-1.2466,-1.2466,-1.2466,-1.2422,-1.2265,-1.2134,-1.1987,-1.1786,-1.1721,-1.1732,-1.1851,-1.2036,-1.2254,-1.2498,-1.2868,-1.3102,-1.3026,-1.3319,-1.352,-1.3444,-1.3645,-1.3754,-1.3678,-1.3743,-1.3819,-1.3896,-1.4167,-1.439,-1.4548,-1.4744,-1.4858,-1.4858,-1.4967,-1.5021,-1.4983,-1.5021,-1.5021,-1.4983,-1.5021,-1.5037,-1.5037,-1.5037,-1.5037,-1.5037,-1.5037,-1.5037,-1.5037,-1.5037,-1.5037,-1.5021,-1.4939,-1.4885,-1.4841,-1.4673,-1.4575,-1.4488,0.0,0.0,0.0,0.0,0.0,0.0,-0.9822,-0.9822,-0.9856,-0.9951,-0.9964,-1.0019,-1.0175,-1.0053,-0.9985,-1.0046,-0.9829,0.0,0.0,0.0,0.0,0.0,0.0,0.0,-0.9605,-0.9571,-0.9815,-1.0358,-1.0303,-1.03,-1.0326,-0.9862,-0.9332,-0.875,-0.5669,-0.2699,0.0,0.0,0.0,0.0,0.0,0.0,0.0,0.0,0.0,0.0,0.0,0.0,0.0,0.0,0.0,0.0,0.0,0.0,0.0,0.0,-1.1558,-1.1786,-1.1944,-1.2134,-1.2297,-1.2341,-1.2319,-1.2254,-1.2129,-1.1976,-1.1813,-1.1667,-1.1634,-1.1672,-1.1797,-1.2015,-1.2265,-1.2553,-1.2922,-1.3151,-1.308,-1.3379,-1.3624,-1.3667,-1.37,-1.3738,-1.3781,-1.3825,-1.3879,-1.395,-1.4265,-1.4504,-1.4602,-1.4814,-1.4896,-1.4858,-1.4967,-1.5037,-1.5037,-1.5037,-1.5037,-1.5037,-1.5037,-1.5037,-1.5037,-1.5037,-1.5037,-1.5037,-1.5037,-1.5037,0.0,-1.5037,-1.501,-1.4967,-1.4885,-1.4798,-1.47,-1.4559,-1.4477,-1.4417,0.0,0.0,0.0,0.0,0.0,0.0,0.0,-0.9822,-0.9822,-0.9822,-0.9822,-0.9876,-1.0019,-0.9903,-0.9876,-1.0019,-0.9903,0.0,0.0,0.0,0.0,0.0,0.0,0.0,-0.9632,-0.9781,-1.0066,-1.0507,-1.0948,-1.1029,-1.0778,-1.077,-1.0341,-0.9203,-0.5862,-0.2718,0.0,0.0,0.0,0.0,0.0,0.0,0.0,0.0,0.0,0.0,0.0,0.0,0.0,0.0,0.0,0.0,0.0,0.0,0.0,0.0,0.0,0.0,0.0,-1.2053,-1.2183,-1.2297,-1.2248,-1.214,-1.2015,-1.1819,0.0,-1.165,-1.165,-1.1688,-1.1819,-1.2031,-1.2303,-1.2661,-1.2922,-1.3086,-1.3086,-1.3385,-1.3651,-1.3781,-1.37,-1.3678,-1.3798,-1.3906,-1.3972,-1.3983,-1.4407,-1.4629,-1.4532,-1.4852,-1.4983,-1.4869,-1.4983,-1.5037,-1.5037,-1.5037,-1.5037,-1.5037,-1.5037,-1.5037,-1.5037,-1.5037,-1.5037,-1.5037,-1.5037,-1.5037,-1.5037,-1.5021,-1.4956,-1.4858,-1.4841,-1.47,-1.4504,-1.4488,-1.4417,-1.432,0.0,0.0,0.0,0.0,0.0,0.0,0.0,0.0,0.0,0.0,-0.9822,-0.9836,-0.9869,-0.9842,-0.9836,0.0,0.0,0.0,0.0,0.0,0.0,0.0,0.0,0.0,-0.9937,-1.0093,-1.0337,-1.0663,-1.1002,-1.1185,-1.1233,-1.0803,-1.0689,-1.0595,-0.6214,-0.2718,0.0,0.0,0.0,0.0,0.0,0.0,0.0,0.0,0.0,0.0,0.0,0.0,0.0,0.0,0.0,0.0,0.0,0.0,0.0,0.0,-1.1378,-1.1509,-1.1563,0.0,-1.2036,-1.2069,-1.2123,-1.214,0.0,-1.1944,-1.1879,-1.1792,-1.1775,-1.1841,-1.2053,-1.221,-1.2428,-1.2786,-1.3042,-1.32,-1.32,-1.3433,-1.3684,-1.389,-1.389,-1.3923,-1.4042,-1.408,-1.414,-1.4222,-1.4504,-1.47,-1.4771,-1.4939,-1.5021,-1.4994,-1.5021,-1.5037,-1.5037,-1.5037,-1.5037,-1.5037,-1.5037,-1.5037,-1.5037,-1.5037,-1.5037,-1.5037,-1.5037,-1.5037,-1.5021,-1.4939,-1.4885,-1.4841,-1.4657,-1.4548,-1.4488,-1.4407,-1.4347,-1.432,0.0,0.0,0.0,0.0,0.0,0.0,0.0,0.0,0.0,0.0,-0.9822,-0.9822,-0.9822,-0.9822,-0.9822,0.0,0.0,0.0,0.0,0.0,0.0,0.0,0.0,-0.9693,-1.0148,-1.0304,-1.0622,-1.1131,-1.1362,-1.1545,-1.1694,-1.1469,-1.1286,-1.1123,-0.5008,-0.1497,0.0,0.0,0.0,0.0,0.0,0.0,0.0,0.0,0.0,0.0,0.0,-0.2284,0.0,-0.5629,-0.8327,-1.1395,0.0,0.0,0.0,0.0,-1.1275,-1.1373,-1.1373,-1.1596,-1.1851,-1.196,-1.1998,-1.2009,-1.1993,-1.1949,-1.1895,-1.183,-1.1906,-1.202,-1.2145,-1.2406,-1.2683,-1.2933,-1.3167,-1.3363,-1.3477,-1.3558,-1.3689,-1.3928,-1.3955,-1.3983,-1.4048,-1.4151,-1.4249,-1.432,-1.4586,-1.4787,-1.4858,-1.4967,-1.5037,-1.5037,-1.5037,-1.5037,-1.5037,-1.5037,-1.5037,-1.5037,-1.5037,-1.5037,-1.5037,-1.5037,-1.5037,-1.5037,-1.5037,-1.4967,-1.4869,-1.4858,-1.476,-1.4602,-1.4532,-1.4477,-1.4407,-1.4347,-1.432,-1.432,0.0,0.0,0.0,0.0,0.0,0.0,0.0,0.0,0.0,0.0,0.0,0.0,0.0,0.0,0.0,0.0,0.0,0.0,0.0,0.0,0.0,0.0,-0.9666,-0.9876,-1.0304,-1.05,-1.0928,-1.1619,-1.1809,-1.1979,-1.2128,-1.2108,-1.1649,-1.063,-0.3778,-0.041,0.0,0.0,0.0,0.0,0.0,0.0,0.0,0.0,0.0,0.0,0.0,0.0,0.0,-0.723,-0.8853,-1.1456,-1.1297,0.0,0.0,0.0,0.0,0.0,-1.127,-1.1465,-1.171,-1.1911,-1.1906,-1.1879,-1.2015,-1.1971,-1.1906,-1.1922,-1.2102,-1.2259,-1.2275,-1.2629,-1.296,-1.3102,-1.3308,-1.3526,-1.3754,-1.37,-1.3711,-1.3934,-1.3972,-1.3993,-1.401,-1.4222,-1.4363,-1.4407,-1.4689,-1.4869,-1.4885,-1.4983,-1.5037,-1.5037,-1.5037,-1.5037,-1.5037,-1.5037,-1.5037,-1.5037,-1.5037,-1.5037,-1.5037,-1.5037,-1.5037,-1.5037,-1.5021,-1.4896,-1.47,-1.4771,-1.4619,-1.4363,-1.4445,-1.4417,-1.432,-1.432,-1.432,-1.432,0.0,0.0,0.0,0.0,0.0,0.0,0.0,0.0,0.0,0.0,0.0,0.0,0.0,0.0,0.0,0.0,0.0,0.0,0.0,0.0,0.0,-0.9788,-0.991,-1.0134,-1.0453,-1.0853,-1.1246,-1.1619,-1.202,-1.2291,-1.2433,-1.2311,-1.0667,-0.7535,-0.4794,-0.2351,0.0,0.0,0.0,0.0,0.0,0.0,0.0,0.0,0.0,0.0,0.0,0.0,0.0,-0.8614,-1.0949,-1.1552,-1.155,0.0,0.0,0.0,0.0,0.0,-1.1243,-1.1525,-1.1797,-1.1835,-1.1906,-1.202,-1.2248,-1.2286,-1.2303,-1.2406,-1.2531,-1.2656,-1.2759,-1.2922,-1.3113,-1.333,-1.3482,-1.3624,-1.3765,-1.377,-1.3809,-1.3939,-1.4048,-1.4151,-1.4249,-1.439,-1.4559,-1.476,-1.4825,-1.4896,-1.501,-1.5021,-1.5037,-1.5037,-1.5037,-1.5037,-1.5037,-1.5037,-1.5037,-1.5037,-1.5037,-1.5037,-1.5037,-1.5037,-1.5037,-1.5037,-1.4923,-1.4858,-1.4814,-1.4629,-1.4532,-1.4461,-1.4379,-1.4336,-1.432,-1.432,-1.432,-1.432,0.0,0.0,0.0,0.0,0.0,0.0,0.0,0.0,0.0,0.0,0.0,0.0,0.0,0.0,0.0,0.0,0.0,0.0,0.0,0.0,-0.9856,-0.9937,-1.0093,-1.031,-1.0609,-1.1056,-1.1518,-1.1979,-1.2264,-1.2522,-1.2745,-1.2447,-1.1158,-0.8997,-0.7504,-0.5975,-0.4387,-0.1351,0.0,0.0,0.0,0.0,0.0,0.0,0.0,0.0,0.0,0.0,0.0,0.0,-0.9821,-1.1434,-1.1583,0.0,0.0,0.0,0.0,0.0,-1.1166,-1.1444,-1.1748,-1.1879,-1.2102,-1.2314,-1.2428,-1.2498,-1.2558,-1.2618,-1.2721,-1.2841,-1.2966,-1.3086,-1.3216,-1.3395,-1.358,-1.3743,-1.3863,-1.3879,-1.395,-1.4124,-1.414,-1.4205,-1.4407,-1.4532,-1.4673,-1.4841,-1.4912,-1.4983,-1.5037,-1.5037,-1.5037,-1.5037,-1.5037,-1.5037,-1.5037,-1.4967,-1.4967,-1.5037,-1.5037,-1.5037,-1.5037,-1.5037,-1.5037,-1.5037,-1.4912,-1.4787,-1.4657,-1.4548,-1.4417,-1.4309,-1.432,-1.432,-1.432,-1.432,-1.432,-1.432,0.0,0.0,0.0,0.0,0.0,0.0,0.0,0.0,0.0,0.0,0.0,0.0,0.0,0.0,0.0,0.0,0.0,0.0,0.0,-0.9822,-0.989,-1.0039,-1.0195,-1.0432,-1.0765,-1.1246,-1.1755,-1.2291,-1.2535,-1.2766,-1.2949,-1.2515,-1.1658,-1.0711,-0.97,-0.8948,-0.8423,-0.3939,-0.1213,0.0,0.0,0.0,0.0,0.0,0.0,0.0,0.0,0.0,0.0,0.0,0.0,0.0,0.0,0.0,0.0,-1.1101,-1.1123,-1.115,-1.1177,-1.1465,-1.1819,-1.2058,-1.2286,-1.2482,-1.2591,-1.2683,-1.2765,-1.2819,-1.2906,-1.3009,-1.3129,-1.3249,-1.3374,-1.352,-1.3684,-1.3836,-1.3977,-1.3999,-1.4069,-1.4249,-1.4249,-1.4292,-1.4488,-1.4629,-1.4771,-1.4885,-1.4983,-1.5037,-1.5037,-1.5037,-1.5037,-1.5037,-1.501,-1.501,-1.5037,-1.4912,-1.4912,-1.5037,-1.501,-1.501,-1.5037,-1.5037,-1.5021,-1.4983,-1.4869,-1.47,-1.4504,-1.4477,-1.4347,-1.4195,-1.4276,-1.432,-1.432,-1.432,-1.432,-1.432,0.0,0.0,0.0,0.0,0.0,0.0,0.0,0.0,0.0,0.0,0.0,0.0,0.0,0.0,0.0,0.0,0.0,0.0,0.0,-0.9822,-0.989,-1.0039,-1.0195,-1.0487,-1.0921,-1.1504,-1.1959,-1.2291,-1.2847,-1.3071,-1.2949,-1.2501,-1.1743,-1.0822,-1.0425,-0.9619,-0.8804,-0.8148,-0.4898,0.0,0.0,0.0,0.0,0.0,0.0,0.0,0.0,0.0,0.0,0.0,0.0,0.0,0.0,0.0,-1.1101,-1.1101,-1.1177,-1.1286,-1.14,-1.1775,-1.2188,-1.2439,-1.2346,-1.2314,-1.2759,-1.2868,-1.2939,-1.3156,-1.3205,-1.3249,-1.3374,-1.3493,-1.3651,-1.3879,-1.3847,-1.3868,-1.4097,-1.4124,-1.414,-1.4151,-1.4347,-1.4488,-1.4504,-1.4716,-1.4896,-1.501,-1.5037,-1.5037,-1.5037,-1.5037,-1.5037,-1.5037,-1.4923,-1.4923,-1.5037,-1.4912,-1.4912,-1.5037,-1.4923,-1.4923,-1.5037,-1.5037,-1.4983,-1.4858,-1.4744,-1.4619,-1.4488,-1.4379,-1.432,-1.4309,-1.432,-1.432,-1.432,-1.432,-1.432,-1.432,0.0,0.0,0.0,0.0,0.0,0.0,0.0,0.0,0.0,0.0,0.0,0.0,0.0,0.0,0.0,0.0,0.0,0.0,0.0,-0.9822,-0.993,-1.0181,-1.0249,-1.0534,-1.107,-1.1572,-1.2074,-1.2562,-1.2976,-1.3051,-1.2813,-1.2549,-1.1835,-1.0853,-1.0529,-0.9888,-0.8933,-0.8686,-0.7328,-0.5055,-0.1389,0.0,0.0,0.0,0.0,0.0,0.0,0.0,0.0,0.0,-0.8089,-1.1329,-1.1243,-1.1194,-1.1101,-1.1101,-1.1237,-1.1395,-1.1444,-1.1862,-1.2341,-1.258,-1.2629,-1.2683,-1.2944,-1.3113,-1.3243,-1.3336,-1.3352,-1.339,-1.3515,-1.3575,-1.3656,-1.3825,-1.3874,-1.395,-1.4108,-1.414,-1.4167,-1.4238,-1.4336,-1.445,-1.4586,-1.476,-1.4912,-1.5021,-1.5037,-1.5037,-1.5037,-1.5037,-1.501,-1.4923,-1.4956,-1.4956,-1.4923,-1.4885,-1.4912,-1.5037,-1.4994,-1.4994,-1.5037,-1.5037,-1.4967,-1.4858,-1.4727,-1.4602,-1.4488,-1.4379,-1.432,-1.432,-1.432,-1.432,-1.432,-1.432,-1.432,-1.432,0.0,0.0,0.0,0.0,0.0,0.0,0.0,0.0,0.0,0.0,0.0,0.0,0.0,0.0,0.0,0.0,0.0,0.0,-0.9808,-0.9822,-0.9958,-1.027,-1.0283,-1.0582,-1.1219,-1.1586,-1.2033,-1.2589,-1.2888,-1.2929,-1.2725,-1.2481,-1.1828,-1.0914,-1.0748,-0.9994,-0.9198,-0.8954,-0.8728,-0.8114,-0.2273,0.0,0.0,0.0,0.0,0.0,0.0,0.0,0.0,0.0,-0.8879,-1.109,-1.1194,-1.1172,-1.1118,-1.1199,-1.1389,-1.158,-1.1612,-1.2009,-1.2466,-1.2705,-1.2825,-1.2928,-1.3086,-1.3276,-1.3423,-1.3423,-1.3482,-1.3553,-1.3597,-1.3667,-1.3754,-1.3879,-1.3961,-1.4053,-1.4178,-1.4195,-1.4238,-1.4363,-1.4407,-1.4504,-1.4716,-1.4841,-1.4956,-1.5037,-1.5037,-1.5021,-1.4983,-1.4983,-1.4939,-1.4858,-1.4896,-1.4923,-1.4912,-1.4869,-1.4912,-1.5037,-1.5037,-1.5037,-1.5037,-1.5037,-1.4956,-1.4798,-1.4716,-1.4586,-1.4434,-1.4347,-1.432,-1.432,-1.432,-1.432,-1.432,-1.432,-1.432,-1.432,0.0,0.0,0.0,0.0,0.0,0.0,0.0,0.0,0.0,0.0,0.0,0.0,0.0,0.0,0.0,0.0,0.0,0.0,-0.9802,-0.9822,-0.9958,-1.0263,-1.0276,-1.0629,-1.1369,-1.1538,-1.1843,-1.2291,-1.2583,-1.2725,-1.2718,-1.2271,-1.1691,-1.1048,-1.0963,-1.0203,-0.9323,-0.9237,-0.905,-0.8036,-0.229,0.0,0.0,0.0,0.0,0.0,0.0,0.0,0.0,0.0,-1.0764,-1.0971,-1.0918,-1.0945,-1.115,-1.1406,-1.1645,-1.1846,-1.196,-1.2259,-1.2596,-1.2835,-1.289,-1.2955,-1.3189,-1.3336,-1.3423,-1.3423,-1.3618,-1.3749,-1.3629,-1.3798,-1.3999,-1.4124,-1.414,-1.4178,-1.4309,-1.432,-1.4363,-1.4488,-1.4602,-1.4716,-1.4841,-1.4967,-1.5037,-1.5037,-1.5037,-1.4983,-1.4858,-1.4858,-1.4858,-1.4858,-1.4744,-1.4787,-1.5037,-1.4912,-1.4912,-1.5037,-1.5037,-1.5037,-1.5037,-1.5037,-1.4896,-1.4673,-1.4673,-1.4532,-1.432,-1.432,-1.432,-1.432,-1.432,-1.432,-1.432,-1.432,-1.432,-1.432,0.0,0.0,0.0,0.0,0.0,0.0,0.0,0.0,0.0,0.0,0.0,0.0,0.0,0.0,0.0,0.0,0.0,0.0,-0.9802,-0.9822,-0.991,-1.0107,-1.012,-1.0371,-1.0907,-1.1382,-1.1891,-1.244,-1.2637,-1.2623,-1.242,-1.2386,-1.1315,-0.9584,-1.0773,-0.9329,-0.6268,-0.8382,-0.6739,-0.2472,-0.0747,0.0,0.0,0.0,0.0,0.0,0.0,0.0,0.0,0.0,0.0,0.0,-1.0923,-0.9899,-0.9056,-1.1051,-1.1699,-1.1982,-1.2188,-1.2569,-1.2971,-1.3205,-1.32,-1.3172,-1.333,-1.3461,-1.3575,-1.3662,-1.3738,-1.3798,-1.3841,-1.3906,-1.4026,-1.4238,-1.4195,-1.4178,-1.4309,-1.432,-1.4363,-1.4488,-1.4602,-1.4716,-1.4841,-1.4967,-1.5037,-1.5037,-1.4956,-1.4896,-1.4858,-1.4771,-1.4727,-1.4727,-1.4771,-1.4798,-1.4787,-1.4912,-1.4956,-1.4912,-1.4994,-1.5037,-1.5037,-1.5037,-1.4896,-1.4673,-1.4673,-1.4532,-1.432,-1.432,-1.432,-1.432,-1.432,-1.432,-1.432,-1.432,-1.432,-1.432,0.0,0.0,0.0,0.0,0.0,0.0,0.0,0.0,0.0,0.0,-0.9442,-0.932,0.0,0.0,0.0,0.0,0.0,0.0,-0.9802,-0.9822,-0.989,-1.0039,-1.0046,-1.0256,-1.0711,-1.1253,-1.1735,-1.2149,-1.242,-1.2467,-1.2291,-1.2433,-1.1562,-0.9932,-0.9704,-0.8634,-0.6769,-0.6006,-0.3462,0.0,0.0,0.0,0.0,0.0,0.0,0.0,0.0,0.0,0.0,0.0,0.0,0.0,-0.9153,-0.8129,-0.7984,-1.103,-1.2024,-1.2074,-1.246,-1.2814,-1.3118,-1.3303,-1.3292,-1.3287,-1.3466,-1.3526,-1.3597,-1.3754,-1.383,-1.3885,-1.3944,-1.4037,-1.414,-1.4238,-1.4222,-1.4238,-1.4309,-1.432,-1.4363,-1.4488,-1.4602,-1.4716,-1.4841,-1.4923,-1.4967,-1.4967,-1.4858,-1.476,-1.4716,-1.4689,-1.4673,-1.4673,-1.4744,-1.4771,-1.4744,-1.4896,-1.4923,-1.4858,-1.4983,-1.5037,-1.5037,-1.5037,-1.4896,-1.4673,-1.4575,-1.445,-1.432,-1.432,-1.432,-1.432,-1.432,-1.432,-1.432,-1.432,-1.432,-1.432,0.0,0.0,0.0,0.0,0.0,0.0,0.0,0.0,0.0,-0.9401,-0.9374,-0.932,0.0,0.0,0.0,-0.9354,-0.9395,-0.9517,-0.9781,-0.9815,-0.9883,-1.0025,-1.0039,-1.0256,-1.069,-1.1111,-1.1409,-1.1579,-1.2026,-1.225,-1.225,-1.2406,-1.1946,-1.1054,-0.8148,-0.7757,-0.8793,-0.2612,0.0,0.0,0.0,0.0,0.0,0.0,0.0,0.0,0.0,0.0,0.0,0.0,0.0,0.0,-0.6877,-0.6197,-0.7252,-1.1059,-1.2004,-1.2118,-1.271,-1.2977,-1.3113,-1.3227,-1.3254,-1.3319,-1.3564,-1.3558,-1.3348,-1.3332,-1.3696,-1.3787,-1.3977,-1.4167,-1.4276,-1.4167,-1.4249,-1.432,-1.432,-1.432,-1.4363,-1.4488,-1.4586,-1.47,-1.4825,-1.4841,-1.4841,-1.4841,-1.4727,-1.4619,-1.4504,-1.4602,-1.4657,-1.4673,-1.4673,-1.4727,-1.4858,-1.4858,-1.4858,-1.4858,-1.4983,-1.5037,-1.5037,-1.5037,-1.4896,-1.4657,-1.4417,-1.432,-1.432,-1.432,-1.432,-1.432,-1.432,-1.432,-1.432,-1.432,-1.432,-1.432,0.0,0.0,0.0,0.0,0.0,0.0,0.0,0.0,-0.9673,-0.9259,-0.9306,-0.932,-0.9171,-0.9123,0.0,-0.9367,-0.949,-0.9585,-0.9652,-0.9761,-0.9836,-0.9869,-0.9985,-1.0202,-1.0534,-1.0751,-1.0995,-1.126,-1.1708,-1.1932,-1.1932,-1.1907,-1.0981,-0.942,-0.739,-0.5131,-0.2941,-0.0943,0.0,0.0,0.0,0.0,0.0,0.0,0.0,0.0,0.0,0.0,0.0,0.0,0.0,0.0,-0.9845,-0.5865,-0.2757,-0.9419,-1.1879,-1.2311,-1.2613,-1.2971,-1.3232,-1.3352,-1.3401,-1.3428,-1.3488,-1.3439,-1.2951,-1.0857,-1.2277,-1.4135,-1.4108,-1.4222,-1.4309,-1.4292,-1.4309,-1.432,-1.432,-1.432,-1.4363,-1.4488,-1.4532,-1.4586,-1.47,-1.4716,-1.4716,-1.4716,-1.4602,-1.4532,-1.4504,-1.4532,-1.4575,-1.4673,-1.4673,-1.4727,-1.4858,-1.4858,-1.4858,-1.4858,-1.4983,-1.5037,-1.5037,-1.5037,-1.4896,-1.4657,-1.4417,-1.432,-1.432,-1.432,-1.432,-1.432,-1.432,-1.432,-1.432,-1.432,-1.432,-1.432,0.0,0.0,0.0,0.0,0.0,0.0,0.0,0.0,-0.9612,-0.93,-0.9334,-0.9354,-0.9273,-0.9259,0.0,0.0,-0.9523,-0.9612,-0.9612,-0.9741,-0.9856,-0.993,-1.0005,-1.0154,-1.0385,-1.0534,-1.0724,-1.0948,-1.126,-1.1518,-1.1735,-1.1665,-1.0993,-0.9822,-0.9211,-0.5868,-0.0638,-0.0161,0.0,0.0,0.0,0.0,0.0,0.0,0.0,0.0,0.0,0.0,0.0,0.0,0.0,0.0,0.0,0.0,-0.1032,-0.6793,-1.0091,-1.2036,-1.2498,-1.2884,-1.3205,-1.339,-1.345,-1.3466,-1.3488,-1.3525,-1.2654,-0.895,-1.1449,-1.4211,-1.4238,-1.4276,-1.432,-1.432,-1.432,-1.432,-1.432,-1.432,-1.432,-1.4336,-1.4379,-1.4417,-1.4417,-1.4477,-1.4504,-1.4504,-1.445,-1.4417,-1.4417,-1.4521,-1.4619,-1.4673,-1.4727,-1.4787,-1.4858,-1.4858,-1.4858,-1.4858,-1.4983,-1.501,-1.4956,-1.4885,-1.4798,-1.4657,-1.4417,-1.432,-1.432,-1.432,-1.432,-1.432,-1.432,-1.432,-1.432,-1.432,-1.432,-1.432,0.0,0.0,0.0,0.0,0.0,0.0,0.0,0.0,0.0,-0.9401,-0.9381,-0.9395,-0.9415,-0.9395,-0.9381,0.0,0.0,0.0,-0.9571,-0.9727,-0.989,-1.0046,-1.0025,-1.0093,-1.0276,-1.0371,-1.05,-1.0683,-1.0833,-1.1124,-1.1552,-1.1528,-1.1321,-1.0815,-1.1258,-0.7448,-0.0825,-0.0164,0.0,0.0,0.0,0.0,0.0,0.0,0.0,0.0,0.0,0.0,0.0,0.0,0.0,0.0,0.0,0.0,-0.0859,-0.5135,-0.8709,-1.1541,-1.2165,-1.2781,-1.3162,-1.3417,-1.2839,-1.242,-1.3327,-1.3605,-1.2069,-0.6779,-0.9041,-1.2242,-1.3885,-1.4336,-1.432,-1.432,-1.4309,-1.4292,-1.4292,-1.4265,-1.4222,-1.4124,-1.4195,-1.4222,-1.4108,-1.4195,-1.4265,-1.4265,-1.4276,-1.4292,-1.4292,-1.4532,-1.4673,-1.4673,-1.4787,-1.4869,-1.4885,-1.4869,-1.4869,-1.4885,-1.4967,-1.4956,-1.4858,-1.4716,-1.4646,-1.4629,-1.4417,-1.432,-1.432,-1.432,-1.432,-1.432,-1.432,-1.432,-1.432,-1.432,-1.432,-1.432,0.0,0.0,0.0,0.0,0.0,0.0,0.0,0.0,0.0,0.0,-0.9381,-0.9435,-0.9564,-0.9462,-0.9381,-0.9381,-0.9632,-0.9686,-0.9429,0.0,0.0,-1.0046,-0.9924,-0.9985,-1.0276,-1.0168,-1.0243,-1.0521,-1.0677,-1.0914,-1.1233,-1.0843,-1.0792,-1.1089,-1.0814,-0.8258,-0.4129,-0.1181,0.0,0.0,0.0,0.0,0.0,0.0,0.0,0.0,0.0,0.0,0.0,0.0,0.0,0.0,0.0,0.0,-0.1376,-0.8101,-1.0451,-1.1064,-1.1962,-1.2721,-1.3281,-1.3542,-1.0345,-0.8416,-1.2571,-1.3669,-1.1208,-0.2627,-0.1549,-0.4466,-1.2762,-1.4347,-1.4336,-1.432,-1.4238,-1.4167,-1.4167,-1.4069,-1.3999,-1.3983,-1.3993,-1.3999,-1.3983,-1.3993,-1.4004,-1.4004,-1.4097,-1.4167,-1.4167,-1.4488,-1.4673,-1.4673,-1.4787,-1.4912,-1.501,-1.4912,-1.4912,-1.501,-1.4923,-1.4869,-1.4841,-1.4629,-1.4532,-1.4515,-1.4379,-1.432,-1.432,-1.432,-1.432,-1.432,-1.432,-1.432,-1.432,-1.432,-1.432,-1.432,0.0,0.0,0.0,0.0,0.0,0.0,0.0,0.0,0.0,0.0,0.0,-0.9564,-0.9713,-0.9666,-0.9598,-0.9517,-0.97,-0.9768,-0.9639,-0.9829,-0.9978,-1.0046,-0.9903,-0.9924,-1.0148,-1.0086,-1.0154,-1.0371,-1.0521,-1.0833,-1.1294,-1.0662,-1.0718,-1.1176,-1.0476,-0.9411,-0.7793,-0.2374,0.0,0.0,0.0,0.0,0.0,0.0,0.0,0.0,0.0,0.0,0.0,0.0,0.0,0.0,0.0,0.0,0.0,0.0,-0.7859,-0.8644,-1.1487,-1.2759,-1.3194,-1.3609,-1.0077,-0.6515,-0.6132,-0.599,-0.4755,-0.0868,0.0,-0.1337,-0.5586,-1.071,-1.4265,-1.4265,-1.4151,-1.4053,-1.4053,-1.3999,-1.3934,-1.3868,-1.3863,-1.3836,-1.3765,-1.3819,-1.3863,-1.3863,-1.3972,-1.4069,-1.414,-1.4417,-1.4602,-1.4673,-1.4858,-1.4983,-1.5037,-1.4983,-1.4956,-1.4939,-1.4885,-1.4787,-1.4657,-1.4548,-1.4504,-1.4504,-1.4379,-1.432,-1.432,-1.432,-1.432,-1.432,-1.432,-1.432,-1.432,-1.432,-1.432,-1.432,0.0,0.0,0.0,0.0,0.0,0.0,0.0,0.0,0.0,0.0,0.0,-0.9666,-0.9802,0.0,0.0,0.0,-0.9795,-0.9897,-0.9937,-1.0005,-1.0046,-1.0046,-0.9903,-0.9876,-0.9992,-0.9992,-1.0066,-1.0222,-1.0365,-1.0724,-1.128,-1.076,-1.0791,-1.1213,-0.9478,-0.9416,-1.0154,-0.3053,0.0,0.0,0.0,0.0,0.0,0.0,0.0,0.0,0.0,0.0,0.0,0.0,0.0,0.0,0.0,0.0,0.0,0.0,0.0,-0.7933,-1.1548,-1.2759,-1.3124,-1.352,-1.0265,-0.5685,-0.1055,0.0,0.0,0.0,0.0,0.0,0.0,-0.5769,-1.1074,-1.2377,-1.2491,-1.2635,-1.3728,-1.3912,-1.3847,-1.3754,-1.3743,-1.3711,-1.3613,-1.3689,-1.3749,-1.3743,-1.3879,-1.4004,-1.408,-1.4347,-1.4559,-1.4673,-1.4885,-1.501,-1.5037,-1.501,-1.4939,-1.4858,-1.4798,-1.4673,-1.4504,-1.4477,-1.4461,-1.445,-1.4363,-1.432,-1.432,-1.432,-1.432,-1.432,-1.432,-1.432,-1.432,-1.432,-1.432,-1.432,0.0,0.0,0.0,0.0,0.0,0.0,0.0,0.0,0.0,0.0,0.0,-0.9666,-0.9802,-0.97,-0.9673,-0.9795,-0.9951,-1.01,-1.0249,-1.0127,-1.0046,-1.0046,-0.9903,0.0,-0.9836,-0.9836,-0.991,-1.0059,-1.0215,-1.0527,-1.0975,-1.0848,-1.0938,-1.1095,-0.6911,-0.7125,-1.0154,-0.3053,0.0,0.0,0.0,0.0,0.0,0.0,0.0,0.0,0.0,0.0,0.0,0.0,0.0,0.0,0.0,0.0,-0.0,0.0,0.0,0.0,-1.1989,-1.2661,-1.3162,-1.3417,-1.0151,-0.5525,-0.1064,0.0,0.0,0.0,0.0,0.0,0.0,-0.044,-0.2206,-0.6774,-0.7584,-0.905,-1.317,-1.3743,-1.3667,-1.3618,-1.3629,-1.3629,-1.3607,-1.3629,-1.3635,-1.3613,-1.3637,-1.3765,-1.3966,-1.4309,-1.4559,-1.4673,-1.4798,-1.4923,-1.5037,-1.4923,-1.4858,-1.4858,-1.4629,-1.4515,-1.4504,-1.4379,-1.4336,-1.4336,-1.432,-1.432,-1.432,-1.432,-1.432,-1.432,-1.432,-1.432,-1.432,-1.432,-1.432,-1.432,0.0,0.0,0.0,0.0,0.0,0.0,0.0,0.0,0.0,0.0,0.0,0.0,0.0,-0.9863,-0.9951,-1.01,-1.0426,-1.0609,-1.0568,-1.0602,-1.0541,-1.0344,-1.0195,-1.0073,-0.9971,-0.9869,-0.9897,-1.0046,-1.0202,-1.0507,-1.0962,-1.1018,-1.125,-1.1239,-0.6851,-0.4476,-0.361,-0.1014,0.0,0.0,0.0,0.0,0.0,0.0,0.0,0.0,0.0,0.0,0.0,0.0,0.0,0.0,0.0,0.0,0.0,0.0,-0.1987,-0.4924,-0.842,-1.0993,-1.2738,-1.3349,-1.0186,-0.565,-0.1053,0.0,0.0,0.0,0.0,0.0,0.0,0.0,-0.0653,-0.2385,-0.2579,-0.3203,-0.4697,-1.0032,-1.2586,-0.9568,-1.1916,-1.3635,-1.3645,-1.364,-1.2767,-1.083,-1.2691,-1.3868,-1.3847,-1.4195,-1.4407,-1.445,-1.4629,-1.4754,-1.4798,-1.4754,-1.47,-1.4629,-1.4548,-1.4461,-1.439,-1.4336,-1.432,-1.432,-1.432,-1.432,-1.432,-1.432,-1.432,-1.432,-1.432,-1.432,-1.432,-1.432,-1.432,-1.432,0.0,0.0,0.0,-0.9822,0.0,-0.9836,-0.989,-0.9856,-0.9856,-0.9964,0.0,0.0,0.0,0.0,-1.0229,-1.048,-1.0819,-1.0975,-1.0873,-1.0921,-1.086,-1.0656,-1.0507,-1.0378,-1.0276,-1.008,-1.0025,-1.0127,-1.0276,-1.0527,-1.088,-1.1147,-1.143,-1.1611,-0.7265,-0.332,0.0,0.0,0.0,0.0,0.0,0.0,0.0,0.0,0.0,0.0,0.0,0.0,0.0,0.0,0.0,0.0,0.0,0.0,0.0,0.0,0.0,-0.0721,-0.4252,-0.8751,-1.2748,-1.295,-1.1148,-0.7524,-0.1467,0.0,0.0,0.0,0.0,0.0,0.0,0.0,0.0,0.0,0.0,0.0,0.0,-0.5322,-0.8521,-0.7019,-0.808,-1.0216,-1.3243,-1.3662,-1.2368,-0.9382,-1.2035,-1.383,-1.3841,-1.4108,-1.4292,-1.4379,-1.4575,-1.4673,-1.4673,-1.4629,-1.4575,-1.4504,-1.4461,-1.4407,-1.432,-1.432,-1.432,-1.432,-1.432,-1.432,-1.432,-1.432,-1.432,-1.432,-1.432,-1.432,-1.432,-1.432,-1.432,-1.432,-0.9822,-0.9822,-0.9822,-0.9829,-0.9829,-0.9876,-1.0032,-0.993,-0.9944,-1.0243,0.0,0.0,0.0,0.0,0.0,-1.0921,-1.1097,-1.1179,-1.1179,-1.105,-1.0968,-1.0962,-1.0812,-1.0731,-1.0724,-1.0439,-1.029,-1.029,-1.0432,-1.0582,-1.0751,-1.1192,-1.1603,-1.1747,-0.7697,-0.3613,0.0,0.0,0.0,0.0,0.0,0.0,0.0,0.0,0.0,0.0,0.0,0.0,0.0,0.0,0.0,0.0,0.0,0.0,0.0,0.0,0.0,0.0,0.0,0.0,0.0,-1.2474,-1.307,-1.1235,-0.2521,-0.021,0.0,0.0,0.0,0.0,0.0,0.0,0.0,0.0,0.0,0.0,0.0,0.0,-0.1704,-0.6167,-0.2764,-0.3403,-1.2378,-1.3476,-1.2428,-0.9457,-1.1867,-1.3653,-1.3944,-1.4069,-1.4238,-1.4488,-1.4602,-1.4657,-1.4657,-1.4559,-1.4504,-1.4504,-1.4379,-1.432,-1.432,-1.432,-1.432,-1.432,-1.432,-1.432,-1.432,-1.432,-1.432,-1.432,-1.432,-1.432,-1.432,-1.432,-1.432,-1.432,-0.97,-0.9822,-0.9856,-0.9964,-0.9985,-1.0039,-1.0195,-1.0181,-1.0181,0.0,0.0,0.0,-1.0426,-1.0826,-1.1131,-1.126,-1.1497,-1.1599,-1.1497,-1.1457,-1.1382,-1.1274,-1.1124,-1.0995,-1.0887,-1.0697,-1.0602,-1.0602,-1.0751,-1.0955,-1.1212,-1.0251,-0.9695,-0.9413,-0.7118,-0.388,0.0,0.0,0.0,0.0,0.0,0.0,0.0,0.0,0.0,0.0,0.0,0.0,0.0,0.0,0.0,0.0,0.0,0.0,0.0,0.0,0.0,0.0,0.0,0.0,0.0,0.0,0.0,0.0,-1.0389,-0.4642,0.0,0.0,0.0,0.0,0.0,0.0,0.0,0.0,0.0,0.0,0.0,0.0,-0.0429,-0.1705,-0.0851,-0.1064,-0.3621,-0.9819,-1.1973,-0.7893,-1.1402,-1.3803,-1.3705,-1.3819,-1.3993,-1.4238,-1.4265,-1.4336,-1.4417,-1.439,-1.4379,-1.4379,-1.4336,-1.432,-1.432,-1.432,-1.432,-1.432,-1.432,-1.432,-1.432,-1.432,-1.432,-1.432,-1.432,-1.432,-1.432,-1.432,-1.432,-1.432,-0.9721,-0.9924,-1.0019,-1.0046,-1.0154,-1.031,-1.0527,-1.0561,-1.0629,0.0,0.0,0.0,-1.0948,-1.1389,-1.1674,-1.1674,-1.1884,-1.1932,-1.1721,-1.1708,-1.164,-1.1491,-1.1402,-1.1314,-1.1233,-1.1016,-1.0907,-1.0907,-1.0995,-1.1158,-1.1396,-0.9942,-0.8576,-0.7289,-0.6854,-0.4245,0.0,0.0,0.0,0.0,0.0,0.0,0.0,0.0,0.0,0.0,0.0,0.0,0.0,0.0,0.0,0.0,0.0,0.0,0.0,0.0,0.0,0.0,0.0,0.0,-0.1288,-0.6291,0.0,0.0,-1.3294,-0.7912,-0.2326,-0.0419,0.0,0.0,0.0,0.0,0.0,0.0,0.0,0.0,0.0,0.0,0.0,0.0,0.0,0.0,0.0,-0.4715,-0.8365,-0.9645,-1.2248,-1.3749,-1.3684,-1.3749,-1.3896,-1.4124,-1.414,-1.4195,-1.432,-1.432,-1.432,-1.432,-1.432,-1.432,-1.432,-1.432,-1.432,-1.432,-1.432,-1.432,-1.432,-1.432,-1.432,-1.432,-1.432,-1.432,-1.432,-1.432,-1.432,-1.432,0.0,-1.0093,-1.0249,-1.0141,-1.0371,-1.0663,-1.0955,-1.1043,-1.1212,0.0,-1.1436,-1.1396,-1.1687,-1.1986,-1.2149,-1.2115,-1.2264,-1.223,-1.1904,-1.1884,-1.1809,-1.1647,-1.164,-1.1633,-1.1619,-1.1355,-1.1212,-1.1212,-1.1212,-1.1301,-1.147,-0.9831,-0.7867,-0.5955,-0.637,-0.4252,-0.0339,-0.0,0.0,0.0,0.0,0.0,0.0,0.0,0.0,0.0,0.0,0.0,0.0,0.0,0.0,0.0,0.0,0.0,0.0,0.0,0.0,0.0,0.0,0.0,0.0,0.0,-0.5848,0.0,-1.2663,-1.0206,-0.6016,-0.1039,0.0,0.0,0.0,0.0,0.0,0.0,0.0,0.0,0.0,0.0,0.0,0.0,0.0,0.0,0.0,-0.0431,-0.4099,-1.2345,-1.3327,-1.3716,-1.3787,-1.3776,-1.3885,-1.4135,-1.4124,-1.4178,-1.432,-1.432,-1.432,-1.432,-1.432,-1.432,-1.432,-1.432,-1.432,-1.432,-1.432,-1.432,-1.432,-1.432,-1.432,-1.432,-1.432,-1.432,-1.432,-1.432,-1.432,-1.432,-0.9684,-0.9982,-1.0344,-1.0555,-1.0833,-1.109,-1.1274,-1.1613,-1.183,-1.1796,-1.1952,-1.2135,-1.2311,-1.2603,-1.2684,-1.2433,-1.2671,-1.2651,-1.223,-1.2203,-1.2081,-1.1803,-1.1789,-1.1735,-1.1619,-1.1558,-1.1531,-1.1531,-1.1531,-1.1667,-1.1932,-0.8994,-0.782,-0.8265,-0.4882,-0.2849,-0.1902,-0.0522,0.0,0.0,0.0,0.0,0.0,0.0,0.0,0.0,0.0,0.0,0.0,0.0,0.0,0.0,0.0,0.0,0.0,0.0,0.0,0.0,0.0,0.0,0.0,0.0,-0.1331,0.0,-1.1354,-1.2662,-0.9876,-0.1679,0.0,0.0,0.0,0.0,0.0,0.0,0.0,0.0,0.0,0.0,0.0,0.0,0.0,0.0,0.0,-0.342,-0.643,-0.8402,-1.1835,-1.3776,-1.3589,-1.37,-1.3803,-1.3942,-1.4053,-1.4097,-1.432,-1.432,-1.432,-1.432,-1.432,-1.432,-1.432,-1.432,-1.432,-1.432,-1.432,-1.432,-1.432,-1.432,-1.432,-1.432,-1.432,-1.432,-1.432,-1.432,-1.432,-1.432,-0.9503,-0.9965,-1.0341,-1.0756,-1.1021,-1.1312,-1.1898,-1.2135,-1.2332,-1.2481,-1.2698,-1.2874,-1.2942,-1.3085,-1.3119,-1.2963,-1.3091,-1.3051,-1.2752,-1.2664,-1.2488,-1.2176,-1.2094,-1.1952,-1.1728,-1.1728,-1.1687,-1.1619,-1.1619,-1.1332,-1.0859,-0.8809,-0.7665,-0.737,-0.3984,-0.2552,-0.2456,-0.0705,0.0,0.0,0.0,0.0,0.0,0.0,0.0,0.0,0.0,0.0,0.0,0.0,0.0,0.0,0.0,0.0,0.0,0.0,0.0,0.0,0.0,0.0,0.0,0.0,0.0,0.0,0.0,-0.9989,-1.0775,-0.1851,0.0,0.0,0.0,0.0,0.0,0.0,0.0,0.0,0.0,0.0,0.0,0.0,0.0,0.0,0.0,-0.2141,-0.5578,-1.0302,-1.2502,-1.3616,-1.3616,-1.2287,-1.2158,-1.3717,-1.3872,-1.414,-1.432,-1.432,-1.432,-1.432,-1.432,-1.432,-1.432,-1.432,-1.432,-1.432,-1.432,-1.432,-1.432,-1.432,-1.432,-1.432,-1.432,-1.432,-1.432,-1.432,-1.432,-1.432,-0.9365,-0.9829,-1.0303,-1.0728,-1.1002,-1.1632,-1.2293,-1.2623,-1.2861,-1.3247,-1.341,-1.3485,-1.3485,-1.3539,-1.3553,-1.3492,-1.3539,-1.3498,-1.3315,-1.3166,-1.2976,-1.2732,-1.2501,-1.2257,-1.2006,-1.1918,-1.167,-1.1266,-1.1266,-1.0657,-0.9392,-0.8445,-0.764,-0.6878,-0.3895,-0.2419,-0.2307,-0.0723,0.0,0.0,0.0,0.0,0.0,0.0,0.0,0.0,0.0,0.0,0.0,0.0,0.0,0.0,0.0,0.0,0.0,0.0,0.0,0.0,0.0,0.0,0.0,0.0,0.0,0.0,0.0,0.0,0.0,-0.1399,0.0,0.0,0.0,0.0,0.0,0.0,0.0,0.0,0.0,0.0,0.0,0.0,0.0,0.0,0.0,-0.0864,-0.4323,-1.1095,-1.2981,-1.3733,-1.368,-1.0844,-1.0703,-1.3759,-1.3915,-1.4167,-1.432,-1.432,-1.432,-1.432,-1.432,-1.432,-1.432,-1.432,-1.432,-1.432,-1.432,-1.432,-1.432,-1.432,-1.432,-1.432,-1.432,-1.432,-1.432,-1.432,-1.432,-1.432,-0.9509,-0.9953,-1.0443,-1.0443,-1.1158,-1.1824,-1.1876,-1.2909,-1.3566,-1.3743,-1.3777,-1.379,-1.379,-1.4034,-1.4089,-1.3817,-1.4041,-1.4075,-1.3783,-1.3634,-1.3539,-1.3505,-1.2976,-1.2664,-1.263,-1.2237,-1.1275,-0.9766,-0.9766,-0.9537,-0.8913,-0.6844,-0.7999,-1.1511,-0.5186,-0.248,-0.2338,-0.0753,0.0,0.0,0.0,0.0,0.0,0.0,0.0,0.0,0.0,0.0,0.0,0.0,0.0,0.0,0.0,0.0,0.0,0.0,0.0,0.0,0.0,0.0,0.0,0.0,0.0,0.0,0.0,0.0,-0.1177,-0.0197,0.0,0.0,0.0,0.0,0.0,0.0,0.0,0.0,0.0,0.0,0.0,0.0,0.0,0.0,0.0,-0.4181,-0.5481,-0.1897,-0.96,-1.4222,-1.3606,-1.0759,-1.0603,-1.4124,-1.4108,-1.408,-1.432,-1.432,-1.432,-1.432,-1.432,-1.432,-1.432,-1.432,-1.432,-1.432,-1.432,-1.432,-1.432,-1.432,-1.432,-1.432,-1.432,-1.432,-1.432,-1.432,-1.432,-1.432,-0.949,-0.9747,-1.026,-1.0562,-1.1077,-1.1488,-1.2449,-1.3237,-1.3939,-1.4089,-1.4177,-1.4299,-1.4475,-1.4455,-1.4263,-1.413,-1.4018,-1.3925,0.0,-1.3746,-1.3594,-1.3756,-1.3431,-1.3132,-1.2868,-1.2589,-1.1594,-0.9753,-1.0678,-0.9676,-0.7003,-0.8369,-0.8186,-0.6547,-0.2804,-0.1085,-0.0939,-0.0381,0.0,0.0,0.0,0.0,0.0,0.0,0.0,0.0,0.0,0.0,0.0,0.0,0.0,0.0,0.0,0.0,0.0,0.0,0.0,0.0,0.0,0.0,0.0,0.0,0.0,0.0,0.0,0.0,0.0,0.0,0.0,0.0,0.0,0.0,0.0,0.0,0.0,0.0,0.0,-0.4077,-0.5361,-0.0633,0.0,0.0,0.0,-0.7393,-1.1303,-0.93,-0.9806,-1.1031,-1.3432,-1.2595,-1.2714,-1.4038,-1.4205,-1.4222,-1.432,-1.432,-1.432,-1.432,-1.432,-1.432,-1.432,-1.432,-1.432,-1.432,-1.432,-1.432,-1.432,-1.432,-1.432,-1.432,-1.432,-1.432,-1.432,-1.432,-1.432,-1.432,-0.9807,-0.9845,-1.0136,-1.06,-1.0866,-1.1421,-1.2758,-1.3594,-1.4015,-1.4162,-1.4557,-1.478,-1.4819,-1.4718,-1.452,-1.4326,-1.3872,-1.3719,0.0,0.0,-1.3911,-1.3879,-1.3747,-1.3641,-1.341,-1.3051,-1.1817,-0.9923,-1.0537,-0.8816,-0.4752,-0.7746,-0.6526,-0.1761,-0.0533,0.0,0.0,0.0,0.0,0.0,0.0,0.0,0.0,0.0,0.0,0.0,0.0,0.0,0.0,0.0,0.0,0.0,0.0,0.0,0.0,0.0,0.0,0.0,0.0,0.0,0.0,0.0,0.0,0.0,0.0,0.0,0.0,0.0,0.0,0.0,0.0,0.0,0.0,0.0,0.0,-0.3186,-0.3161,-0.7339,-0.8676,-0.4176,-0.1473,-0.0422,-0.1691,-0.735,-1.2173,-1.5301,-1.1342,-1.0332,-1.3338,-1.3928,-1.408,-1.4178,-1.4238,-1.4292,-1.432,-1.432,-1.432,-1.432,-1.432,-1.432,-1.432,-1.432,-1.432,-1.432,-1.432,-1.432,-1.432,-1.432,-1.432,-1.432,-1.432,-1.432,-1.432,-1.432,-1.432,-1.432,-1.0217,-1.0269,-1.0155,-1.0047,-1.0633,-1.1659,-1.2911,-1.3397,-1.3629,-1.3765,-1.4705,-1.4973,-1.4416,0.0,0.0,-1.4641,0.0,-1.3792,-1.367,0.0,-1.4234,-1.4253,-1.4104,-1.4204,-1.4523,-1.3316,-1.194,-1.006,-0.8462,-0.5912,-0.2602,-0.2664,-0.1873,-0.0,-0.0,0.0,0.0,0.0,0.0,0.0,0.0,0.0,0.0,0.0,0.0,0.0,0.0,0.0,0.0,0.0,0.0,0.0,0.0,0.0,0.0,0.0,0.0,0.0,0.0,0.0,0.0,0.0,0.0,0.0,0.0,0.0,0.0,0.0,0.0,0.0,0.0,0.0,0.0,0.0,-0.6319,0.0,0.0,-0.812,-0.7605,-1.1999,-0.5054,-0.1689,-0.6224,-0.2842,-0.4437,-1.4224,-1.4501,-1.4012,-1.3674,-1.3519,-1.3814,-1.4167,-1.4151,-1.4195,-1.432,-1.432,-1.432,-1.432,-1.432,-1.432,-1.432,-1.432,-1.432,-1.432,-1.432,-1.432,-1.432,-1.432,-1.432,-1.432,-1.432,-1.432,-1.432,-1.432,-1.432,-1.432,-1.0541,-1.0426,-1.0303,-1.0514,-1.076,-1.1299,-1.2194,-1.2832,-1.3276,0.0,-1.3914,0.0,0.0,-1.4486,-1.431,0.0,0.0,-1.368,-1.3335,-1.3674,0.0,0.0,0.0,-1.3224,0.0,-1.2097,-0.9923,-0.7901,-1.0252,-0.8369,-0.2499,-0.1342,-0.0509,0.0,0.0,0.0,0.0,0.0,0.0,0.0,0.0,0.0,0.0,0.0,0.0,0.0,0.0,0.0,0.0,0.0,0.0,0.0,0.0,0.0,0.0,0.0,0.0,0.0,0.0,0.0,0.0,0.0,0.0,0.0,0.0,0.0,0.0,0.0,0.0,0.0,0.0,0.0,-0.1735,-0.6865,-0.9716,-1.1558,0.0,-1.0497,-1.0451,-1.2026,0.0,0.0,0.0,-0.8369,-0.8022,-0.5264,-0.887,-1.1777,-1.3211,-1.3694,-1.3792,-1.3917,-1.4069,-1.4151,-1.4195,-1.4276,-1.432,-1.432,-1.432,-1.432,-1.432,-1.432,-1.432,-1.432,-1.432,-1.432,-1.432,-1.432,-1.432,-1.432,-1.432,-1.432,-1.432,-1.432,-1.432,-1.432,-1.097,-1.0704,-1.0604,-1.0824,-1.0905,-1.1229,-1.194,-1.2598,-1.3065,0.0,-1.3548,0.0,-1.3679,0.0,-1.3772,0.0,-1.2891,-1.2987,-1.1783,-1.1275,0.0,-1.479,-1.2335,0.0,0.0,-1.0819,-1.0781,-0.9778,-0.8941,-0.6306,-0.1534,-0.0513,0.0,0.0,0.0,0.0,0.0,0.0,0.0,0.0,0.0,0.0,0.0,0.0,0.0,0.0,0.0,0.0,0.0,0.0,0.0,0.0,0.0,0.0,0.0,0.0,0.0,0.0,0.0,0.0,0.0,0.0,0.0,0.0,0.0,0.0,0.0,0.0,0.0,0.0,0.0,0.0,-0.2142,-0.8484,-0.9534,-0.9969,0.0,-1.1662,-1.1873,0.0,0.0,0.0,0.0,0.0,-1.1384,-0.5283,-0.862,-1.1671,-1.3085,-1.3428,-1.3727,-1.3722,-1.3993,-1.414,-1.414,-1.4265,-1.432,-1.432,-1.432,-1.432,-1.432,-1.432,-1.432,-1.432,-1.432,-1.432,-1.432,-1.432,-1.432,-1.432,-1.432,-1.432,-1.432,-1.432,-1.432,-1.432,-1.153,-1.1312,-1.1096,-1.0971,-1.1237,-1.161,-1.2009,-1.2344,-1.2656,0.0,-1.3228,-1.3342,-1.2353,-1.3788,-1.3107,-0.8771,-1.0753,-1.1387,-0.9696,-0.7786,0.0,0.0,-1.0154,-0.646,-0.2934,-0.9477,-1.3338,-1.4514,-0.4799,0.0,0.0,0.0,0.0,0.0,0.0,0.0,0.0,0.0,0.0,0.0,0.0,0.0,0.0,0.0,0.0,0.0,0.0,0.0,0.0,0.0,0.0,0.0,0.0,0.0,0.0,0.0,0.0,0.0,0.0,0.0,0.0,0.0,0.0,0.0,0.0,0.0,0.0,0.0,0.0,0.0,0.0,0.0,-0.1388,-0.5449,-0.6331,-0.7712,-1.1144,-1.1645,-1.1645,0.0,0.0,0.0,0.0,0.0,-1.3567,-1.3694,-1.3459,-1.3212,-1.288,-1.3158,-1.3418,-1.3607,-1.3939,-1.4124,-1.4124,-1.4249,-1.432,-1.432,-1.432,-1.432,-1.432,-1.432,-1.432,-1.432,-1.432,-1.432,-1.432,-1.432,-1.432,-1.432,-1.432,-1.432,-1.432,-1.432,-1.432,-1.432,-1.1536,-1.14,-1.1384,-1.1533,-1.1726,-1.1683,-1.1743,-1.2129,0.0,0.0,-0.9989,-0.8165,-0.8021,-1.133,-1.1575,-0.7273,-0.4643,0.0,0.0,0.0,0.0,-0.4013,-0.6809,-0.5945,-0.0971,-0.4018,-0.505,-0.3981,-0.1263,0.0,0.0,0.0,0.0,0.0,0.0,0.0,0.0,0.0,0.0,0.0,0.0,0.0,0.0,0.0,0.0,0.0,0.0,0.0,0.0,0.0,0.0,0.0,0.0,0.0,0.0,0.0,0.0,0.0,0.0,0.0,0.0,0.0,0.0,0.0,0.0,0.0,0.0,0.0,0.0,0.0,0.0,0.0,-0.1415,-0.5363,-0.8676,-1.0885,0.0,0.0,0.0,-1.1775,0.0,0.0,0.0,0.0,0.0,0.0,-1.1004,-0.8877,-0.8491,-1.1755,-1.37,-1.3607,-1.3781,-1.3917,-1.4004,-1.4211,-1.432,-1.432,-1.432,-1.432,-1.432,-1.432,-1.432,-1.432,-1.432,-1.432,-1.432,-1.432,-1.432,-1.432,-1.432,-1.432,-1.432,-1.432,-1.4536,-1.4986,-1.1159,-1.1582,-1.163,-1.1732,-1.1774,-1.1699,-1.1657,-1.181,0.0,-1.2103,-0.7003,0.0,-0.3688,-0.5716,-0.6309,-0.3875,-0.143,0.0,-0.7017,0.0,0.0,-0.6575,-0.5319,-0.3232,-0.0,-0.1169,0.0,0.0,0.0,0.0,0.0,0.0,0.0,0.0,0.0,0.0,0.0,0.0,0.0,0.0,0.0,0.0,0.0,0.0,0.0,0.0,0.0,0.0,0.0,0.0,0.0,0.0,0.0,0.0,0.0,0.0,0.0,0.0,0.0,0.0,0.0,0.0,0.0,0.0,0.0,0.0,0.0,0.0,0.0,0.0,0.0,0.0,-0.0823,-0.3016,-0.8409,0.0,0.0,0.0,0.0,0.0,-1.1982,0.0,0.0,0.0,0.0,0.0,0.0,-0.9054,-0.9792,-1.2565,-1.3819,-1.3526,-1.3694,-1.3819,-1.3879,-1.4178,-1.4292,-1.4238,-1.4292,-1.432,-1.432,-1.432,-1.432,-1.432,-1.432,-1.432,-1.432,-1.432,-1.432,-1.432,-1.432,-1.432,-1.432,-1.432,-1.4547,-1.4764,-0.9241,-1.1146,-1.1647,-1.1752,-1.1833,-1.1747,-1.1836,-1.1671,-1.1773,-1.2069,-0.5119,0.0,0.0,0.0,0.0,0.0,0.0,0.0,0.0,0.0,-0.3796,-1.2581,-0.4603,0.0,0.0,0.0,0.0,0.0,0.0,0.0,0.0,0.0,0.0,0.0,0.0,0.0,0.0,0.0,0.0,0.0,0.0,0.0,0.0,0.0,0.0,0.0,0.0,0.0,0.0,0.0,0.0,0.0,0.0,0.0,0.0,0.0,0.0,0.0,0.0,0.0,0.0,0.0,0.0,0.0,0.0,0.0,0.0,0.0,0.0,0.0,0.0,0.0,0.0,0.0,-0.6188,0.0,0.0,0.0,0.0,0.0,0.0,0.0,0.0,0.0,0.0,0.0,0.0,0.0,0.0,0.0,-1.4121,-1.3423,-1.3645,-1.377,-1.3787,-1.4108,-1.4238,-1.4167,-1.4249,-1.4309,-1.432,-1.432,-1.432,-1.432,-1.432,-1.432,-1.432,-1.432,-1.432,-1.432,-1.432,-1.432,-1.432,-1.432,-1.432,-1.4547,-0.1913,-0.7181,-1.1628,-1.1844,-1.1987,-1.2109,-1.2145,-1.2331,-1.2537,-1.2186,-0.5098,0.0,0.0,0.0,0.0,0.0,0.0,0.0,0.0,0.0,-0.0833,-0.2503,-0.1032,0.0,0.0,0.0,0.0,0.0,0.0,0.0,0.0,0.0,0.0,0.0,0.0,0.0,0.0,0.0,0.0,0.0,0.0,0.0,0.0,0.0,0.0,0.0,0.0,0.0,0.0,0.0,0.0,0.0,0.0,0.0,0.0,0.0,0.0,0.0,0.0,0.0,0.0,0.0,0.0,0.0,0.0,0.0,0.0,0.0,0.0,0.0,0.0,0.0,0.0,0.0,0.0,0.0,0.0,0.0,0.0,0.0,0.0,-1.2316,0.0,0.0,0.0,0.0,0.0,0.0,0.0,-1.3995,-1.3946,-1.3433,-1.3558,-1.3684,-1.3787,-1.3944,-1.4113,-1.4292,-1.4205,-1.4222,-1.432,-1.432,-1.432,-1.432,-1.432,-1.432,-1.432,-1.432,-1.432,-1.432,-1.432,-1.432,-1.432,-1.432,-1.4536,-1.5197,0.0,-0.3011,-0.5492,-0.5697,-0.925,-1.227,-1.2166,-0.8873,-0.6139,-0.5809,-0.2493,0.0,0.0,0.0,0.0,0.0,0.0,0.0,0.0,0.0,0.0,0.0,0.0,0.0,0.0,0.0,0.0,0.0,0.0,0.0,0.0,0.0,0.0,0.0,0.0,0.0,0.0,0.0,0.0,0.0,0.0,0.0,0.0,0.0,0.0,0.0,0.0,0.0,0.0,0.0,0.0,0.0,0.0,0.0,0.0,0.0,0.0,0.0,0.0,0.0,0.0,0.0,0.0,0.0,0.0,0.0,0.0,0.0,0.0,0.0,0.0,0.0,0.0,0.0,0.0,0.0,0.0,0.0,0.0,0.0,0.0,0.0,0.0,0.0,0.0,0.0,0.0,0.0,0.0,-1.3907,-1.4024,-1.3428,-1.3542,-1.3602,-1.3597,-1.3836,-1.4015,-1.414,-1.414,-1.4205,-1.432,-1.432,-1.432,-1.432,-1.432,-1.432,-1.432,-1.432,-1.432,-1.432,-1.432,-1.432,-1.432,-1.4758,-1.5197,-1.564,0.0,0.0,0.0,0.0,-0.5258,-0.9553,-0.9614,-0.4192,0.0,0.0,0.0,0.0,0.0,0.0,0.0,0.0,0.0,0.0,0.0,0.0,0.0,0.0,0.0,0.0,0.0,0.0,0.0,0.0,0.0,0.0,0.0,0.0,0.0,0.0,0.0,0.0,0.0,0.0,0.0,0.0,0.0,0.0,0.0,0.0,0.0,0.0,0.0,0.0,0.0,0.0,0.0,0.0,0.0,0.0,0.0,0.0,0.0,0.0,0.0,0.0,0.0,0.0,0.0,0.0,0.0,0.0,0.0,0.0,0.0,0.0,0.0,0.0,0.0,0.0,0.0,0.0,0.0,0.0,0.0,0.0,0.0,0.0,-1.1459,0.0,0.0,0.0,0.0,0.0,-1.3743,-1.4035,-1.3946,-1.3499,-1.3591,-1.3607,-1.3537,-1.3765,-1.3917,-1.3993,-1.4069,-1.4178,-1.432,-1.432,-1.432,-1.432,-1.432,-1.432,-1.432,-1.432,-1.432,-1.432,-1.4547,-1.4547,-1.4536,-1.5197,-1.5862,-1.6317,0.0,0.0,0.0,0.0,-0.0638,-0.1065,-0.1066,-0.0425,0.0,0.0,0.0,0.0,0.0,0.0,0.0,0.0,0.0,0.0,0.0,0.0,0.0,0.0,0.0,0.0,0.0,0.0,0.0,0.0,0.0,0.0,0.0,0.0,0.0,0.0,0.0,0.0,0.0,0.0,0.0,0.0,0.0,0.0,0.0,0.0,0.0,0.0,0.0,0.0,0.0,0.0,0.0,0.0,0.0,0.0,0.0,0.0,0.0,0.0,0.0,0.0,0.0,0.0,0.0,0.0,0.0,0.0,0.0,0.0,0.0,0.0,0.0,0.0,0.0,0.0,0.0,0.0,0.0,0.0,-0.0642,0.0,0.0,0.0,0.0,-1.119,0.0,0.0,-1.4024,0.0,0.0,-1.3803,-1.3857,-1.3754,-1.3765,-1.3814,-1.3906,-1.3727,-1.3798,-1.4124,-1.4021,-1.4097,-1.432,-1.432,-1.432,-1.432,-1.432,-1.432,-1.432,-1.432,-1.432,-1.432,-1.4986,-1.5197,-1.5197,-1.5862,-1.6323,-1.6982,0.0,0.0,0.0,0.0,0.0,0.0,0.0,0.0,0.0,0.0,0.0,0.0,0.0,0.0,0.0,0.0,0.0,0.0,0.0,0.0,0.0,0.0,0.0,0.0,0.0,0.0,0.0,0.0,0.0,0.0,0.0,0.0,0.0,0.0,0.0,0.0,0.0,0.0,0.0,0.0,0.0,0.0,0.0,0.0,0.0,0.0,0.0,0.0,0.0,0.0,0.0,0.0,0.0,0.0,0.0,0.0,0.0,0.0,0.0,0.0,0.0,0.0,0.0,0.0,0.0,0.0,0.0,0.0,0.0,0.0,0.0,0.0,0.0,0.0,0.0,0.0,0.0,0.0,0.0,0.0,0.0,0.0,0.0,0.0,0.0,0.0,0.0,0.0,0.0,0.0,-1.3934,-1.389,-1.3749,-1.3732,-1.3852,-1.3689,-1.3749,-1.4031,-1.3983,-1.408,-1.432,-1.432,-1.432,-1.432,-1.432,-1.432,-1.432,-1.432,-1.432,-1.432,-1.4986,-1.5197,-1.5424,-1.6317,-1.676,-1.6988,0.0,0.0,0.0,0.0,0.0,0.0,0.0,0.0,0.0,0.0,0.0,0.0,0.0,0.0,0.0,0.0,0.0,0.0,0.0,0.0,0.0,0.0,0.0,0.0,0.0,0.0,0.0,0.0,0.0,0.0,0.0,0.0,0.0,0.0,0.0,0.0,0.0,0.0,0.0,0.0,0.0,0.0,0.0,0.0,0.0,0.0,0.0,0.0,0.0,0.0,0.0,0.0,0.0,0.0,0.0,0.0,0.0,0.0,0.0,0.0,0.0,0.0,0.0,0.0,0.0,0.0,0.0,0.0,0.0,0.0,0.0,0.0,0.0,0.0,0.0,0.0,0.0,0.0,0.0,-0.4048,-0.3009,-0.4306,-0.9599,-0.9775,0.0,0.0,0.0,0.0,0.0,0.0,0.0,-1.3906,-1.3743,-1.37,-1.3787,-1.3667,-1.3722,-1.3955,-1.3955,-1.408,-1.432,-1.432,-1.432,-1.432,-1.432,-1.432,-1.432,-1.432,-1.432,-1.432,-1.5197,-1.5424,-1.5652,-1.676,-1.7197,-1.7418,0.0,0.0,0.0,0.0,0.0,0.0,0.0,0.0,0.0,0.0,0.0,0.0,0.0,0.0,0.0,0.0,0.0,0.0,0.0,0.0,0.0,0.0,0.0,0.0,0.0,0.0,0.0,0.0,0.0,0.0,0.0,0.0,0.0,0.0,0.0,0.0,0.0,0.0,0.0,0.0,0.0,0.0,0.0,0.0,0.0,0.0,0.0,0.0,0.0,0.0,0.0,0.0,0.0,0.0,0.0,0.0,0.0,0.0,0.0,0.0,0.0,0.0,0.0,0.0,0.0,0.0,0.0,0.0,0.0,0.0,0.0,0.0,0.0,0.0,0.0,0.0,0.0,0.0,-0.3683,-1.3606,-1.0436,-0.5552,-0.0656,-0.8862,0.0,0.0,0.0,0.0,0.0,0.0,0.0,-1.3798,-1.3787,-1.3787,-1.3787,-1.3667,-1.3722,-1.3955,-1.3955,-1.408,-1.432,-1.432,-1.432,-1.432,-1.432,-1.432,-1.432,-1.432,-1.432,-1.4325,-1.5652,-1.6089,-1.6317,-1.7424,-1.786,-1.786,0.0,0.0,0.0,0.0,0.0,0.0,0.0,0.0,0.0,0.0,0.0,0.0,0.0,0.0,0.0,0.0,0.0,0.0,0.0,0.0,0.0,0.0,0.0,0.0,0.0,0.0,0.0,0.0,0.0,0.0,0.0,0.0,0.0,0.0,0.0,0.0,0.0,0.0,0.0,0.0,0.0,0.0,0.0,0.0,0.0,0.0,0.0,0.0,0.0,0.0,0.0,0.0,0.0,0.0,0.0,0.0,0.0,0.0,0.0,0.0,0.0,0.0,0.0,0.0,0.0,0.0,0.0,0.0,0.0,0.0,0.0,0.0,0.0,0.0,0.0,0.0,0.0,0.0,-0.1283,-0.4478,-0.9491,-1.1938,-1.0355,-1.2921,-1.3481,0.0,0.0,0.0,0.0,0.0,0.0,-1.4026,-1.3705,-1.3656,-1.3901,-1.3705,-1.3722,-1.3955,-1.3955,-1.408,-1.432,-1.432,-1.432,-1.432,-1.432,-1.432,-1.432,-1.432,-1.432,-1.4325,-1.5652,-1.6089,-1.6317,-1.7424,-1.786,-1.786,0.0,0.0,0.0,0.0,0.0,0.0,0.0,0.0,0.0,0.0,0.0,0.0,0.0,0.0,0.0,0.0,0.0,0.0,0.0,0.0,0.0,0.0,0.0,0.0,0.0,0.0,0.0,0.0,0.0,0.0,0.0,0.0,0.0,0.0,0.0,0.0,0.0,0.0,0.0,0.0,0.0,0.0,0.0,0.0,0.0,0.0,0.0,0.0,0.0,0.0,0.0,0.0,0.0,0.0,0.0,0.0,0.0,0.0,0.0,0.0,0.0,0.0,0.0,0.0,0.0,0.0,0.0,0.0,0.0,0.0,0.0,0.0,0.0,0.0,0.0,0.0,0.0,0.0,0.0,0.0,-0.5581,-1.0785,-1.4665,-1.4844,-1.3606,-1.0485,0.0,0.0,0.0,0.0,-1.395,-1.3868,-1.3624,-1.3597,-1.3825,-1.3722,-1.3792,-1.4026,-1.4069,-1.4167,-1.432,-1.432,-1.432,-1.432,-1.432,-1.432,-1.432,-1.432,-1.432,-1.4325,-1.5652,-1.6089,-1.6317,-1.7424,-1.786,-1.786,0.0,0.0,0.0,0.0,0.0,0.0,0.0,0.0,0.0,0.0,0.0,0.0,0.0,0.0,0.0,0.0,0.0,0.0,0.0,0.0,0.0,0.0,0.0,0.0,0.0,0.0,0.0,0.0,0.0,0.0,0.0,0.0,0.0,0.0,0.0,0.0,0.0,0.0,0.0,0.0,0.0,0.0,0.0,0.0,0.0,0.0,0.0,0.0,0.0,0.0,0.0,0.0,0.0,0.0,0.0,0.0,0.0,0.0,0.0,0.0,0.0,0.0,0.0,0.0,0.0,0.0,0.0,0.0,0.0,0.0,0.0,0.0,0.0,0.0,0.0,0.0,0.0,0.0,0.0,0.0,0.0,-0.3696,-1.3007,-1.3977,-1.3961,-1.3754,-1.4468,-1.4508,-1.3836,-1.4124,-1.4031,-1.345,-1.3548,-1.3607,-1.3618,-1.3738,-1.3912,-1.414,-1.4265,-1.432,-1.432,-1.432,-1.432,-1.432,-1.432,-1.432,-1.432,-1.432,-1.432,-1.4325,-1.5652,-1.6089,-1.6317,-1.7424,-1.786,-1.786,0.0,0.0,0.0,0.0,0.0,0.0,0.0,0.0,0.0,0.0,0.0,0.0,0.0,0.0,0.0,0.0,0.0,0.0,0.0,0.0,0.0,0.0,0.0,0.0,0.0,0.0,0.0,0.0,0.0,0.0,0.0,0.0,0.0,0.0,0.0,0.0,0.0,0.0,0.0,0.0,0.0,0.0,0.0,0.0,0.0,0.0,0.0,0.0,0.0,0.0,0.0,0.0,0.0,0.0,0.0,0.0,0.0,0.0,0.0,0.0,0.0,0.0,0.0,0.0,0.0,0.0,0.0,0.0,0.0,0.0,0.0,0.0,0.0,0.0,0.0,0.0,0.0,0.0,0.0,0.0,0.0,-0.0857,-0.3422,-0.3641,-0.4963,-0.8316,-1.2031,-1.4227,-1.4053,-1.4048,-1.3896,-1.3569,-1.3591,-1.3651,-1.3743,-1.3857,-1.3993,-1.414,-1.4265,-1.432,-1.432,-1.432,-1.432,-1.432,-1.432,-1.432,-1.432,-1.432,-1.432,-1.4325,-1.5652,-1.6089,-1.6317,-1.7424,-1.786,-1.786,0.0,0.0,0.0,0.0,0.0,0.0,0.0,0.0,0.0,0.0,0.0,0.0,0.0,0.0,0.0,0.0,0.0,0.0,0.0,0.0,0.0,0.0,0.0,0.0,0.0,0.0,0.0,0.0,0.0,0.0,0.0,0.0,0.0,0.0,0.0,0.0,0.0,0.0,0.0,0.0,0.0,0.0,0.0,0.0,0.0,0.0,0.0,0.0,0.0,0.0,0.0,0.0,0.0,0.0,0.0,0.0,0.0,0.0,0.0,0.0,0.0,0.0,0.0,0.0,0.0,0.0,0.0,0.0,0.0,0.0,0.0,0.0,0.0,0.0,0.0,0.0,0.0,0.0,0.0,0.0,0.0,0.0,0.0,0.0,-0.1071,-0.3469,-0.9999,-1.3955,-1.3988,-1.3917,-1.3819,-1.3689,-1.3689,-1.377,-1.3944,-1.4069,-1.4151,-1.4222,-1.4292,-1.432,-1.432,-1.432,-1.432,-1.432,-1.432,-1.432,-1.432,-1.432,-1.432,-1.4325,-1.5424,-1.5862,-1.6317,-1.7197,-1.7652,-1.786,0.0,0.0,0.0,0.0,0.0,0.0,0.0,0.0,0.0,0.0,0.0,0.0,0.0,0.0,0.0,0.0,0.0,0.0,0.0,0.0,0.0,0.0,0.0,0.0,0.0,0.0,0.0,0.0,0.0,0.0,0.0,0.0,0.0,0.0,0.0,0.0,0.0,0.0,0.0,0.0,0.0,0.0,0.0,0.0,0.0,0.0,0.0,0.0,0.0,0.0,0.0,0.0,0.0,0.0,0.0,0.0,0.0,0.0,0.0,0.0,0.0,0.0,0.0,0.0,0.0,0.0,0.0,0.0,0.0,0.0,0.0,0.0,0.0,0.0,0.0,0.0,0.0,0.0,0.0,0.0,0.0,0.0,0.0,0.0,0.0,0.0,-0.7745,-1.2986,-1.3841,-1.3825,-1.3819,-1.3841,-1.3825,-1.3928,-1.4167,-1.4265,-1.432,-1.432,-1.432,-1.432,-1.432,-1.432,-1.432,-1.432,-1.432,-1.432,-1.432,-1.432,-1.432,-1.432,-1.4986,-1.5652,-1.6096,-1.676,-1.7424,-1.786,0.0,0.0,0.0,0.0,0.0,0.0,0.0,0.0,0.0,0.0,0.0,0.0,0.0,0.0,0.0,0.0,0.0,0.0,0.0,0.0,0.0,0.0,0.0,0.0,0.0,0.0,0.0,0.0,0.0,0.0,0.0,0.0,0.0,0.0,0.0,0.0,0.0,0.0,0.0,0.0,0.0,0.0,0.0,0.0,0.0,0.0,0.0,0.0,0.0,0.0,0.0,0.0,0.0,0.0,0.0,0.0,0.0,0.0,0.0,0.0,0.0,0.0,0.0,0.0,0.0,0.0,0.0,0.0,0.0,0.0,0.0,0.0,0.0,0.0,0.0,0.0,0.0,0.0,0.0,0.0,0.0,0.0,0.0,0.0,0.0,0.0,-0.5004,-0.9806,-1.3532,-1.3944,-1.3977,-1.408,-1.3983,-1.4048,-1.4292,-1.4309,-1.432,-1.432,-1.432,-1.432,-1.432,-1.432,-1.432,-1.432,-1.432,-1.432,-1.432,-1.432,-1.432,-1.432,-1.4986,-1.5652,-1.6096,-1.676,-1.7424,-1.786,0.0,0.0,0.0,0.0,0.0,0.0,0.0,0.0,0.0,0.0,0.0,0.0,0.0,0.0,0.0,0.0,0.0,0.0,0.0,0.0,0.0,0.0,0.0,0.0,0.0,0.0,0.0,0.0,0.0,0.0,0.0,0.0,0.0,0.0,0.0,0.0,0.0,0.0,0.0,0.0,0.0,0.0,0.0,0.0,0.0,0.0,0.0,0.0,0.0,0.0,0.0,0.0,0.0,0.0,0.0,0.0,0.0,0.0,0.0,0.0,0.0,0.0,0.0,0.0,0.0,0.0,0.0,0.0,0.0,0.0,0.0,0.0,0.0,0.0,0.0,0.0,0.0,0.0,0.0,0.0,0.0,0.0,0.0,0.0,0.0,0.0,-0.4364,-0.9168,-1.3792,-1.3977,-1.401,-1.414,-1.4151,-1.4211,-1.432,-1.432,-1.432,-1.432,-1.432,-1.432,-1.432,-1.432,-1.432,-1.432,-1.432,-1.432,-1.432,-1.432,-1.432,-1.432,-1.4986,-1.5652,-1.6096,-1.676,-1.7424,-1.7846,0.0,0.0,0.0,0.0,0.0,0.0,0.0,0.0,0.0,0.0,0.0,0.0,0.0,0.0,0.0,0.0,0.0,0.0,0.0,0.0,0.0,0.0,0.0,0.0,0.0,0.0,0.0,0.0,0.0,0.0,0.0,0.0,0.0,0.0,0.0,0.0,0.0,0.0,0.0,0.0,0.0,0.0,0.0,0.0,0.0,0.0,0.0,0.0,0.0,0.0,0.0,0.0,0.0,0.0,0.0,0.0,0.0,0.0,0.0,0.0,0.0,0.0,0.0,0.0,0.0,0.0,0.0,0.0,0.0,0.0,0.0,0.0,0.0,0.0,0.0,0.0,0.0,0.0,0.0,0.0,0.0,0.0,0.0,0.0,-0.044,-0.1541,-0.5053,-0.9225,-1.4108,-1.4069,-1.408,-1.4178,-1.4276,-1.432,-1.432,-1.432,-1.432,-1.432,-1.432,-1.432,-1.432,-1.432,-1.432,-1.432,-1.432,-1.432,-1.432,-1.432,-1.432,-1.432,-1.4764,-1.5424,-1.5868,-1.6533,-1.7177,-1.7585,0.0,0.0,0.0,0.0,0.0,0.0,0.0,0.0,0.0,0.0,0.0,0.0,0.0,0.0,0.0,0.0,0.0,0.0,0.0,0.0,0.0,0.0,0.0,0.0,0.0,0.0,0.0,0.0,0.0,0.0,0.0,0.0,0.0,0.0,0.0,0.0,0.0,0.0,0.0,0.0,0.0,0.0,0.0,0.0,0.0,0.0,0.0,0.0,0.0,0.0,0.0,0.0,0.0,0.0,0.0,0.0,0.0,0.0,0.0,0.0,0.0,0.0,0.0,0.0,0.0,0.0,0.0,0.0,0.0,0.0,0.0,0.0,0.0,0.0,0.0,0.0,0.0,0.0,0.0,0.0,0.0,0.0,0.0,0.0,-0.1793,-0.6281,-0.6937,-0.9167,-1.4135,-1.432,-1.4292,-1.4309,-1.432,-1.432,-1.432,-1.432,-1.432,-1.432,-1.432,-1.432,-1.432,-1.432,-1.432,-1.432,-1.432,-1.432,-1.432,-1.432,-1.432,-1.432,-1.432,-1.4758,-1.5424,-1.5868,-1.6451,-1.7007,0.0,0.0,0.0,0.0,0.0,0.0,0.0,0.0,0.0,0.0,0.0,0.0,0.0,0.0,0.0,0.0,0.0,0.0,0.0,0.0,0.0,0.0,0.0,0.0,0.0,0.0,0.0,0.0,0.0,0.0,0.0,0.0,0.0,0.0,0.0,0.0,0.0,0.0,0.0,0.0,0.0,0.0,0.0,0.0,0.0,0.0,0.0,0.0,0.0,0.0,0.0,0.0,0.0,0.0,0.0,0.0,0.0,0.0,0.0,0.0,0.0,0.0,0.0,0.0,0.0,0.0,0.0,0.0,0.0,0.0,0.0,0.0,0.0,0.0,0.0,0.0,0.0,0.0,0.0,0.0,0.0,0.0,0.0,0.0,-0.2021,-0.6745,-0.7175,-0.9184,-1.4161,-1.4347,-1.432,-1.432,-1.432,-1.432,-1.432,-1.432,-1.432,-1.432,-1.432,-1.432,-1.432,-1.432,-1.432,-1.432,-1.432,-1.432,-1.432,-1.432,-1.432,-1.432,-1.4758,-1.5202,-1.5862,-1.6445,-1.6821,-1.7404,0.0,0.0,0.0,0.0,0.0,0.0,0.0,0.0,0.0,0.0,0.0,0.0,0.0,0.0,0.0,0.0,0.0,0.0,0.0,0.0,0.0,0.0,0.0,0.0,0.0,0.0,0.0,0.0,0.0,0.0,0.0,0.0,0.0,0.0,0.0,0.0,0.0,0.0,0.0,0.0,0.0,0.0,0.0,0.0,0.0,0.0,0.0,0.0,0.0,0.0,0.0,0.0,0.0,0.0,0.0,0.0,0.0,0.0,0.0,0.0,0.0,0.0,0.0,0.0,0.0,0.0,0.0,0.0,0.0,0.0,0.0,0.0,0.0,0.0,0.0,0.0,0.0,0.0,0.0,0.0,0.0,0.0,0.0,0.0,-0.1347,-0.4718,-0.7625,-1.0763,-1.4151,-1.4336,-1.432,-1.432,-1.432,-1.432,-1.432,-1.432,-1.432,-1.432,-1.432,-1.432,-1.432,-1.432,-1.432,-1.432,-1.432,-1.432,-1.432,-1.432,-1.432,-1.432,-1.4758,-1.5185,-1.5802,-1.6369,-1.6711,-1.7264,0.0,0.0,0.0,0.0,0.0,0.0,0.0,0.0,0.0,0.0,0.0,0.0,0.0,0.0,0.0,0.0,0.0,0.0,0.0,0.0,0.0,0.0,0.0,0.0,0.0,0.0,0.0,0.0,0.0,0.0,0.0,0.0,0.0,0.0,0.0,0.0,0.0,0.0,0.0,0.0,0.0,0.0,0.0,0.0,0.0,0.0,0.0,0.0,0.0,0.0,0.0,0.0,0.0,0.0,0.0,0.0,0.0,0.0,0.0,0.0,0.0,0.0,0.0,0.0,0.0,0.0,0.0,0.0,0.0,0.0,0.0,0.0,0.0,0.0,0.0,0.0,0.0,0.0,0.0,0.0,0.0,0.0,0.0,0.0,-0.0,-0.0,-0.876,-1.4178,-1.4347,-1.4336,-1.432,-1.432,-1.432,-1.432,-1.432,-1.432,-1.432,-1.432,-1.432,-1.432,-1.432,-1.432,-1.432,-1.432,-1.432,-1.432,-1.432,-1.432,-1.432,-1.432,-1.432,-1.4686,-1.5023,-1.5663,-1.615,-1.635,0.0,0.0,0.0,0.0,0.0,0.0,0.0,0.0,0.0,0.0,0.0,0.0,0.0,0.0,0.0,0.0,0.0,0.0,0.0,0.0,0.0,0.0,0.0,0.0,0.0,0.0,0.0,0.0,0.0,0.0,0.0,0.0,0.0,0.0,0.0,0.0,0.0,0.0,0.0,0.0,0.0,0.0,0.0,0.0,0.0,0.0,0.0,0.0,0.0,0.0,0.0,0.0,0.0,0.0,0.0,0.0,0.0,0.0,0.0,0.0,0.0,0.0,0.0,0.0,0.0,0.0,0.0,0.0,0.0,0.0,0.0,0.0,0.0,0.0,0.0,0.0,0.0,0.0,0.0,0.0,0.0,0.0,0.0,0.0,-0.1347,-0.4718,-0.7625,-1.0751,-1.4108,-1.432,-1.432,-1.432,-1.432,-1.432,-1.432,-1.432,-1.432,-1.432,-1.432,-1.432,-1.432,-1.432,-1.432,-1.432,-1.432,-1.432,-1.432,-1.432,-1.432,-1.4309,-1.4222,-1.4821,-1.5645,-1.5674,-1.62,-1.6969,0.0,0.0,0.0,0.0,0.0,0.0,0.0,0.0,0.0,0.0,0.0,0.0,0.0,0.0,0.0,0.0,0.0,0.0,0.0,0.0,0.0,0.0,0.0,0.0,0.0,0.0,0.0,0.0,0.0,0.0,0.0,0.0,0.0,0.0,0.0,0.0,0.0,0.0,0.0,0.0,0.0,0.0,0.0,0.0,0.0,0.0,0.0,0.0,0.0,0.0,0.0,0.0,0.0,0.0,0.0,0.0,0.0,0.0,0.0,0.0,0.0,0.0,0.0,0.0,0.0,0.0,0.0,0.0,0.0,0.0,0.0,0.0,0.0,0.0,0.0,0.0,0.0,0.0,0.0,0.0,0.0,0.0,0.0,0.0,-0.1122,-0.4043,-0.7849,-1.1214,-1.4124,-1.4336,-1.4336,-1.432,-1.432,-1.432,-1.432,-1.432,-1.432,-1.432,-1.432,-1.432,-1.432,-1.432,-1.432,-1.432,-1.432,-1.432,-1.432,-1.432,-1.4292,-1.4238,-1.4393,-1.4948,-1.5711,-1.5766,-1.6311,-1.71,0.0,0.0,0.0,0.0,0.0,0.0,0.0,0.0,0.0,0.0,0.0,0.0,0.0,0.0,0.0,0.0,0.0,0.0,0.0,0.0,0.0,0.0,0.0,0.0,0.0,0.0,0.0,0.0,0.0,0.0,0.0,0.0,0.0,0.0,0.0,0.0,0.0,0.0,0.0,0.0,0.0,0.0,0.0,0.0,0.0,0.0,0.0,0.0,0.0,0.0,0.0,0.0,0.0,0.0,0.0,0.0,0.0,0.0,0.0,0.0,0.0,0.0,0.0,0.0,0.0,0.0,0.0,0.0,0.0,0.0,0.0,0.0,0.0,0.0,0.0,0.0,0.0,0.0,0.0,0.0,0.0,0.0,0.0,0.0,0.0,0.0,-0.8082,-1.3267,-1.3933,-1.4135,-1.4336,-1.432,-1.432,-1.432,-1.432,-1.432,-1.432,-1.432,-1.432,-1.432,-1.432,-1.432,-1.432,-1.432,-1.432,-1.432,-1.432,-1.4309,-1.4238,-1.414,-1.4781,-1.5272,-1.5704,-1.6118,-1.667,-1.6978,0.0,0.0,0.0,0.0,0.0,0.0,0.0,0.0,0.0,0.0,0.0,0.0,0.0,0.0,0.0,0.0,0.0,0.0,0.0,0.0,0.0,0.0,0.0,0.0,0.0,0.0,0.0,0.0,0.0,0.0,0.0,0.0,0.0,0.0,0.0,0.0,0.0,0.0,0.0,0.0,0.0,0.0,0.0,0.0,0.0,0.0,0.0,0.0,0.0,0.0,0.0,0.0,0.0,0.0,0.0,0.0,0.0,0.0,0.0,0.0,0.0,0.0,0.0,0.0,0.0,0.0,0.0,0.0,0.0,0.0,0.0,0.0,0.0,0.0,0.0,0.0,0.0,0.0,0.0,0.0,0.0,0.0,0.0,0.0,0.0,0.0,-0.2015,-0.5371,-1.0289,-1.299,-1.4336,-1.432,-1.432,-1.432,-1.432,-1.432,-1.432,-1.432,-1.432,-1.432,-1.432,-1.432,-1.432,-1.432,-1.432,-1.432,-1.4309,-1.4222,-1.4376,-1.4781,-1.4792,-1.5325,-1.6118,-1.6221,-1.6584,-1.6978,0.0,0.0,0.0,0.0,0.0,0.0,0.0,0.0,0.0,0.0,0.0,0.0,0.0,0.0,0.0,0.0,0.0,0.0,0.0,0.0,0.0,0.0,0.0,0.0,0.0,0.0,0.0,0.0,0.0,0.0,0.0,0.0,0.0,0.0,0.0,0.0,0.0,0.0,0.0,0.0,0.0,0.0,0.0,0.0,0.0,0.0,0.0,0.0,0.0,0.0,0.0,0.0,0.0,0.0,0.0,0.0,0.0,0.0,0.0,0.0,0.0,0.0,0.0,0.0,0.0,0.0,0.0,0.0,0.0,0.0,0.0,0.0,0.0,0.0,0.0,0.0,0.0,0.0,0.0,0.0,0.0,0.0,0.0,0.0,0.0,0.0,-0.4259,-0.7393,-0.8278,-1.2098,-1.4336,-1.432,-1.432,-1.432,-1.432,-1.432,-1.432,-1.432,-1.432,-1.432,-1.432,-1.432,-1.432,-1.432,-1.432,-1.4292,-1.4222,-1.4167,-1.4293,-1.4821,-1.4897,-1.5448,-1.6234,-1.6374,-1.6768,-1.6978,0.0,0.0,0.0,0.0,0.0,0.0,0.0,0.0,0.0,0.0,0.0,0.0,0.0,0.0,0.0,0.0,0.0,0.0,0.0,0.0,0.0,0.0,0.0,0.0,0.0,0.0,0.0,0.0,0.0,0.0,0.0,0.0,0.0,0.0,0.0,0.0,0.0,0.0,0.0,0.0,0.0,0.0,0.0,0.0,0.0,0.0,0.0,0.0,0.0,0.0,0.0,0.0,0.0,0.0,0.0,0.0,0.0,0.0,0.0,0.0,0.0,0.0,0.0,0.0,0.0,0.0,0.0,0.0,0.0,0.0,0.0,0.0,0.0,0.0,0.0,0.0,0.0,0.0,0.0,0.0,0.0,0.0,0.0,0.0,0.0,0.0,-0.8985,-1.2587,-0.8734,-1.2098,-1.4336,-1.432,-1.432,-1.432,-1.432,-1.432,-1.432,-1.432,-1.432,-1.432,-1.432,-1.432,-1.432,-1.432,-1.4292,-1.4238,-1.414,-1.4097,-1.4172,-1.4631,-1.5247,-1.5811,-1.6131,-1.6768,-1.6978,-1.6978,0.0,0.0,0.0,0.0,0.0,0.0,0.0,0.0,0.0,0.0,0.0,0.0,0.0,0.0,0.0,0.0,0.0,0.0,0.0,0.0,0.0,0.0,0.0,0.0,0.0,0.0,0.0,0.0,0.0,0.0,0.0,0.0,0.0,0.0,0.0,0.0,0.0,0.0,0.0,0.0,0.0,0.0,0.0,0.0,0.0,0.0,0.0,0.0,0.0,0.0,0.0,0.0,0.0,0.0,0.0,0.0,0.0,0.0,0.0,0.0,0.0,0.0,0.0,0.0,0.0,0.0,0.0,0.0,0.0,0.0,0.0,0.0,0.0,0.0,0.0,0.0,0.0,0.0,0.0,0.0,0.0,0.0,0.0,0.0,0.0,0.0,-0.8985,-1.3949,-1.3481,-1.3912,-1.4336,-1.432,-1.432,-1.432,-1.432,-1.432,-1.432,-1.432,-1.432,-1.432,-1.432,-1.432,-1.432,-1.432,-1.4205,-1.4151,-1.4124,-1.3917,-1.4243,-1.4619,-1.5145,-1.5723,-1.6131,-1.6768,-1.6978,-1.6978,0.0,0.0,0.0,0.0,0.0,0.0,0.0,0.0,0.0,0.0,0.0,0.0,0.0,0.0,0.0,0.0,0.0,0.0,0.0,0.0,0.0,0.0,0.0,0.0,0.0,0.0,0.0,0.0,0.0,0.0,0.0,0.0,0.0,0.0,0.0,0.0,0.0,0.0,0.0,0.0,0.0,0.0,0.0,0.0,0.0,0.0,0.0,0.0,0.0,0.0,0.0,0.0,0.0,0.0,0.0,0.0,0.0,0.0,0.0,0.0,0.0,0.0,0.0,0.0,0.0,0.0,0.0,0.0,0.0,0.0,0.0,0.0,0.0,0.0,0.0,0.0,0.0,0.0,0.0,0.0,0.0,0.0,0.0,0.0,0.0,0.0,-0.65,-1.145,-1.4161,-1.4347,-1.4336,-1.432,-1.432,-1.432,-1.432,-1.432,-1.432,-1.432,-1.432,-1.432,-1.432,-1.432,-1.4276,-1.4222,-1.4167,-1.4069,-1.3934,-1.383,-1.417,-1.4521,-1.5096,-1.592,-1.6558,-1.6978,-1.6978,-1.6978]}]]